Wetterdaten: Samstag, 03.06.2017
Datum Zeit Temp. A. Pool Temp. Feuchte A. Luftdruck Regen Wind Richtung Richtung Sonnenschein ET UV Solar Taupunkt Windchill Windben Empfang
03.06.2017 00:00 17,2 C 26,7 C 83 % 1014,2 hPa 0,0 l/m 0,1 km/h (0 Bft) O 89 0 min 0,000 mm 0,0 UV-I 0 W/m 14,3 C 17,2 C 1,6 km/h (1 Bft) 97,37 %
03.06.2017 00:02 17,2 C 26,7 C 83 % 1014,2 hPa 0,0 l/m 0,0 km/h (0 Bft) O 89 0 min 0,000 mm 0,0 UV-I 0 W/m 14,3 C 17,2 C 0,0 km/h (0 Bft) 15,38 %
03.06.2017 00:04 17,1 C 26,7 C 84 % 1014,2 hPa 0,0 l/m 2,1 km/h (1 Bft) O 89 0 min 0,000 mm 0,0 UV-I 0 W/m 14,4 C 17,1 C 3,2 km/h (1 Bft) 78,43 %
03.06.2017 00:06 17,1 C 26,7 C 84 % 1014,2 hPa 0,0 l/m 2,5 km/h (1 Bft) O-SO 111 0 min 0,000 mm 0,0 UV-I 0 W/m 14,4 C 17,1 C 4,8 km/h (1 Bft) 95,74 %
03.06.2017 00:08 17,2 C 26,7 C 84 % 1014,1 hPa 0,0 l/m 3,6 km/h (1 Bft) S-SW 193 0 min 0,000 mm 0,0 UV-I 0 W/m 14,5 C 17,2 C 4,8 km/h (1 Bft) 97,44 %
03.06.2017 00:10 17,2 C 26,7 C 84 % 1014,1 hPa 0,0 l/m 4,0 km/h (1 Bft) S-SW 200 0 min 0,000 mm 0,0 UV-I 0 W/m 14,5 C 17,2 C 4,8 km/h (1 Bft) 96,36 %
03.06.2017 00:12 17,3 C 26,7 C 84 % 1014,2 hPa 0,0 l/m 4,4 km/h (1 Bft) S-SW 200 0 min 0,000 mm 0,0 UV-I 0 W/m 14,6 C 17,3 C 6,4 km/h (2 Bft) 94,87 %
03.06.2017 00:14 17,2 C 26,7 C 84 % 1014,1 hPa 0,0 l/m 4,8 km/h (1 Bft) S-SW 200 0 min 0,000 mm 0,0 UV-I 0 W/m 14,5 C 17,2 C 6,4 km/h (2 Bft) 98,00 %
03.06.2017 00:16 17,2 C 26,7 C 84 % 1014,1 hPa 0,0 l/m 4,7 km/h (1 Bft) S-SW 201 0 min 0,000 mm 0,0 UV-I 0 W/m 14,5 C 17,2 C 8,0 km/h (2 Bft) 94,34 %
03.06.2017 00:18 17,3 C 26,7 C 84 % 1014,1 hPa 0,0 l/m 4,6 km/h (1 Bft) S-SW 200 0 min 0,000 mm 0,0 UV-I 0 W/m 14,6 C 17,3 C 6,4 km/h (2 Bft) 97,37 %
03.06.2017 00:20 17,3 C 26,7 C 84 % 1014,1 hPa 0,0 l/m 5,1 km/h (1 Bft) S-SW 199 0 min 0,000 mm 0,0 UV-I 0 W/m 14,6 C 17,3 C 6,4 km/h (2 Bft) 95,24 %
03.06.2017 00:22 17,4 C 26,7 C 83 % 1014,1 hPa 0,0 l/m 4,6 km/h (1 Bft) S-SW 202 0 min 0,000 mm 0,0 UV-I 0 W/m 14,5 C 17,4 C 6,4 km/h (2 Bft) 100,00 %
03.06.2017 00:24 17,4 C 26,7 C 83 % 1014,1 hPa 0,0 l/m 3,8 km/h (1 Bft) S-SW 202 0 min 0,000 mm 0,0 UV-I 0 W/m 14,5 C 17,4 C 6,4 km/h (2 Bft) 97,87 %
03.06.2017 00:26 17,4 C 26,1 C 83 % 1014,1 hPa 0,0 l/m 3,9 km/h (1 Bft) S-SW 202 0 min 0,000 mm 0,0 UV-I 0 W/m 14,5 C 17,4 C 6,4 km/h (2 Bft) 100,00 %
03.06.2017 00:28 17,4 C 26,1 C 83 % 1014,1 hPa 0,0 l/m 4,1 km/h (1 Bft) S-SW 202 0 min 0,000 mm 0,0 UV-I 0 W/m 14,5 C 17,4 C 6,4 km/h (2 Bft) 100,00 %
03.06.2017 00:30 17,4 C 26,1 C 83 % 1014,1 hPa 0,0 l/m 3,6 km/h (1 Bft) S-SW 202 0 min 0,000 mm 0,0 UV-I 0 W/m 14,5 C 17,4 C 4,8 km/h (1 Bft) 98,00 %
03.06.2017 00:32 17,4 C 26,1 C 83 % 1014,1 hPa 0,0 l/m 3,5 km/h (1 Bft) S-SW 202 0 min 0,000 mm 0,0 UV-I 0 W/m 14,5 C 17,4 C 4,8 km/h (1 Bft) 97,14 %
03.06.2017 00:34 17,4 C 26,1 C 83 % 1014,1 hPa 0,0 l/m 4,2 km/h (1 Bft) S-SW 203 0 min 0,000 mm 0,0 UV-I 0 W/m 14,5 C 17,4 C 6,4 km/h (2 Bft) 97,87 %
03.06.2017 00:36 17,4 C 26,1 C 83 % 1014,1 hPa 0,0 l/m 2,3 km/h (1 Bft) S-SW 203 0 min 0,000 mm 0,0 UV-I 0 W/m 14,5 C 17,4 C 4,8 km/h (1 Bft) 100,00 %
03.06.2017 00:38 17,4 C 26,1 C 83 % 1014,1 hPa 0,0 l/m 2,5 km/h (1 Bft) S-SW 203 0 min 0,000 mm 0,0 UV-I 0 W/m 14,5 C 17,4 C 4,8 km/h (1 Bft) 97,87 %
03.06.2017 00:40 17,3 C 26,1 C 83 % 1014,1 hPa 0,0 l/m 2,7 km/h (1 Bft) S-SW 203 0 min 0,000 mm 0,0 UV-I 0 W/m 14,4 C 17,3 C 3,2 km/h (1 Bft) 100,00 %
03.06.2017 00:42 17,3 C 26,1 C 84 % 1014,2 hPa 0,0 l/m 0,3 km/h (0 Bft) S-SW 203 0 min 0,000 mm 0,0 UV-I 0 W/m 14,6 C 17,3 C 3,2 km/h (1 Bft) 100,00 %
03.06.2017 00:44 17,2 C 26,1 C 84 % 1014,2 hPa 0,0 l/m 0,0 km/h (0 Bft) S-SW 203 0 min 0,000 mm 0,0 UV-I 0 W/m 14,5 C 17,2 C 0,0 km/h (0 Bft) 100,00 %
03.06.2017 00:46 17,1 C 26,1 C 84 % 1014,2 hPa 0,0 l/m 0,1 km/h (0 Bft) S-SW 203 0 min 0,000 mm 0,0 UV-I 0 W/m 14,4 C 17,1 C 1,6 km/h (1 Bft) 97,87 %
03.06.2017 00:48 16,9 C 26,1 C 84 % 1014,3 hPa 0,0 l/m 0,0 km/h (0 Bft) S-SW 203 0 min 0,000 mm 0,0 UV-I 0 W/m 14,2 C 16,9 C 0,0 km/h (0 Bft) 95,83 %
03.06.2017 00:50 16,8 C 26,1 C 85 % 1014,3 hPa 0,0 l/m 0,0 km/h (0 Bft) S-SW 203 0 min 0,000 mm 0,0 UV-I 0 W/m 14,3 C 16,8 C 0,0 km/h (0 Bft) 98,08 %
03.06.2017 00:52 16,7 C 26,1 C 85 % 1014,3 hPa 0,0 l/m 0,0 km/h (0 Bft) S-SW 203 0 min 0,000 mm 0,0 UV-I 0 W/m 14,2 C 16,7 C 1,6 km/h (1 Bft) 100,00 %
03.06.2017 00:54 16,7 C 26,1 C 86 % 1014,2 hPa 0,0 l/m 0,2 km/h (0 Bft) S-SW 203 0 min 0,000 mm 0,0 UV-I 0 W/m 14,3 C 16,7 C 1,6 km/h (1 Bft) 98,00 %
03.06.2017 00:56 16,8 C 26,1 C 86 % 1014,2 hPa 0,0 l/m 0,2 km/h (0 Bft) S-SW 203 0 min 0,000 mm 0,0 UV-I 0 W/m 14,4 C 16,8 C 1,6 km/h (1 Bft) 98,11 %
03.06.2017 00:58 16,8 C 26,1 C 85 % 1014,2 hPa 0,0 l/m 0,5 km/h (0 Bft) S-SW 203 0 min 0,000 mm 0,0 UV-I 0 W/m 14,3 C 16,8 C 1,6 km/h (1 Bft) 97,62 %
03.06.2017 01:00 16,9 C 26,1 C 85 % 1014,2 hPa 0,0 l/m 1,1 km/h (1 Bft) S-SW 203 0 min 0,000 mm 0,0 UV-I 0 W/m 14,4 C 16,9 C 3,2 km/h (1 Bft) 93,62 %
03.06.2017 01:02 16,9 C 26,1 C 85 % 1014,2 hPa 0,0 l/m 0,3 km/h (0 Bft) S-SW 203 0 min 0,000 mm 0,0 UV-I 0 W/m 14,4 C 16,9 C 1,6 km/h (1 Bft) 100,00 %
03.06.2017 01:04 16,9 C 26,1 C 85 % 1014,2 hPa 0,0 l/m 0,0 km/h (0 Bft) S-SW 203 0 min 0,000 mm 0,0 UV-I 0 W/m 14,4 C 16,9 C 0,0 km/h (0 Bft) 97,37 %
03.06.2017 01:06 16,8 C 26,1 C 85 % 1014,2 hPa 0,0 l/m 0,0 km/h (0 Bft) S-SW 203 0 min 0,000 mm 0,0 UV-I 0 W/m 14,3 C 16,8 C 0,0 km/h (0 Bft) 100,00 %
03.06.2017 01:08 16,7 C 26,1 C 85 % 1014,2 hPa 0,0 l/m 0,0 km/h (0 Bft) S-SW 203 0 min 0,000 mm 0,0 UV-I 0 W/m 14,2 C 16,7 C 0,0 km/h (0 Bft) 95,74 %
03.06.2017 01:10 16,6 C 26,1 C 85 % 1014,2 hPa 0,0 l/m 0,0 km/h (0 Bft) S-SW 203 0 min 0,000 mm 0,0 UV-I 0 W/m 14,1 C 16,6 C 0,0 km/h (0 Bft) 97,56 %
03.06.2017 01:12 16,5 C 26,1 C 86 % 1014,2 hPa 0,0 l/m 0,4 km/h (0 Bft) S-SW 203 0 min 0,000 mm 0,0 UV-I 0 W/m 14,1 C 16,5 C 1,6 km/h (1 Bft) 98,18 %
03.06.2017 01:14 16,4 C 26,1 C 86 % 1014,2 hPa 0,0 l/m 0,0 km/h (0 Bft) S-SW 203 0 min 0,000 mm 0,0 UV-I 0 W/m 14,1 C 16,4 C 1,6 km/h (1 Bft) 97,87 %
03.06.2017 01:16 16,3 C 26,1 C 87 % 1014,2 hPa 0,0 l/m 0,0 km/h (0 Bft) S-SW 203 0 min 0,000 mm 0,0 UV-I 0 W/m 14,1 C 16,3 C 1,6 km/h (1 Bft) 98,00 %
03.06.2017 01:18 16,3 C 26,1 C 88 % 1014,2 hPa 0,0 l/m 0,0 km/h (0 Bft) S-SW 203 0 min 0,000 mm 0,0 UV-I 0 W/m 14,3 C 16,3 C 0,0 km/h (0 Bft) 98,00 %
03.06.2017 01:20 16,3 C 26,1 C 87 % 1014,2 hPa 0,0 l/m 0,0 km/h (0 Bft) S-SW 203 0 min 0,000 mm 0,0 UV-I 0 W/m 14,1 C 16,3 C 0,0 km/h (0 Bft) 95,74 %
03.06.2017 01:22 16,3 C 26,1 C 87 % 1014,3 hPa 0,0 l/m 0,0 km/h (0 Bft) S-SW 203 0 min 0,000 mm 0,0 UV-I 0 W/m 14,1 C 16,3 C 0,0 km/h (0 Bft) 100,00 %
03.06.2017 01:24 16,3 C 26,1 C 88 % 1014,2 hPa 0,0 l/m 1,5 km/h (1 Bft) S-SW 203 0 min 0,000 mm 0,0 UV-I 0 W/m 14,3 C 16,3 C 1,6 km/h (1 Bft) 97,87 %
03.06.2017 01:26 16,3 C 26,1 C 87 % 1014,1 hPa 0,0 l/m 2,3 km/h (1 Bft) S-SW 203 0 min 0,000 mm 0,0 UV-I 0 W/m 14,1 C 16,3 C 3,2 km/h (1 Bft) 100,00 %
03.06.2017 01:28 16,3 C 26,1 C 87 % 1014,2 hPa 0,0 l/m 2,7 km/h (1 Bft) S-SW 203 0 min 0,000 mm 0,0 UV-I 0 W/m 14,1 C 16,3 C 3,2 km/h (1 Bft) 98,00 %
03.06.2017 01:30 16,3 C 26,1 C 87 % 1014,2 hPa 0,0 l/m 2,4 km/h (1 Bft) S-SW 203 0 min 0,000 mm 0,0 UV-I 0 W/m 14,1 C 16,3 C 3,2 km/h (1 Bft) 97,44 %
03.06.2017 01:32 16,3 C 26,1 C 88 % 1014,1 hPa 0,0 l/m 0,2 km/h (0 Bft) S-SW 203 0 min 0,000 mm 0,0 UV-I 0 W/m 14,3 C 16,3 C 1,6 km/h (1 Bft) 100,00 %
03.06.2017 01:34 16,3 C 26,1 C 87 % 1014,1 hPa 0,0 l/m 0,0 km/h (0 Bft) S-SW 203 0 min 0,000 mm 0,0 UV-I 0 W/m 14,1 C 16,3 C 0,0 km/h (0 Bft) 100,00 %
03.06.2017 01:36 16,3 C 26,1 C 87 % 1014,2 hPa 0,0 l/m 0,1 km/h (0 Bft) S-SW 203 0 min 0,000 mm 0,0 UV-I 0 W/m 14,1 C 16,3 C 1,6 km/h (1 Bft) 98,00 %
03.06.2017 01:38 16,3 C 26,1 C 88 % 1014,1 hPa 0,0 l/m 1,7 km/h (1 Bft) S-SW 203 0 min 0,000 mm 0,0 UV-I 0 W/m 14,3 C 16,3 C 3,2 km/h (1 Bft) 97,56 %
03.06.2017 01:40 16,4 C 26,1 C 88 % 1014,1 hPa 0,0 l/m 1,6 km/h (1 Bft) S-SW 203 0 min 0,000 mm 0,0 UV-I 0 W/m 14,4 C 16,4 C 3,2 km/h (1 Bft) 97,73 %
03.06.2017 01:42 16,4 C 26,1 C 87 % 1014,1 hPa 0,0 l/m 2,2 km/h (1 Bft) S-SW 203 0 min 0,000 mm 0,0 UV-I 0 W/m 14,2 C 16,4 C 3,2 km/h (1 Bft) 100,00 %
03.06.2017 01:44 16,4 C 26,1 C 87 % 1014,1 hPa 0,0 l/m 3,0 km/h (1 Bft) S-SW 203 0 min 0,000 mm 0,0 UV-I 0 W/m 14,2 C 16,4 C 3,2 km/h (1 Bft) 98,00 %
03.06.2017 01:46 16,4 C 26,1 C 88 % 1014,1 hPa 0,0 l/m 3,1 km/h (1 Bft) S-SW 203 0 min 0,000 mm 0,0 UV-I 0 W/m 14,4 C 16,4 C 4,8 km/h (1 Bft) 98,00 %
03.06.2017 01:48 16,6 C 26,1 C 88 % 1014,1 hPa 0,0 l/m 3,9 km/h (1 Bft) S-SW 203 0 min 0,000 mm 0,0 UV-I 0 W/m 14,6 C 16,6 C 4,8 km/h (1 Bft) 97,14 %
03.06.2017 01:50 16,6 C 26,1 C 88 % 1014,1 hPa 0,0 l/m 3,1 km/h (1 Bft) S-SW 203 0 min 0,000 mm 0,0 UV-I 0 W/m 14,6 C 16,6 C 4,8 km/h (1 Bft) 94,00 %
03.06.2017 01:52 16,6 C 26,1 C 87 % 1014,1 hPa 0,0 l/m 2,2 km/h (1 Bft) S-SW 203 0 min 0,000 mm 0,0 UV-I 0 W/m 14,4 C 16,6 C 4,8 km/h (1 Bft) 93,62 %
03.06.2017 01:54 16,6 C 26,1 C 87 % 1014,1 hPa 0,0 l/m 1,6 km/h (1 Bft) S-SW 203 0 min 0,000 mm 0,0 UV-I 0 W/m 14,4 C 16,6 C 3,2 km/h (1 Bft) 94,34 %
03.06.2017 01:56 16,5 C 26,1 C 87 % 1014,1 hPa 0,0 l/m 0,7 km/h (0 Bft) S-SW 203 0 min 0,000 mm 0,0 UV-I 0 W/m 14,3 C 16,5 C 1,6 km/h (1 Bft) 92,68 %
03.06.2017 01:58 16,4 C 26,1 C 87 % 1014,1 hPa 0,0 l/m 0,1 km/h (0 Bft) S-SW 203 0 min 0,000 mm 0,0 UV-I 0 W/m 14,2 C 16,4 C 1,6 km/h (1 Bft) 94,34 %
03.06.2017 02:00 16,3 C 26,1 C 87 % 1014,2 hPa 0,0 l/m 0,1 km/h (0 Bft) S-SW 203 0 min 0,000 mm 0,0 UV-I 0 W/m 14,1 C 16,3 C 1,6 km/h (1 Bft) 95,74 %
03.06.2017 02:02 16,2 C 26,1 C 87 % 1014,1 hPa 0,0 l/m 0,0 km/h (0 Bft) S-SW 203 0 min 0,000 mm 0,0 UV-I 0 W/m 14,0 C 16,2 C 0,0 km/h (0 Bft) 93,62 %
03.06.2017 02:04 16,1 C 26,1 C 88 % 1014,2 hPa 0,0 l/m 0,5 km/h (0 Bft) S-SW 203 0 min 0,000 mm 0,0 UV-I 0 W/m 14,1 C 16,1 C 1,6 km/h (1 Bft) 94,87 %
03.06.2017 02:06 16,1 C 26,1 C 89 % 1014,2 hPa 0,0 l/m 2,0 km/h (1 Bft) S-SW 203 0 min 0,000 mm 0,0 UV-I 0 W/m 14,3 C 16,1 C 3,2 km/h (1 Bft) 95,74 %
03.06.2017 02:08 16,1 C 26,1 C 89 % 1014,2 hPa 0,0 l/m 1,4 km/h (1 Bft) S-SW 203 0 min 0,000 mm 0,0 UV-I 0 W/m 14,3 C 16,1 C 3,2 km/h (1 Bft) 95,74 %
03.06.2017 02:10 16,2 C 26,1 C 89 % 1014,2 hPa 0,0 l/m 2,7 km/h (1 Bft) S-SW 203 0 min 0,000 mm 0,0 UV-I 0 W/m 14,4 C 16,2 C 3,2 km/h (1 Bft) 90,57 %
03.06.2017 02:12 16,2 C 26,1 C 88 % 1014,2 hPa 0,0 l/m 2,6 km/h (1 Bft) S-SW 203 0 min 0,000 mm 0,0 UV-I 0 W/m 14,2 C 16,2 C 4,8 km/h (1 Bft) 91,49 %
03.06.2017 02:14 16,2 C 26,1 C 88 % 1014,2 hPa 0,0 l/m 2,2 km/h (1 Bft) S-SW 203 0 min 0,000 mm 0,0 UV-I 0 W/m 14,2 C 16,2 C 3,2 km/h (1 Bft) 97,37 %
03.06.2017 02:16 16,3 C 26,1 C 88 % 1014,2 hPa 0,0 l/m 1,8 km/h (1 Bft) S-SW 203 0 min 0,000 mm 0,0 UV-I 0 W/m 14,3 C 16,3 C 4,8 km/h (1 Bft) 90,00 %
03.06.2017 02:18 16,3 C 26,1 C 88 % 1014,2 hPa 0,0 l/m 1,1 km/h (1 Bft) S-SW 203 0 min 0,000 mm 0,0 UV-I 0 W/m 14,3 C 16,3 C 4,8 km/h (1 Bft) 96,00 %
03.06.2017 02:20 16,2 C 26,1 C 88 % 1014,2 hPa 0,0 l/m 0,1 km/h (0 Bft) S-SW 203 0 min 0,000 mm 0,0 UV-I 0 W/m 14,2 C 16,2 C 1,6 km/h (1 Bft) 93,62 %
03.06.2017 02:22 16,2 C 26,1 C 88 % 1014,2 hPa 0,0 l/m 0,0 km/h (0 Bft) S-SW 203 0 min 0,000 mm 0,0 UV-I 0 W/m 14,2 C 16,2 C 0,0 km/h (0 Bft) 94,74 %
03.06.2017 02:24 16,1 C 26,1 C 88 % 1014,2 hPa 0,0 l/m 0,2 km/h (0 Bft) S-SW 203 0 min 0,000 mm 0,0 UV-I 0 W/m 14,1 C 16,1 C 1,6 km/h (1 Bft) 94,34 %
03.06.2017 02:26 16,2 C 26,1 C 88 % 1014,3 hPa 0,0 l/m 0,0 km/h (0 Bft) S-SW 203 0 min 0,000 mm 0,0 UV-I 0 W/m 14,2 C 16,2 C 0,0 km/h (0 Bft) 94,00 %
03.06.2017 02:28 16,2 C 26,1 C 88 % 1014,3 hPa 0,0 l/m 0,1 km/h (0 Bft) S-SW 203 0 min 0,000 mm 0,0 UV-I 0 W/m 14,2 C 16,2 C 1,6 km/h (1 Bft) 95,74 %
03.06.2017 02:30 16,2 C 26,1 C 88 % 1014,3 hPa 0,0 l/m 0,0 km/h (0 Bft) S-SW 203 0 min 0,000 mm 0,0 UV-I 0 W/m 14,2 C 16,2 C 0,0 km/h (0 Bft) 92,11 %
03.06.2017 02:32 16,2 C 26,1 C 88 % 1014,3 hPa 0,0 l/m 0,0 km/h (0 Bft) S-SW 203 0 min 0,000 mm 0,0 UV-I 0 W/m 14,2 C 16,2 C 0,0 km/h (0 Bft) 94,00 %
03.06.2017 02:34 16,2 C 26,1 C 88 % 1014,2 hPa 0,0 l/m 0,9 km/h (0 Bft) S-SW 203 0 min 0,000 mm 0,0 UV-I 0 W/m 14,2 C 16,2 C 3,2 km/h (1 Bft) 95,74 %
03.06.2017 02:36 16,1 C 26,1 C 88 % 1014,3 hPa 0,0 l/m 2,3 km/h (1 Bft) S-SW 203 0 min 0,000 mm 0,0 UV-I 0 W/m 14,1 C 16,1 C 3,2 km/h (1 Bft) 94,00 %
03.06.2017 02:38 16,1 C 26,1 C 88 % 1014,3 hPa 0,0 l/m 3,0 km/h (1 Bft) S-SW 203 0 min 0,000 mm 0,0 UV-I 0 W/m 14,1 C 16,1 C 4,8 km/h (1 Bft) 97,87 %
03.06.2017 02:40 16,1 C 26,1 C 88 % 1014,3 hPa 0,0 l/m 3,7 km/h (1 Bft) S-SW 203 0 min 0,000 mm 0,0 UV-I 0 W/m 14,1 C 16,1 C 4,8 km/h (1 Bft) 98,11 %
03.06.2017 02:42 16,1 C 26,1 C 88 % 1014,3 hPa 0,0 l/m 3,4 km/h (1 Bft) S-SW 203 0 min 0,000 mm 0,0 UV-I 0 W/m 14,1 C 16,1 C 4,8 km/h (1 Bft) 97,37 %
03.06.2017 02:44 16,1 C 26,1 C 88 % 1014,2 hPa 0,0 l/m 3,3 km/h (1 Bft) S-SW 203 0 min 0,000 mm 0,0 UV-I 0 W/m 14,1 C 16,1 C 4,8 km/h (1 Bft) 96,00 %
03.06.2017 02:46 16,1 C 26,1 C 88 % 1014,2 hPa 0,0 l/m 2,7 km/h (1 Bft) S-SW 203 0 min 0,000 mm 0,0 UV-I 0 W/m 14,1 C 16,1 C 3,2 km/h (1 Bft) 100,00 %
03.06.2017 02:48 16,0 C 26,1 C 88 % 1014,2 hPa 0,0 l/m 3,0 km/h (1 Bft) S-SW 203 0 min 0,000 mm 0,0 UV-I 0 W/m 14,0 C 16,0 C 3,2 km/h (1 Bft) 95,92 %
03.06.2017 02:50 15,9 C 26,1 C 88 % 1014,1 hPa 0,0 l/m 1,5 km/h (1 Bft) S-SW 203 0 min 0,000 mm 0,0 UV-I 0 W/m 13,9 C 15,9 C 3,2 km/h (1 Bft) 100,00 %
03.06.2017 02:52 15,8 C 26,1 C 88 % 1014,1 hPa 0,0 l/m 0,0 km/h (0 Bft) S-SW 203 0 min 0,000 mm 0,0 UV-I 0 W/m 13,8 C 15,8 C 0,0 km/h (0 Bft) 98,00 %
03.06.2017 02:54 15,7 C 26,1 C 88 % 1014,1 hPa 0,0 l/m 0,0 km/h (0 Bft) S-SW 203 0 min 0,000 mm 0,0 UV-I 0 W/m 13,7 C 15,7 C 0,0 km/h (0 Bft) 100,00 %
03.06.2017 02:56 15,7 C 26,1 C 89 % 1014,1 hPa 0,0 l/m 0,0 km/h (0 Bft) S-SW 203 0 min 0,000 mm 0,0 UV-I 0 W/m 13,9 C 15,7 C 0,0 km/h (0 Bft) 98,00 %
03.06.2017 02:58 15,8 C 26,1 C 89 % 1014,1 hPa 0,0 l/m 0,0 km/h (0 Bft) S-SW 203 0 min 0,000 mm 0,0 UV-I 0 W/m 14,0 C 15,8 C 0,0 km/h (0 Bft) 97,56 %
03.06.2017 03:00 15,7 C 26,1 C 89 % 1014,1 hPa 0,0 l/m 0,0 km/h (0 Bft) S-SW 203 0 min 0,000 mm 0,0 UV-I 0 W/m 13,9 C 15,7 C 0,0 km/h (0 Bft) 97,87 %
03.06.2017 03:02 15,6 C 26,1 C 88 % 1014,0 hPa 0,0 l/m 1,5 km/h (1 Bft) S-SW 203 0 min 0,000 mm 0,0 UV-I 0 W/m 13,6 C 15,6 C 3,2 km/h (1 Bft) 94,64 %
03.06.2017 03:04 15,5 C 26,1 C 88 % 1014,1 hPa 0,0 l/m 1,1 km/h (1 Bft) S-SW 203 0 min 0,000 mm 0,0 UV-I 0 W/m 13,5 C 15,5 C 3,2 km/h (1 Bft) 100,00 %
03.06.2017 03:06 15,3 C 26,1 C 89 % 1014,1 hPa 0,0 l/m 0,5 km/h (0 Bft) S-SW 203 0 min 0,000 mm 0,0 UV-I 0 W/m 13,5 C 15,3 C 1,6 km/h (1 Bft) 98,00 %
03.06.2017 03:08 15,3 C 26,1 C 89 % 1014,0 hPa 0,0 l/m 0,3 km/h (0 Bft) S-SW 203 0 min 0,000 mm 0,0 UV-I 0 W/m 13,5 C 15,3 C 1,6 km/h (1 Bft) 100,00 %
03.06.2017 03:10 15,3 C 26,1 C 90 % 1014,1 hPa 0,0 l/m 0,0 km/h (0 Bft) S-SW 203 0 min 0,000 mm 0,0 UV-I 0 W/m 13,7 C 15,3 C 0,0 km/h (0 Bft) 98,00 %
03.06.2017 03:12 15,3 C 26,1 C 90 % 1014,1 hPa 0,0 l/m 0,1 km/h (0 Bft) S-SW 203 0 min 0,000 mm 0,0 UV-I 0 W/m 13,7 C 15,3 C 1,6 km/h (1 Bft) 96,00 %
03.06.2017 03:14 15,2 C 26,1 C 90 % 1014,1 hPa 0,0 l/m 0,4 km/h (0 Bft) S-SW 203 0 min 0,000 mm 0,0 UV-I 0 W/m 13,6 C 15,2 C 1,6 km/h (1 Bft) 97,87 %
03.06.2017 03:16 15,2 C 26,1 C 90 % 1014,0 hPa 0,0 l/m 0,0 km/h (0 Bft) S-SW 203 0 min 0,000 mm 0,0 UV-I 0 W/m 13,6 C 15,2 C 0,0 km/h (0 Bft) 97,87 %
03.06.2017 03:18 15,3 C 26,1 C 90 % 1014,0 hPa 0,0 l/m 0,1 km/h (0 Bft) S-SW 203 0 min 0,000 mm 0,0 UV-I 0 W/m 13,7 C 15,3 C 1,6 km/h (1 Bft) 95,74 %
03.06.2017 03:20 15,3 C 26,1 C 91 % 1014,0 hPa 0,0 l/m 0,1 km/h (0 Bft) S-SW 203 0 min 0,000 mm 0,0 UV-I 0 W/m 13,8 C 15,3 C 1,6 km/h (1 Bft) 97,37 %
03.06.2017 03:22 15,3 C 26,1 C 90 % 1014,0 hPa 0,0 l/m 0,1 km/h (0 Bft) S-SW 203 0 min 0,000 mm 0,0 UV-I 0 W/m 13,7 C 15,3 C 1,6 km/h (1 Bft) 96,00 %
03.06.2017 03:24 15,3 C 26,1 C 90 % 1014,0 hPa 0,0 l/m 0,2 km/h (0 Bft) S-SW 203 0 min 0,000 mm 0,0 UV-I 0 W/m 13,7 C 15,3 C 1,6 km/h (1 Bft) 100,00 %
03.06.2017 03:26 15,3 C 26,1 C 90 % 1014,0 hPa 0,0 l/m 1,0 km/h (0 Bft) S-SW 203 0 min 0,000 mm 0,0 UV-I 0 W/m 13,7 C 15,3 C 3,2 km/h (1 Bft) 100,00 %
03.06.2017 03:28 15,3 C 26,1 C 90 % 1014,0 hPa 0,0 l/m 1,0 km/h (0 Bft) S-SW 203 0 min 0,000 mm 0,0 UV-I 0 W/m 13,7 C 15,3 C 3,2 km/h (1 Bft) 98,00 %
03.06.2017 03:30 15,3 C 26,1 C 90 % 1014,0 hPa 0,0 l/m 1,8 km/h (1 Bft) S-SW 203 0 min 0,000 mm 0,0 UV-I 0 W/m 13,7 C 15,3 C 3,2 km/h (1 Bft) 100,00 %
03.06.2017 03:32 15,3 C 26,1 C 91 % 1014,0 hPa 0,0 l/m 1,9 km/h (1 Bft) S-SW 203 0 min 0,000 mm 0,0 UV-I 0 W/m 13,8 C 15,3 C 3,2 km/h (1 Bft) 100,00 %
03.06.2017 03:34 15,4 C 26,1 C 91 % 1014,0 hPa 0,0 l/m 1,9 km/h (1 Bft) S-SW 203 0 min 0,000 mm 0,0 UV-I 0 W/m 13,9 C 15,4 C 3,2 km/h (1 Bft) 96,23 %
03.06.2017 03:36 15,4 C 26,1 C 91 % 1014,0 hPa 0,0 l/m 0,1 km/h (0 Bft) S-SW 203 0 min 0,000 mm 0,0 UV-I 0 W/m 13,9 C 15,4 C 1,6 km/h (1 Bft) 100,00 %
03.06.2017 03:38 15,4 C 26,1 C 91 % 1014,0 hPa 0,0 l/m 0,6 km/h (0 Bft) S-SW 203 0 min 0,000 mm 0,0 UV-I 0 W/m 13,9 C 15,4 C 1,6 km/h (1 Bft) 97,56 %
03.06.2017 03:40 15,4 C 26,1 C 91 % 1014,1 hPa 0,0 l/m 1,2 km/h (1 Bft) S-SW 203 0 min 0,000 mm 0,0 UV-I 0 W/m 13,9 C 15,4 C 3,2 km/h (1 Bft) 100,00 %
03.06.2017 03:42 15,3 C 26,1 C 90 % 1014,1 hPa 0,0 l/m 1,8 km/h (1 Bft) S-SW 203 0 min 0,000 mm 0,0 UV-I 0 W/m 13,7 C 15,3 C 3,2 km/h (1 Bft) 97,56 %
03.06.2017 03:44 15,3 C 26,1 C 91 % 1014,0 hPa 0,0 l/m 2,2 km/h (1 Bft) S-SW 203 0 min 0,000 mm 0,0 UV-I 0 W/m 13,8 C 15,3 C 3,2 km/h (1 Bft) 100,00 %
03.06.2017 03:46 15,2 C 26,1 C 91 % 1014,0 hPa 0,0 l/m 2,2 km/h (1 Bft) S-SW 203 0 min 0,000 mm 0,0 UV-I 0 W/m 13,7 C 15,2 C 3,2 km/h (1 Bft) 97,56 %
03.06.2017 03:48 15,3 C 26,1 C 91 % 1014,0 hPa 0,0 l/m 3,0 km/h (1 Bft) S-SW 203 0 min 0,000 mm 0,0 UV-I 0 W/m 13,8 C 15,3 C 4,8 km/h (1 Bft) 100,00 %
03.06.2017 03:50 15,2 C 26,1 C 91 % 1014,0 hPa 0,0 l/m 3,0 km/h (1 Bft) S-SW 203 0 min 0,000 mm 0,0 UV-I 0 W/m 13,7 C 15,2 C 4,8 km/h (1 Bft) 96,00 %
03.06.2017 03:52 15,2 C 26,1 C 91 % 1014,0 hPa 0,0 l/m 2,6 km/h (1 Bft) S-SW 203 0 min 0,000 mm 0,0 UV-I 0 W/m 13,7 C 15,2 C 4,8 km/h (1 Bft) 95,74 %
03.06.2017 03:54 15,2 C 26,1 C 91 % 1014,0 hPa 0,0 l/m 3,0 km/h (1 Bft) S-SW 203 0 min 0,000 mm 0,0 UV-I 0 W/m 13,7 C 15,2 C 4,8 km/h (1 Bft) 98,00 %
03.06.2017 03:56 15,2 C 26,1 C 91 % 1014,0 hPa 0,0 l/m 1,4 km/h (1 Bft) S-SW 203 0 min 0,000 mm 0,0 UV-I 0 W/m 13,7 C 15,2 C 3,2 km/h (1 Bft) 92,45 %
03.06.2017 03:58 15,2 C 26,1 C 92 % 1013,9 hPa 0,0 l/m 2,5 km/h (1 Bft) S-SW 202 0 min 0,000 mm 0,0 UV-I 0 W/m 13,9 C 15,2 C 6,4 km/h (2 Bft) 97,56 %
03.06.2017 04:00 15,3 C 26,1 C 92 % 1013,9 hPa 0,0 l/m 1,9 km/h (1 Bft) S-SW 201 0 min 0,000 mm 0,0 UV-I 0 W/m 14,0 C 15,3 C 3,2 km/h (1 Bft) 96,00 %
03.06.2017 04:02 15,3 C 26,1 C 92 % 1013,9 hPa 0,0 l/m 4,0 km/h (1 Bft) S-SW 201 0 min 0,000 mm 0,0 UV-I 0 W/m 14,0 C 15,3 C 4,8 km/h (1 Bft) 93,94 %
03.06.2017 04:04 15,4 C 25,6 C 92 % 1013,9 hPa 0,0 l/m 2,4 km/h (1 Bft) S-SW 201 0 min 0,000 mm 0,0 UV-I 0 W/m 14,1 C 15,4 C 3,2 km/h (1 Bft) 98,00 %
03.06.2017 04:06 15,4 C 26,1 C 92 % 1013,9 hPa 0,0 l/m 1,6 km/h (1 Bft) S-SW 201 0 min 0,000 mm 0,0 UV-I 0 W/m 14,1 C 15,4 C 3,2 km/h (1 Bft) 97,44 %
03.06.2017 04:08 15,5 C 25,6 C 92 % 1013,9 hPa 0,0 l/m 1,6 km/h (1 Bft) S-SW 201 0 min 0,000 mm 0,0 UV-I 0 W/m 14,2 C 15,5 C 3,2 km/h (1 Bft) 98,00 %
03.06.2017 04:10 15,5 C 25,6 C 91 % 1013,9 hPa 0,0 l/m 1,8 km/h (1 Bft) S-SW 201 0 min 0,000 mm 0,0 UV-I 0 W/m 14,0 C 15,5 C 3,2 km/h (1 Bft) 98,00 %
03.06.2017 04:12 15,5 C 25,6 C 91 % 1013,9 hPa 0,0 l/m 0,3 km/h (0 Bft) S-SW 201 0 min 0,000 mm 0,0 UV-I 0 W/m 14,0 C 15,5 C 1,6 km/h (1 Bft) 91,49 %
03.06.2017 04:14 15,5 C 25,6 C 91 % 1013,9 hPa 0,0 l/m 0,7 km/h (0 Bft) S-SW 201 0 min 0,000 mm 0,0 UV-I 0 W/m 14,0 C 15,5 C 3,2 km/h (1 Bft) 94,74 %
03.06.2017 04:16 15,5 C 25,6 C 91 % 1013,9 hPa 0,0 l/m 0,2 km/h (0 Bft) S-SW 201 0 min 0,000 mm 0,0 UV-I 0 W/m 14,0 C 15,5 C 1,6 km/h (1 Bft) 94,34 %
03.06.2017 04:18 15,4 C 25,6 C 91 % 1013,9 hPa 0,0 l/m 0,0 km/h (0 Bft) S-SW 201 0 min 0,000 mm 0,0 UV-I 0 W/m 13,9 C 15,4 C 0,0 km/h (0 Bft) 91,49 %
03.06.2017 04:20 15,3 C 25,6 C 91 % 1013,9 hPa 0,0 l/m 0,0 km/h (0 Bft) S-SW 201 0 min 0,000 mm 0,0 UV-I 0 W/m 13,8 C 15,3 C 0,0 km/h (0 Bft) 97,87 %
03.06.2017 04:22 15,2 C 25,6 C 91 % 1013,9 hPa 0,0 l/m 0,0 km/h (0 Bft) S-SW 201 0 min 0,000 mm 0,0 UV-I 0 W/m 13,7 C 15,2 C 0,0 km/h (0 Bft) 97,87 %
03.06.2017 04:24 15,2 C 25,6 C 91 % 1013,9 hPa 0,0 l/m 0,0 km/h (0 Bft) S-SW 201 0 min 0,000 mm 0,0 UV-I 0 W/m 13,7 C 15,2 C 0,0 km/h (0 Bft) 97,87 %
03.06.2017 04:26 15,1 C 25,6 C 91 % 1013,9 hPa 0,0 l/m 0,0 km/h (0 Bft) S-SW 201 0 min 0,000 mm 0,0 UV-I 0 W/m 13,6 C 15,1 C 1,6 km/h (1 Bft) 97,87 %
03.06.2017 04:28 15,1 C 25,6 C 91 % 1013,9 hPa 0,0 l/m 0,2 km/h (0 Bft) S-SW 201 0 min 0,000 mm 0,0 UV-I 0 W/m 13,6 C 15,1 C 1,6 km/h (1 Bft) 97,73 %
03.06.2017 04:30 15,1 C 25,6 C 92 % 1013,9 hPa 0,0 l/m 0,4 km/h (0 Bft) S-SW 201 0 min 0,000 mm 0,0 UV-I 0 W/m 13,8 C 15,1 C 1,6 km/h (1 Bft) 100,00 %
03.06.2017 04:32 15,1 C 25,6 C 92 % 1013,9 hPa 0,0 l/m 0,2 km/h (0 Bft) S-SW 201 0 min 0,000 mm 0,0 UV-I 0 W/m 13,8 C 15,1 C 1,6 km/h (1 Bft) 96,00 %
03.06.2017 04:34 15,1 C 25,6 C 91 % 1013,9 hPa 0,0 l/m 0,0 km/h (0 Bft) S-SW 201 0 min 0,000 mm 0,0 UV-I 0 W/m 13,6 C 15,1 C 0,0 km/h (0 Bft) 94,74 %
03.06.2017 04:36 15,1 C 25,6 C 92 % 1013,9 hPa 0,0 l/m 0,3 km/h (0 Bft) S-SW 201 0 min 0,000 mm 0,0 UV-I 0 W/m 13,8 C 15,1 C 1,6 km/h (1 Bft) 100,00 %
03.06.2017 04:38 15,0 C 25,6 C 92 % 1013,9 hPa 0,0 l/m 2,4 km/h (1 Bft) S-SW 201 0 min 0,000 mm 0,0 UV-I 0 W/m 13,7 C 15,0 C 3,2 km/h (1 Bft) 97,87 %
03.06.2017 04:40 14,9 C 25,6 C 92 % 1013,9 hPa 0,0 l/m 3,6 km/h (1 Bft) S-SW 200 0 min 0,000 mm 0,0 UV-I 0 W/m 13,6 C 14,9 C 4,8 km/h (1 Bft) 100,00 %
03.06.2017 04:42 14,9 C 25,6 C 92 % 1013,9 hPa 0,0 l/m 2,9 km/h (1 Bft) S-SW 200 0 min 0,000 mm 0,0 UV-I 0 W/m 13,6 C 14,9 C 4,8 km/h (1 Bft) 100,00 %
03.06.2017 04:44 14,8 C 25,6 C 91 % 1013,9 hPa 0,0 l/m 0,2 km/h (0 Bft) S-SW 200 0 min 0,000 mm 0,0 UV-I 0 W/m 13,3 C 14,8 C 1,6 km/h (1 Bft) 95,74 %
03.06.2017 04:46 14,7 C 25,6 C 91 % 1013,9 hPa 0,0 l/m 0,8 km/h (0 Bft) S-SW 200 0 min 0,000 mm 0,0 UV-I 0 W/m 13,2 C 14,7 C 1,6 km/h (1 Bft) 100,00 %
03.06.2017 04:48 14,6 C 25,6 C 91 % 1013,9 hPa 0,0 l/m 0,0 km/h (0 Bft) S-SW 200 0 min 0,000 mm 0,0 UV-I 0 W/m 13,1 C 14,6 C 0,0 km/h (0 Bft) 100,00 %
03.06.2017 04:50 14,4 C 25,6 C 92 % 1014,0 hPa 0,0 l/m 0,4 km/h (0 Bft) S-SW 200 0 min 0,000 mm 0,0 UV-I 1 W/m 13,1 C 14,4 C 1,6 km/h (1 Bft) 97,56 %
03.06.2017 04:52 14,4 C 25,6 C 92 % 1014,0 hPa 0,0 l/m 0,0 km/h (0 Bft) S-SW 200 0 min 0,000 mm 0,0 UV-I 5 W/m 13,1 C 14,4 C 0,0 km/h (0 Bft) 100,00 %
03.06.2017 04:54 14,4 C 25,6 C 93 % 1014,0 hPa 0,0 l/m 0,4 km/h (0 Bft) S-SW 200 0 min 0,000 mm 0,0 UV-I 5 W/m 13,3 C 14,4 C 1,6 km/h (1 Bft) 95,74 %
03.06.2017 04:56 14,5 C 25,6 C 93 % 1014,0 hPa 0,0 l/m 0,0 km/h (0 Bft) S-SW 200 0 min 0,000 mm 0,0 UV-I 5 W/m 13,4 C 14,5 C 0,0 km/h (0 Bft) 100,00 %
03.06.2017 04:58 14,5 C 25,6 C 93 % 1014,0 hPa 0,0 l/m 0,0 km/h (0 Bft) S-SW 200 0 min 0,000 mm 0,0 UV-I 5 W/m 13,4 C 14,5 C 0,0 km/h (0 Bft) 97,87 %
03.06.2017 05:00 14,5 C 25,6 C 93 % 1014,0 hPa 0,0 l/m 0,2 km/h (0 Bft) S-SW 200 0 min 0,000 mm 0,0 UV-I 6 W/m 13,4 C 14,5 C 1,6 km/h (1 Bft) 97,37 %
03.06.2017 05:02 14,6 C 25,6 C 93 % 1014,0 hPa 0,0 l/m 0,2 km/h (0 Bft) S-SW 200 0 min 0,000 mm 0,0 UV-I 7 W/m 13,5 C 14,6 C 1,6 km/h (1 Bft) 98,11 %
03.06.2017 05:04 14,6 C 25,6 C 93 % 1014,0 hPa 0,0 l/m 0,0 km/h (0 Bft) S-SW 200 0 min 0,000 mm 0,0 UV-I 7 W/m 13,5 C 14,6 C 0,0 km/h (0 Bft) 95,12 %
03.06.2017 05:06 14,5 C 25,6 C 93 % 1014,1 hPa 0,0 l/m 0,0 km/h (0 Bft) S-SW 200 0 min 0,000 mm 0,0 UV-I 7 W/m 13,4 C 14,5 C 0,0 km/h (0 Bft) 98,00 %
03.06.2017 05:08 14,4 C 25,6 C 93 % 1014,1 hPa 0,0 l/m 0,0 km/h (0 Bft) S-SW 200 0 min 0,000 mm 0,0 UV-I 9 W/m 13,3 C 14,4 C 0,0 km/h (0 Bft) 100,00 %
03.06.2017 05:10 14,4 C 25,6 C 93 % 1014,1 hPa 0,0 l/m 0,0 km/h (0 Bft) S-SW 200 0 min 0,000 mm 0,0 UV-I 9 W/m 13,3 C 14,4 C 0,0 km/h (0 Bft) 100,00 %
03.06.2017 05:12 14,4 C 25,6 C 93 % 1014,1 hPa 0,0 l/m 0,1 km/h (0 Bft) S-SW 200 0 min 0,000 mm 0,0 UV-I 10 W/m 13,3 C 14,4 C 1,6 km/h (1 Bft) 96,00 %
03.06.2017 05:14 14,3 C 25,6 C 93 % 1014,1 hPa 0,0 l/m 0,1 km/h (0 Bft) S-SW 200 0 min 0,000 mm 0,0 UV-I 11 W/m 13,2 C 14,3 C 1,6 km/h (1 Bft) 97,56 %
03.06.2017 05:16 14,3 C 25,6 C 93 % 1014,1 hPa 0,0 l/m 0,0 km/h (0 Bft) S-SW 200 0 min 0,000 mm 0,0 UV-I 12 W/m 13,2 C 14,3 C 0,0 km/h (0 Bft) 97,56 %
03.06.2017 05:18 14,3 C 25,6 C 94 % 1014,1 hPa 0,0 l/m 0,0 km/h (0 Bft) S-SW 200 0 min 0,000 mm 0,0 UV-I 12 W/m 13,3 C 14,3 C 0,0 km/h (0 Bft) 96,00 %
03.06.2017 05:20 14,4 C 25,6 C 94 % 1014,1 hPa 0,0 l/m 0,0 km/h (0 Bft) S-SW 200 2 min 0,000 mm 0,0 UV-I 13 W/m 13,4 C 14,4 C 0,0 km/h (0 Bft) 97,22 %
03.06.2017 05:22 14,4 C 25,6 C 94 % 1014,2 hPa 0,0 l/m 0,0 km/h (0 Bft) S-SW 200 2 min 0,000 mm 0,0 UV-I 15 W/m 13,4 C 14,4 C 1,6 km/h (1 Bft) 95,31 %
03.06.2017 05:24 14,4 C 25,6 C 94 % 1014,1 hPa 0,0 l/m 0,3 km/h (0 Bft) S-SW 200 2 min 0,000 mm 0,0 UV-I 17 W/m 13,4 C 14,4 C 1,6 km/h (1 Bft) 97,87 %
03.06.2017 05:26 14,4 C 25,6 C 94 % 1014,2 hPa 0,0 l/m 0,2 km/h (0 Bft) S-SW 200 2 min 0,000 mm 0,0 UV-I 19 W/m 13,4 C 14,4 C 1,6 km/h (1 Bft) 95,83 %
03.06.2017 05:28 14,4 C 25,6 C 94 % 1014,2 hPa 0,0 l/m 2,2 km/h (1 Bft) S-SW 200 2 min 0,000 mm 0,0 UV-I 21 W/m 13,4 C 14,4 C 3,2 km/h (1 Bft) 97,37 %
03.06.2017 05:30 14,4 C 25,6 C 93 % 1014,2 hPa 0,0 l/m 0,2 km/h (0 Bft) S-SW 200 2 min 0,000 mm 0,0 UV-I 25 W/m 13,3 C 14,4 C 1,6 km/h (1 Bft) 98,11 %
03.06.2017 05:32 14,3 C 25,6 C 94 % 1014,1 hPa 0,0 l/m 0,1 km/h (0 Bft) S-SW 200 2 min 0,000 mm 0,0 UV-I 26 W/m 13,3 C 14,3 C 1,6 km/h (1 Bft) 97,87 %
03.06.2017 05:34 14,3 C 25,6 C 93 % 1014,1 hPa 0,0 l/m 0,0 km/h (0 Bft) S-SW 200 2 min 0,000 mm 0,0 UV-I 29 W/m 13,2 C 14,3 C 0,0 km/h (0 Bft) 96,00 %
03.06.2017 05:36 14,2 C 25,6 C 93 % 1014,1 hPa 0,0 l/m 1,0 km/h (0 Bft) S-SW 200 0 min 0,000 mm 0,0 UV-I 31 W/m 13,1 C 14,2 C 3,2 km/h (1 Bft) 97,37 %
03.06.2017 05:38 14,3 C 25,6 C 94 % 1014,2 hPa 0,0 l/m 0,9 km/h (0 Bft) S-SW 200 2 min 0,000 mm 0,0 UV-I 34 W/m 13,3 C 14,3 C 3,2 km/h (1 Bft) 95,74 %
03.06.2017 05:40 14,3 C 25,6 C 94 % 1014,2 hPa 0,0 l/m 0,9 km/h (0 Bft) S-SW 200 0 min 0,000 mm 0,0 UV-I 36 W/m 13,3 C 14,3 C 3,2 km/h (1 Bft) 96,30 %
03.06.2017 05:42 14,4 C 25,6 C 94 % 1014,2 hPa 0,0 l/m 3,4 km/h (1 Bft) S-SW 200 0 min 0,000 mm 0,0 UV-I 39 W/m 13,4 C 14,4 C 4,8 km/h (1 Bft) 96,00 %
03.06.2017 05:44 14,5 C 25,6 C 94 % 1014,2 hPa 0,0 l/m 4,1 km/h (1 Bft) S-SW 200 0 min 0,000 mm 0,0 UV-I 40 W/m 13,5 C 14,5 C 6,4 km/h (2 Bft) 95,12 %
03.06.2017 05:46 14,6 C 25,6 C 94 % 1014,2 hPa 0,0 l/m 3,5 km/h (1 Bft) S-SW 200 0 min 0,000 mm 0,0 UV-I 44 W/m 13,6 C 14,6 C 4,8 km/h (1 Bft) 97,87 %
03.06.2017 05:48 14,6 C 25,6 C 94 % 1014,2 hPa 0,0 l/m 3,6 km/h (1 Bft) S-SW 200 0 min 0,000 mm 0,0 UV-I 47 W/m 13,6 C 14,6 C 4,8 km/h (1 Bft) 93,62 %
03.06.2017 05:50 14,6 C 25,6 C 93 % 1014,2 hPa 0,0 l/m 2,6 km/h (1 Bft) S-SW 200 0 min 0,000 mm 0,0 UV-I 50 W/m 13,5 C 14,6 C 3,2 km/h (1 Bft) 96,00 %
03.06.2017 05:52 14,7 C 25,6 C 93 % 1014,2 hPa 0,0 l/m 0,3 km/h (0 Bft) S-SW 200 0 min 0,000 mm 0,0 UV-I 53 W/m 13,6 C 14,7 C 1,6 km/h (1 Bft) 93,62 %
03.06.2017 05:54 14,7 C 25,6 C 93 % 1014,2 hPa 0,0 l/m 0,6 km/h (0 Bft) S-SW 200 0 min 0,000 mm 0,0 UV-I 56 W/m 13,6 C 14,7 C 3,2 km/h (1 Bft) 89,47 %
03.06.2017 05:56 14,7 C 25,6 C 93 % 1014,2 hPa 0,0 l/m 0,8 km/h (0 Bft) S-SW 200 2 min 0,000 mm 0,0 UV-I 59 W/m 13,6 C 14,7 C 3,2 km/h (1 Bft) 96,00 %
03.06.2017 05:58 14,7 C 25,6 C 93 % 1014,2 hPa 0,0 l/m 2,6 km/h (1 Bft) S-SW 200 2 min 0,000 mm 0,0 UV-I 63 W/m 13,6 C 14,7 C 4,8 km/h (1 Bft) 92,00 %
03.06.2017 06:00 14,8 C 25,6 C 93 % 1014,2 hPa 0,0 l/m 2,8 km/h (1 Bft) S-SW 200 2 min 0,025 mm 0,0 UV-I 66 W/m 13,7 C 14,8 C 4,8 km/h (1 Bft) 95,24 %
03.06.2017 06:02 14,8 C 25,6 C 93 % 1014,2 hPa 0,0 l/m 1,4 km/h (1 Bft) S-SW 200 2 min 0,000 mm 0,0 UV-I 70 W/m 13,7 C 14,8 C 3,2 km/h (1 Bft) 94,55 %
03.06.2017 06:04 14,9 C 25,6 C 93 % 1014,2 hPa 0,0 l/m 0,8 km/h (0 Bft) S-SW 200 2 min 0,000 mm 0,0 UV-I 73 W/m 13,8 C 14,9 C 3,2 km/h (1 Bft) 94,87 %
03.06.2017 06:06 14,9 C 25,6 C 93 % 1014,2 hPa 0,0 l/m 1,5 km/h (1 Bft) S-SW 200 2 min 0,000 mm 0,0 UV-I 77 W/m 13,8 C 14,9 C 3,2 km/h (1 Bft) 95,74 %
03.06.2017 06:08 14,9 C 25,6 C 93 % 1014,2 hPa 0,0 l/m 2,3 km/h (1 Bft) S-SW 200 2 min 0,000 mm 0,0 UV-I 80 W/m 13,8 C 14,9 C 4,8 km/h (1 Bft) 95,74 %
03.06.2017 06:10 15,0 C 25,6 C 93 % 1014,2 hPa 0,0 l/m 3,0 km/h (1 Bft) S-SW 200 2 min 0,000 mm 0,0 UV-I 83 W/m 13,9 C 15,0 C 4,8 km/h (1 Bft) 95,74 %
03.06.2017 06:12 15,1 C 25,6 C 93 % 1014,2 hPa 0,0 l/m 4,8 km/h (1 Bft) S-SW 200 2 min 0,000 mm 0,0 UV-I 87 W/m 14,0 C 15,1 C 6,4 km/h (2 Bft) 94,00 %
03.06.2017 06:14 15,2 C 25,6 C 93 % 1014,2 hPa 0,0 l/m 5,2 km/h (1 Bft) S-SW 201 2 min 0,000 mm 0,0 UV-I 91 W/m 14,1 C 15,2 C 6,4 km/h (2 Bft) 97,56 %
03.06.2017 06:16 15,3 C 25,6 C 92 % 1014,3 hPa 0,0 l/m 5,5 km/h (1 Bft) S-SW 201 2 min 0,000 mm 0,0 UV-I 92 W/m 14,0 C 15,3 C 8,0 km/h (2 Bft) 94,34 %
03.06.2017 06:18 15,3 C 25,6 C 92 % 1014,3 hPa 0,0 l/m 4,9 km/h (1 Bft) S-SW 201 0 min 0,000 mm 0,0 UV-I 78 W/m 14,0 C 15,3 C 6,4 km/h (2 Bft) 98,00 %
03.06.2017 06:20 15,4 C 25,6 C 92 % 1014,3 hPa 0,0 l/m 3,9 km/h (1 Bft) S-SW 201 0 min 0,000 mm 0,0 UV-I 61 W/m 14,1 C 15,4 C 6,4 km/h (2 Bft) 97,87 %
03.06.2017 06:22 15,4 C 25,6 C 92 % 1014,3 hPa 0,0 l/m 5,1 km/h (1 Bft) S-SW 201 0 min 0,000 mm 0,0 UV-I 61 W/m 14,1 C 15,4 C 6,4 km/h (2 Bft) 97,87 %
03.06.2017 06:24 15,5 C 25,6 C 92 % 1014,3 hPa 0,0 l/m 5,1 km/h (1 Bft) S-SW 201 0 min 0,000 mm 0,0 UV-I 62 W/m 14,2 C 15,5 C 8,0 km/h (2 Bft) 94,29 %
03.06.2017 06:26 15,6 C 25,6 C 92 % 1014,4 hPa 0,0 l/m 3,6 km/h (1 Bft) S-SW 201 0 min 0,000 mm 0,0 UV-I 64 W/m 14,3 C 15,6 C 6,4 km/h (2 Bft) 98,00 %
03.06.2017 06:28 15,7 C 25,6 C 91 % 1014,4 hPa 0,0 l/m 5,4 km/h (1 Bft) SW 220 0 min 0,000 mm 0,0 UV-I 91 W/m 14,2 C 15,7 C 8,0 km/h (2 Bft) 98,21 %
03.06.2017 06:30 15,7 C 25,6 C 91 % 1014,4 hPa 0,0 l/m 4,7 km/h (1 Bft) SW 220 2 min 0,000 mm 0,0 UV-I 121 W/m 14,2 C 15,7 C 6,4 km/h (2 Bft) 97,14 %
03.06.2017 06:32 15,7 C 25,6 C 91 % 1014,4 hPa 0,0 l/m 3,7 km/h (1 Bft) SW 220 2 min 0,000 mm 0,0 UV-I 125 W/m 14,2 C 15,7 C 4,8 km/h (1 Bft) 98,31 %
03.06.2017 06:34 15,7 C 25,6 C 91 % 1014,5 hPa 0,0 l/m 3,3 km/h (1 Bft) SW 220 2 min 0,000 mm 0,0 UV-I 127 W/m 14,2 C 15,7 C 6,4 km/h (2 Bft) 100,00 %
03.06.2017 06:36 15,8 C 25,6 C 91 % 1014,5 hPa 0,0 l/m 2,7 km/h (1 Bft) SW 220 2 min 0,000 mm 0,0 UV-I 131 W/m 14,3 C 15,8 C 4,8 km/h (1 Bft) 100,00 %
03.06.2017 06:38 15,8 C 25,6 C 91 % 1014,5 hPa 0,0 l/m 3,4 km/h (1 Bft) SW 220 2 min 0,000 mm 0,0 UV-I 135 W/m 14,3 C 15,8 C 4,8 km/h (1 Bft) 100,00 %
03.06.2017 06:40 15,9 C 25,6 C 91 % 1014,5 hPa 0,0 l/m 4,0 km/h (1 Bft) SW 220 2 min 0,000 mm 0,0 UV-I 140 W/m 14,4 C 15,9 C 6,4 km/h (2 Bft) 98,00 %
03.06.2017 06:42 16,0 C 25,6 C 91 % 1014,5 hPa 0,0 l/m 4,0 km/h (1 Bft) SW 220 2 min 0,000 mm 0,0 UV-I 144 W/m 14,5 C 16,0 C 6,4 km/h (2 Bft) 97,62 %
03.06.2017 06:44 16,1 C 25,6 C 90 % 1014,5 hPa 0,0 l/m 4,7 km/h (1 Bft) SW 220 2 min 0,000 mm 0,0 UV-I 149 W/m 14,5 C 16,1 C 6,4 km/h (2 Bft) 100,00 %
03.06.2017 06:46 16,1 C 25,6 C 90 % 1014,5 hPa 0,0 l/m 4,6 km/h (1 Bft) SW 220 2 min 0,000 mm 0,0 UV-I 154 W/m 14,5 C 16,1 C 6,4 km/h (2 Bft) 97,37 %
03.06.2017 06:48 16,1 C 25,6 C 90 % 1014,5 hPa 0,0 l/m 3,7 km/h (1 Bft) SW 220 2 min 0,000 mm 0,0 UV-I 160 W/m 14,5 C 16,1 C 4,8 km/h (1 Bft) 98,00 %
03.06.2017 06:50 16,1 C 25,6 C 90 % 1014,5 hPa 0,0 l/m 3,7 km/h (1 Bft) SW 220 2 min 0,000 mm 0,0 UV-I 163 W/m 14,5 C 16,1 C 4,8 km/h (1 Bft) 98,00 %
03.06.2017 06:52 16,2 C 25,6 C 90 % 1014,6 hPa 0,0 l/m 3,4 km/h (1 Bft) SW 220 2 min 0,000 mm 0,0 UV-I 170 W/m 14,6 C 16,2 C 6,4 km/h (2 Bft) 100,00 %
03.06.2017 06:54 16,3 C 25,6 C 90 % 1014,6 hPa 0,0 l/m 2,1 km/h (1 Bft) SW 220 2 min 0,000 mm 0,0 UV-I 174 W/m 14,7 C 16,3 C 3,2 km/h (1 Bft) 97,56 %
03.06.2017 06:56 16,3 C 25,6 C 90 % 1014,6 hPa 0,0 l/m 3,1 km/h (1 Bft) SW 220 2 min 0,000 mm 0,0 UV-I 180 W/m 14,7 C 16,3 C 4,8 km/h (1 Bft) 98,00 %
03.06.2017 06:58 16,4 C 25,6 C 89 % 1014,6 hPa 0,0 l/m 2,5 km/h (1 Bft) SW 220 2 min 0,000 mm 0,0 UV-I 185 W/m 14,6 C 16,4 C 3,2 km/h (1 Bft) 100,00 %
03.06.2017 07:00 16,5 C 25,6 C 89 % 1014,6 hPa 0,0 l/m 3,1 km/h (1 Bft) SW 220 2 min 0,077 mm 0,0 UV-I 191 W/m 14,7 C 16,5 C 6,4 km/h (2 Bft) 97,37 %
03.06.2017 07:02 16,5 C 25,6 C 89 % 1014,6 hPa 0,0 l/m 3,8 km/h (1 Bft) SW 220 2 min 0,000 mm 0,0 UV-I 195 W/m 14,7 C 16,5 C 4,8 km/h (1 Bft) 100,00 %
03.06.2017 07:04 16,6 C 25,6 C 89 % 1014,6 hPa 0,0 l/m 3,5 km/h (1 Bft) SW 220 2 min 0,000 mm 0,0 UV-I 199 W/m 14,8 C 16,6 C 4,8 km/h (1 Bft) 98,00 %
03.06.2017 07:06 16,7 C 25,6 C 89 % 1014,6 hPa 0,0 l/m 4,4 km/h (1 Bft) SW 223 2 min 0,000 mm 0,0 UV-I 201 W/m 14,9 C 16,7 C 6,4 km/h (2 Bft) 100,00 %
03.06.2017 07:08 16,7 C 25,6 C 89 % 1014,6 hPa 0,0 l/m 4,1 km/h (1 Bft) SW 223 2 min 0,000 mm 0,0 UV-I 207 W/m 14,9 C 16,7 C 4,8 km/h (1 Bft) 100,00 %
03.06.2017 07:10 16,8 C 25,6 C 89 % 1014,6 hPa 0,0 l/m 3,4 km/h (1 Bft) SW 223 2 min 0,000 mm 0,0 UV-I 212 W/m 15,0 C 16,8 C 4,8 km/h (1 Bft) 96,00 %
03.06.2017 07:12 16,8 C 25,6 C 88 % 1014,6 hPa 0,0 l/m 3,3 km/h (1 Bft) SW 224 2 min 0,000 mm 0,0 UV-I 217 W/m 14,8 C 16,8 C 4,8 km/h (1 Bft) 97,87 %
03.06.2017 07:14 16,9 C 25,6 C 88 % 1014,6 hPa 0,0 l/m 4,0 km/h (1 Bft) SW 224 2 min 0,000 mm 0,0 UV-I 218 W/m 14,9 C 16,9 C 6,4 km/h (2 Bft) 97,56 %
03.06.2017 07:16 17,0 C 25,6 C 88 % 1014,7 hPa 0,0 l/m 4,2 km/h (1 Bft) SW 224 2 min 0,000 mm 0,2 UV-I 230 W/m 15,0 C 17,0 C 6,4 km/h (2 Bft) 94,64 %
03.06.2017 07:18 17,1 C 25,6 C 87 % 1014,6 hPa 0,0 l/m 3,3 km/h (1 Bft) SW 224 2 min 0,000 mm 0,5 UV-I 238 W/m 14,9 C 17,1 C 4,8 km/h (1 Bft) 97,73 %
03.06.2017 07:20 17,2 C 25,6 C 87 % 1014,6 hPa 0,0 l/m 3,4 km/h (1 Bft) SW 225 2 min 0,000 mm 0,5 UV-I 249 W/m 15,0 C 17,2 C 4,8 km/h (1 Bft) 100,00 %
03.06.2017 07:22 17,2 C 25,6 C 87 % 1014,6 hPa 0,0 l/m 2,9 km/h (1 Bft) SW 226 2 min 0,000 mm 0,5 UV-I 255 W/m 15,0 C 17,2 C 4,8 km/h (1 Bft) 97,44 %
03.06.2017 07:24 17,2 C 25,6 C 87 % 1014,6 hPa 0,0 l/m 2,5 km/h (1 Bft) SW 226 2 min 0,000 mm 0,5 UV-I 264 W/m 15,0 C 17,2 C 4,8 km/h (1 Bft) 100,00 %
03.06.2017 07:26 17,2 C 25,6 C 86 % 1014,7 hPa 0,0 l/m 3,7 km/h (1 Bft) SW 226 2 min 0,000 mm 0,5 UV-I 266 W/m 14,8 C 17,2 C 4,8 km/h (1 Bft) 96,00 %
03.06.2017 07:28 17,3 C 25,6 C 86 % 1014,7 hPa 0,0 l/m 5,1 km/h (1 Bft) W 261 2 min 0,000 mm 0,6 UV-I 266 W/m 14,9 C 17,3 C 6,4 km/h (2 Bft) 97,56 %
03.06.2017 07:30 17,3 C 25,6 C 86 % 1014,7 hPa 0,0 l/m 4,2 km/h (1 Bft) W 260 2 min 0,000 mm 0,6 UV-I 242 W/m 14,9 C 17,3 C 6,4 km/h (2 Bft) 100,00 %
03.06.2017 07:32 17,3 C 25,6 C 86 % 1014,8 hPa 0,0 l/m 3,6 km/h (1 Bft) W 260 2 min 0,000 mm 0,6 UV-I 286 W/m 14,9 C 17,3 C 4,8 km/h (1 Bft) 98,00 %
03.06.2017 07:34 17,4 C 25,6 C 86 % 1014,7 hPa 0,0 l/m 4,5 km/h (1 Bft) W 259 2 min 0,000 mm 0,6 UV-I 296 W/m 15,0 C 17,4 C 6,4 km/h (2 Bft) 100,00 %
03.06.2017 07:36 17,6 C 25,6 C 86 % 1014,8 hPa 0,0 l/m 4,6 km/h (1 Bft) SW 227 2 min 0,000 mm 0,7 UV-I 299 W/m 15,2 C 17,6 C 6,4 km/h (2 Bft) 98,00 %
03.06.2017 07:38 17,7 C 25,6 C 85 % 1014,7 hPa 0,0 l/m 4,1 km/h (1 Bft) SW 227 2 min 0,000 mm 0,7 UV-I 300 W/m 15,1 C 17,7 C 6,4 km/h (2 Bft) 100,00 %
03.06.2017 07:40 17,7 C 25,6 C 85 % 1014,7 hPa 0,0 l/m 3,0 km/h (1 Bft) SW 227 2 min 0,000 mm 0,7 UV-I 284 W/m 15,1 C 17,7 C 4,8 km/h (1 Bft) 97,56 %
03.06.2017 07:42 17,7 C 25,6 C 85 % 1014,8 hPa 0,0 l/m 3,5 km/h (1 Bft) SW 227 2 min 0,000 mm 0,7 UV-I 221 W/m 15,1 C 17,7 C 4,8 km/h (1 Bft) 98,00 %
03.06.2017 07:44 17,7 C 25,6 C 86 % 1014,7 hPa 0,0 l/m 3,3 km/h (1 Bft) SW 227 2 min 0,000 mm 0,7 UV-I 250 W/m 15,3 C 17,7 C 4,8 km/h (1 Bft) 100,00 %
03.06.2017 07:46 17,8 C 25,6 C 85 % 1014,7 hPa 0,0 l/m 1,7 km/h (1 Bft) SW 227 2 min 0,000 mm 0,7 UV-I 263 W/m 15,2 C 17,8 C 3,2 km/h (1 Bft) 100,00 %
03.06.2017 07:48 17,8 C 25,6 C 85 % 1014,8 hPa 0,0 l/m 1,1 km/h (1 Bft) SW 227 2 min 0,000 mm 0,8 UV-I 254 W/m 15,2 C 17,8 C 3,2 km/h (1 Bft) 98,00 %
03.06.2017 07:50 17,9 C 25,6 C 84 % 1014,7 hPa 0,0 l/m 2,7 km/h (1 Bft) SW 227 2 min 0,000 mm 0,8 UV-I 338 W/m 15,2 C 17,9 C 4,8 km/h (1 Bft) 97,87 %
03.06.2017 07:52 18,0 C 25,6 C 84 % 1014,7 hPa 0,0 l/m 2,7 km/h (1 Bft) SW 227 2 min 0,000 mm 0,9 UV-I 342 W/m 15,3 C 18,0 C 4,8 km/h (1 Bft) 100,00 %
03.06.2017 07:54 18,1 C 25,6 C 84 % 1014,8 hPa 0,0 l/m 1,4 km/h (1 Bft) SW 227 2 min 0,000 mm 0,9 UV-I 347 W/m 15,4 C 18,1 C 3,2 km/h (1 Bft) 97,73 %
03.06.2017 07:56 18,1 C 25,6 C 84 % 1014,7 hPa 0,0 l/m 0,4 km/h (0 Bft) SW 227 2 min 0,000 mm 0,9 UV-I 352 W/m 15,4 C 18,1 C 1,6 km/h (1 Bft) 93,75 %
03.06.2017 07:58 18,1 C 25,6 C 84 % 1014,8 hPa 0,0 l/m 0,8 km/h (0 Bft) SW 227 2 min 0,000 mm 1,0 UV-I 359 W/m 15,4 C 18,1 C 3,2 km/h (1 Bft) 95,45 %
03.06.2017 08:00 18,3 C 25,6 C 83 % 1014,8 hPa 0,0 l/m 0,0 km/h (0 Bft) SW 227 2 min 0,152 mm 1,0 UV-I 363 W/m 15,4 C 18,3 C 0,0 km/h (0 Bft) 96,00 %
03.06.2017 08:02 18,3 C 25,6 C 83 % 1014,8 hPa 0,0 l/m 0,1 km/h (0 Bft) SW 227 2 min 0,000 mm 1,0 UV-I 366 W/m 15,4 C 18,3 C 1,6 km/h (1 Bft) 95,74 %
03.06.2017 08:04 18,4 C 25,6 C 82 % 1014,8 hPa 0,0 l/m 0,6 km/h (0 Bft) SW 227 2 min 0,000 mm 1,0 UV-I 367 W/m 15,3 C 18,4 C 3,2 km/h (1 Bft) 96,00 %
03.06.2017 08:06 18,4 C 25,6 C 84 % 1014,8 hPa 0,0 l/m 1,6 km/h (1 Bft) SW 227 2 min 0,000 mm 1,1 UV-I 370 W/m 15,6 C 18,4 C 3,2 km/h (1 Bft) 94,00 %
03.06.2017 08:08 18,4 C 25,6 C 82 % 1014,8 hPa 0,0 l/m 1,9 km/h (1 Bft) SW 227 2 min 0,000 mm 1,1 UV-I 374 W/m 15,3 C 18,4 C 3,2 km/h (1 Bft) 94,74 %
03.06.2017 08:10 18,4 C 25,6 C 82 % 1014,9 hPa 0,0 l/m 0,9 km/h (0 Bft) SW 227 2 min 0,000 mm 1,1 UV-I 382 W/m 15,3 C 18,4 C 3,2 km/h (1 Bft) 92,45 %
03.06.2017 08:12 18,4 C 25,6 C 83 % 1014,8 hPa 0,0 l/m 0,3 km/h (0 Bft) SW 227 2 min 0,000 mm 1,1 UV-I 391 W/m 15,5 C 18,4 C 1,6 km/h (1 Bft) 97,73 %
03.06.2017 08:14 18,4 C 25,6 C 83 % 1014,9 hPa 0,0 l/m 0,5 km/h (0 Bft) SW 217 2 min 0,000 mm 1,2 UV-I 397 W/m 15,5 C 18,4 C 1,6 km/h (1 Bft) 96,23 %
03.06.2017 08:16 18,5 C 25,6 C 82 % 1014,9 hPa 0,0 l/m 0,8 km/h (0 Bft) S-SW 212 2 min 0,000 mm 1,2 UV-I 404 W/m 15,4 C 18,5 C 1,6 km/h (1 Bft) 94,29 %
03.06.2017 08:18 18,6 C 25,6 C 82 % 1014,9 hPa 0,0 l/m 2,8 km/h (1 Bft) S-SW 212 2 min 0,000 mm 1,2 UV-I 414 W/m 15,5 C 18,6 C 6,4 km/h (2 Bft) 94,00 %
03.06.2017 08:20 18,8 C 25,6 C 83 % 1014,9 hPa 0,0 l/m 0,4 km/h (0 Bft) S-SW 212 2 min 0,000 mm 1,3 UV-I 421 W/m 15,8 C 18,8 C 1,6 km/h (1 Bft) 94,00 %
03.06.2017 08:22 19,0 C 25,6 C 81 % 1014,8 hPa 0,0 l/m 1,7 km/h (1 Bft) S-SW 212 2 min 0,000 mm 1,3 UV-I 428 W/m 15,7 C 19,0 C 3,2 km/h (1 Bft) 89,36 %
03.06.2017 08:24 19,2 C 25,6 C 81 % 1014,9 hPa 0,0 l/m 1,6 km/h (1 Bft) S-SW 192 2 min 0,000 mm 1,3 UV-I 432 W/m 15,9 C 19,2 C 4,8 km/h (1 Bft) 97,87 %
03.06.2017 08:26 19,1 C 25,6 C 80 % 1014,9 hPa 0,0 l/m 1,0 km/h (0 Bft) S 191 2 min 0,000 mm 1,4 UV-I 438 W/m 15,6 C 19,1 C 3,2 km/h (1 Bft) 93,18 %
03.06.2017 08:28 19,1 C 25,6 C 80 % 1014,9 hPa 0,0 l/m 0,6 km/h (0 Bft) S 191 2 min 0,000 mm 1,4 UV-I 443 W/m 15,6 C 19,1 C 3,2 km/h (1 Bft) 98,11 %
03.06.2017 08:30 19,1 C 25,6 C 80 % 1014,9 hPa 0,0 l/m 3,4 km/h (1 Bft) S-SO 165 2 min 0,000 mm 1,4 UV-I 450 W/m 15,6 C 19,1 C 8,0 km/h (2 Bft) 94,74 %
03.06.2017 08:32 19,1 C 25,6 C 81 % 1014,9 hPa 0,0 l/m 2,7 km/h (1 Bft) S-SW 204 2 min 0,000 mm 1,5 UV-I 459 W/m 15,8 C 19,1 C 6,4 km/h (2 Bft) 96,00 %
03.06.2017 08:34 19,2 C 25,6 C 82 % 1014,9 hPa 0,0 l/m 2,5 km/h (1 Bft) W-SW 253 2 min 0,000 mm 1,5 UV-I 463 W/m 16,0 C 19,2 C 4,8 km/h (1 Bft) 94,00 %
03.06.2017 08:36 19,4 C 25,0 C 80 % 1014,9 hPa 0,0 l/m 1,1 km/h (1 Bft) S 188 2 min 0,000 mm 1,5 UV-I 467 W/m 15,9 C 19,4 C 4,8 km/h (1 Bft) 95,74 %
03.06.2017 08:38 19,5 C 25,0 C 80 % 1014,9 hPa 0,0 l/m 0,5 km/h (0 Bft) S 188 2 min 0,000 mm 1,6 UV-I 472 W/m 16,0 C 19,5 C 3,2 km/h (1 Bft) 97,44 %
03.06.2017 08:40 19,6 C 25,6 C 79 % 1014,9 hPa 0,0 l/m 1,5 km/h (1 Bft) S 189 2 min 0,000 mm 1,6 UV-I 477 W/m 15,9 C 19,6 C 6,4 km/h (2 Bft) 98,21 %
03.06.2017 08:42 19,7 C 25,6 C 79 % 1014,9 hPa 0,0 l/m 1,4 km/h (1 Bft) S 189 2 min 0,000 mm 1,6 UV-I 483 W/m 16,0 C 19,7 C 3,2 km/h (1 Bft) 94,00 %
03.06.2017 08:44 19,8 C 25,6 C 80 % 1014,9 hPa 0,0 l/m 4,5 km/h (1 Bft) S-SW 200 2 min 0,000 mm 1,7 UV-I 488 W/m 16,2 C 19,8 C 8,0 km/h (2 Bft) 95,12 %
03.06.2017 08:46 19,8 C 25,6 C 78 % 1014,8 hPa 0,0 l/m 1,4 km/h (1 Bft) S-SW 200 2 min 0,000 mm 1,7 UV-I 491 W/m 15,8 C 19,8 C 4,8 km/h (1 Bft) 96,00 %
03.06.2017 08:48 19,8 C 25,6 C 78 % 1014,8 hPa 0,0 l/m 1,4 km/h (1 Bft) S-SW 200 2 min 0,000 mm 1,7 UV-I 493 W/m 15,8 C 19,8 C 3,2 km/h (1 Bft) 97,37 %
03.06.2017 08:50 19,9 C 25,0 C 79 % 1014,8 hPa 0,0 l/m 2,4 km/h (1 Bft) S-SW 200 2 min 0,000 mm 1,8 UV-I 497 W/m 16,1 C 19,9 C 4,8 km/h (1 Bft) 96,00 %
03.06.2017 08:52 20,0 C 25,0 C 78 % 1014,8 hPa 0,0 l/m 0,0 km/h (0 Bft) S-SW 200 2 min 0,000 mm 1,8 UV-I 503 W/m 16,0 C 20,0 C 1,6 km/h (1 Bft) 98,11 %
03.06.2017 08:54 20,1 C 25,0 C 78 % 1014,8 hPa 0,0 l/m 3,7 km/h (1 Bft) SW 218 2 min 0,000 mm 1,8 UV-I 510 W/m 16,1 C 20,1 C 6,4 km/h (2 Bft) 94,74 %
03.06.2017 08:56 20,1 C 25,0 C 77 % 1014,8 hPa 0,0 l/m 1,0 km/h (0 Bft) SW 218 2 min 0,000 mm 1,9 UV-I 520 W/m 15,9 C 20,1 C 4,8 km/h (1 Bft) 94,23 %
03.06.2017 08:58 20,3 C 25,0 C 77 % 1014,8 hPa 0,0 l/m 0,3 km/h (0 Bft) SW 218 2 min 0,000 mm 2,0 UV-I 526 W/m 16,1 C 20,3 C 1,6 km/h (1 Bft) 96,00 %
03.06.2017 09:00 20,3 C 25,0 C 75 % 1014,8 hPa 0,0 l/m 3,0 km/h (1 Bft) W-SW 241 2 min 0,254 mm 2,0 UV-I 532 W/m 15,7 C 20,3 C 6,4 km/h (2 Bft) 93,62 %
03.06.2017 09:02 20,3 C 25,0 C 76 % 1014,8 hPa 0,0 l/m 3,5 km/h (1 Bft) W-SW 241 2 min 0,000 mm 2,0 UV-I 534 W/m 15,9 C 20,3 C 4,8 km/h (1 Bft) 97,87 %
03.06.2017 09:04 20,3 C 25,6 C 76 % 1014,8 hPa 0,0 l/m 1,1 km/h (1 Bft) W-SW 241 2 min 0,000 mm 2,1 UV-I 541 W/m 15,9 C 20,3 C 3,2 km/h (1 Bft) 94,74 %
03.06.2017 09:06 20,3 C 25,6 C 75 % 1014,8 hPa 0,0 l/m 0,5 km/h (0 Bft) W-SW 241 2 min 0,000 mm 2,1 UV-I 546 W/m 15,7 C 20,3 C 3,2 km/h (1 Bft) 96,00 %
03.06.2017 09:08 20,4 C 25,0 C 77 % 1014,8 hPa 0,0 l/m 0,4 km/h (0 Bft) W-SW 241 2 min 0,000 mm 2,2 UV-I 551 W/m 16,2 C 20,4 C 1,6 km/h (1 Bft) 89,36 %
03.06.2017 09:10 20,7 C 25,0 C 75 % 1014,8 hPa 0,0 l/m 0,7 km/h (0 Bft) W-SW 245 2 min 0,000 mm 2,2 UV-I 557 W/m 16,1 C 20,7 C 3,2 km/h (1 Bft) 98,11 %
03.06.2017 09:12 20,8 C 25,0 C 76 % 1014,8 hPa 0,0 l/m 0,6 km/h (0 Bft) W-SW 245 2 min 0,000 mm 2,3 UV-I 562 W/m 16,4 C 20,8 C 3,2 km/h (1 Bft) 95,12 %
03.06.2017 09:14 20,9 C 25,0 C 75 % 1014,8 hPa 0,0 l/m 2,2 km/h (1 Bft) W-SW 250 2 min 0,000 mm 2,3 UV-I 564 W/m 16,3 C 20,9 C 3,2 km/h (1 Bft) 96,00 %
03.06.2017 09:16 20,9 C 25,0 C 75 % 1014,8 hPa 0,0 l/m 0,5 km/h (0 Bft) W-SW 250 2 min 0,000 mm 2,3 UV-I 568 W/m 16,3 C 20,9 C 3,2 km/h (1 Bft) 96,00 %
03.06.2017 09:18 21,1 C 25,0 C 76 % 1014,7 hPa 0,0 l/m 0,8 km/h (0 Bft) W-SW 254 2 min 0,000 mm 2,4 UV-I 574 W/m 16,7 C 21,1 C 3,2 km/h (1 Bft) 93,62 %
03.06.2017 09:20 21,1 C 25,0 C 75 % 1014,8 hPa 0,0 l/m 0,5 km/h (0 Bft) W-SW 254 2 min 0,000 mm 2,4 UV-I 581 W/m 16,5 C 21,1 C 1,6 km/h (1 Bft) 100,00 %
03.06.2017 09:22 21,2 C 25,0 C 73 % 1014,7 hPa 0,0 l/m 0,3 km/h (0 Bft) W-SW 254 2 min 0,000 mm 2,5 UV-I 586 W/m 16,2 C 21,2 C 3,2 km/h (1 Bft) 94,00 %
03.06.2017 09:24 21,3 C 25,0 C 73 % 1014,7 hPa 0,0 l/m 0,8 km/h (0 Bft) W-SW 254 2 min 0,000 mm 2,5 UV-I 590 W/m 16,3 C 21,3 C 3,2 km/h (1 Bft) 98,00 %
03.06.2017 09:26 21,3 C 25,0 C 74 % 1014,7 hPa 0,0 l/m 1,6 km/h (1 Bft) W 259 2 min 0,000 mm 2,6 UV-I 593 W/m 16,5 C 21,3 C 3,2 km/h (1 Bft) 100,00 %
03.06.2017 09:28 21,5 C 25,0 C 75 % 1014,7 hPa 0,0 l/m 1,7 km/h (1 Bft) W 265 2 min 0,000 mm 2,6 UV-I 598 W/m 16,9 C 21,5 C 3,2 km/h (1 Bft) 100,00 %
03.06.2017 09:30 21,6 C 25,0 C 72 % 1014,7 hPa 0,0 l/m 1,8 km/h (1 Bft) W 279 2 min 0,000 mm 2,7 UV-I 606 W/m 16,3 C 21,6 C 4,8 km/h (1 Bft) 98,46 %
03.06.2017 09:32 21,4 C 25,0 C 72 % 1014,7 hPa 0,0 l/m 1,9 km/h (1 Bft) W 279 2 min 0,000 mm 2,7 UV-I 612 W/m 16,1 C 21,4 C 3,2 km/h (1 Bft) 94,00 %
03.06.2017 09:34 21,3 C 25,0 C 72 % 1014,7 hPa 0,0 l/m 0,9 km/h (0 Bft) W 279 2 min 0,000 mm 2,8 UV-I 617 W/m 16,0 C 21,3 C 1,6 km/h (1 Bft) 94,00 %
03.06.2017 09:36 21,3 C 25,0 C 72 % 1014,6 hPa 0,0 l/m 1,3 km/h (1 Bft) W 279 2 min 0,000 mm 2,8 UV-I 620 W/m 16,0 C 21,3 C 3,2 km/h (1 Bft) 100,00 %
03.06.2017 09:38 21,3 C 25,0 C 71 % 1014,6 hPa 0,0 l/m 2,0 km/h (1 Bft) S-SW 209 2 min 0,000 mm 2,8 UV-I 622 W/m 15,8 C 21,3 C 3,2 km/h (1 Bft) 97,73 %
03.06.2017 09:40 21,3 C 25,0 C 73 % 1014,6 hPa 0,0 l/m 1,4 km/h (1 Bft) S-SW 208 2 min 0,000 mm 2,9 UV-I 628 W/m 16,3 C 21,3 C 3,2 km/h (1 Bft) 100,00 %
03.06.2017 09:42 21,5 C 25,0 C 73 % 1014,5 hPa 0,0 l/m 2,8 km/h (1 Bft) S-SW 208 2 min 0,000 mm 2,9 UV-I 635 W/m 16,4 C 21,5 C 4,8 km/h (1 Bft) 98,00 %
03.06.2017 09:44 21,7 C 25,0 C 73 % 1014,5 hPa 0,0 l/m 1,9 km/h (1 Bft) S-SW 209 2 min 0,000 mm 3,0 UV-I 638 W/m 16,6 C 21,7 C 3,2 km/h (1 Bft) 100,00 %
03.06.2017 09:46 21,7 C 25,0 C 72 % 1014,4 hPa 0,0 l/m 2,5 km/h (1 Bft) S-SO 153 2 min 0,000 mm 3,0 UV-I 642 W/m 16,4 C 21,7 C 6,4 km/h (2 Bft) 98,11 %
03.06.2017 09:48 21,9 C 25,0 C 71 % 1014,5 hPa 0,0 l/m 4,4 km/h (1 Bft) O 79 2 min 0,000 mm 3,1 UV-I 646 W/m 16,4 C 21,9 C 9,7 km/h (2 Bft) 94,00 %
03.06.2017 09:50 22,0 C 25,0 C 69 % 1014,4 hPa 0,0 l/m 3,7 km/h (1 Bft) O 82 2 min 0,000 mm 3,1 UV-I 653 W/m 16,0 C 22,0 C 6,4 km/h (2 Bft) 97,56 %
03.06.2017 09:52 22,0 C 25,0 C 72 % 1014,4 hPa 0,0 l/m 2,4 km/h (1 Bft) O-NO 67 2 min 0,000 mm 3,1 UV-I 658 W/m 16,7 C 22,0 C 4,8 km/h (1 Bft) 98,11 %
03.06.2017 09:54 22,2 C 25,0 C 73 % 1014,3 hPa 0,0 l/m 2,3 km/h (1 Bft) O-NO 65 2 min 0,000 mm 3,2 UV-I 663 W/m 17,1 C 22,2 C 4,8 km/h (1 Bft) 95,74 %
03.06.2017 09:56 22,3 C 25,0 C 70 % 1014,3 hPa 0,0 l/m 0,7 km/h (0 Bft) O-NO 65 2 min 0,000 mm 3,2 UV-I 665 W/m 16,6 C 22,3 C 1,6 km/h (1 Bft) 100,00 %
03.06.2017 09:58 22,2 C 25,0 C 70 % 1014,3 hPa 0,0 l/m 2,2 km/h (1 Bft) O-NO 66 2 min 0,000 mm 3,3 UV-I 669 W/m 16,5 C 22,2 C 4,8 km/h (1 Bft) 97,22 %
03.06.2017 10:00 22,1 C 25,0 C 73 % 1014,3 hPa 0,0 l/m 6,9 km/h (2 Bft) NO 52 2 min 0,000 mm 3,3 UV-I 676 W/m 17,0 C 21,9 C 9,7 km/h (2 Bft) 97,87 %
03.06.2017 10:02 22,3 C 25,0 C 72 % 1014,2 hPa 0,0 l/m 5,2 km/h (1 Bft) NO 35 2 min 0,356 mm 3,4 UV-I 680 W/m 17,0 C 22,3 C 9,7 km/h (2 Bft) 94,34 %
03.06.2017 10:04 22,4 C 25,0 C 72 % 1014,2 hPa 0,0 l/m 5,9 km/h (2 Bft) NO 42 2 min 0,000 mm 3,4 UV-I 686 W/m 17,1 C 22,4 C 9,7 km/h (2 Bft) 95,45 %
03.06.2017 10:06 22,3 C 25,0 C 70 % 1014,2 hPa 0,0 l/m 2,5 km/h (1 Bft) NO 40 2 min 0,000 mm 3,5 UV-I 691 W/m 16,6 C 22,3 C 4,8 km/h (1 Bft) 97,56 %
03.06.2017 10:08 22,2 C 25,0 C 72 % 1014,2 hPa 0,0 l/m 2,1 km/h (1 Bft) NO 40 2 min 0,000 mm 3,5 UV-I 693 W/m 16,9 C 22,2 C 4,8 km/h (1 Bft) 96,00 %
03.06.2017 10:10 22,2 C 25,0 C 72 % 1014,1 hPa 0,0 l/m 3,0 km/h (1 Bft) NO 47 2 min 0,000 mm 3,6 UV-I 698 W/m 16,9 C 22,2 C 6,4 km/h (2 Bft) 96,23 %
03.06.2017 10:12 22,4 C 25,0 C 72 % 1014,2 hPa 0,0 l/m 3,5 km/h (1 Bft) N-NO 32 2 min 0,000 mm 3,6 UV-I 698 W/m 17,1 C 22,4 C 6,4 km/h (2 Bft) 95,74 %
03.06.2017 10:14 22,4 C 25,0 C 72 % 1014,2 hPa 0,0 l/m 2,2 km/h (1 Bft) N-NO 30 2 min 0,000 mm 3,7 UV-I 703 W/m 17,1 C 22,4 C 6,4 km/h (2 Bft) 92,00 %
03.06.2017 10:16 22,4 C 25,0 C 70 % 1014,1 hPa 0,0 l/m 1,9 km/h (1 Bft) N-NO 26 2 min 0,000 mm 3,7 UV-I 707 W/m 16,7 C 22,4 C 4,8 km/h (1 Bft) 94,74 %
03.06.2017 10:18 22,4 C 25,0 C 69 % 1014,1 hPa 0,0 l/m 2,2 km/h (1 Bft) N-NO 26 2 min 0,000 mm 3,7 UV-I 712 W/m 16,4 C 22,4 C 4,8 km/h (1 Bft) 93,62 %
03.06.2017 10:20 22,4 C 25,0 C 69 % 1014,1 hPa 0,0 l/m 2,2 km/h (1 Bft) N-NO 24 2 min 0,000 mm 3,8 UV-I 717 W/m 16,4 C 22,4 C 4,8 km/h (1 Bft) 96,00 %
03.06.2017 10:22 22,3 C 25,0 C 69 % 1014,1 hPa 0,0 l/m 2,8 km/h (1 Bft) NW 307 2 min 0,000 mm 3,8 UV-I 720 W/m 16,3 C 22,3 C 4,8 km/h (1 Bft) 96,23 %
03.06.2017 10:24 22,4 C 25,0 C 70 % 1014,0 hPa 0,0 l/m 1,7 km/h (1 Bft) N-NO 17 2 min 0,000 mm 3,9 UV-I 724 W/m 16,7 C 22,4 C 4,8 km/h (1 Bft) 100,00 %
03.06.2017 10:26 22,6 C 25,0 C 68 % 1014,1 hPa 0,0 l/m 0,9 km/h (0 Bft) N 11 2 min 0,000 mm 3,9 UV-I 725 W/m 16,4 C 22,6 C 4,8 km/h (1 Bft) 97,56 %
03.06.2017 10:28 22,9 C 25,0 C 69 % 1014,0 hPa 0,0 l/m 0,6 km/h (0 Bft) N-NW 333 2 min 0,000 mm 4,0 UV-I 730 W/m 16,9 C 22,9 C 3,2 km/h (1 Bft) 95,74 %
03.06.2017 10:30 23,1 C 25,0 C 71 % 1014,1 hPa 0,0 l/m 0,8 km/h (0 Bft) N-NW 329 2 min 0,000 mm 4,0 UV-I 732 W/m 17,5 C 23,1 C 3,2 km/h (1 Bft) 95,74 %
03.06.2017 10:32 23,1 C 25,0 C 71 % 1014,0 hPa 0,0 l/m 1,2 km/h (1 Bft) N-NO 26 2 min 0,000 mm 4,0 UV-I 736 W/m 17,5 C 23,1 C 8,0 km/h (2 Bft) 96,00 %
03.06.2017 10:34 23,2 C 25,0 C 70 % 1014,0 hPa 0,0 l/m 3,5 km/h (1 Bft) N 9 2 min 0,000 mm 4,1 UV-I 741 W/m 17,4 C 23,2 C 6,4 km/h (2 Bft) 100,00 %
03.06.2017 10:36 23,2 C 25,0 C 69 % 1014,0 hPa 0,0 l/m 2,0 km/h (1 Bft) NW 311 2 min 0,000 mm 4,1 UV-I 745 W/m 17,2 C 23,2 C 4,8 km/h (1 Bft) 100,00 %
03.06.2017 10:38 23,1 C 25,0 C 67 % 1013,9 hPa 0,0 l/m 2,1 km/h (1 Bft) NW 313 2 min 0,000 mm 4,2 UV-I 751 W/m 16,6 C 23,1 C 3,2 km/h (1 Bft) 97,37 %
03.06.2017 10:40 23,1 C 25,0 C 68 % 1014,0 hPa 0,0 l/m 2,1 km/h (1 Bft) NW 324 2 min 0,000 mm 4,2 UV-I 757 W/m 16,9 C 23,1 C 3,2 km/h (1 Bft) 100,00 %
03.06.2017 10:42 23,1 C 25,0 C 66 % 1014,0 hPa 0,0 l/m 0,6 km/h (0 Bft) N-NW 341 2 min 0,000 mm 4,3 UV-I 761 W/m 16,4 C 23,1 C 3,2 km/h (1 Bft) 97,87 %
03.06.2017 10:44 23,2 C 25,0 C 68 % 1014,0 hPa 0,0 l/m 1,1 km/h (1 Bft) N-NW 336 2 min 0,000 mm 4,3 UV-I 764 W/m 17,0 C 23,2 C 3,2 km/h (1 Bft) 96,00 %
03.06.2017 10:46 23,2 C 25,0 C 67 % 1013,9 hPa 0,0 l/m 1,6 km/h (1 Bft) N 360 2 min 0,000 mm 4,4 UV-I 766 W/m 16,7 C 23,2 C 4,8 km/h (1 Bft) 98,00 %
03.06.2017 10:48 23,2 C 25,0 C 67 % 1013,9 hPa 0,0 l/m 0,9 km/h (0 Bft) N 5 2 min 0,000 mm 4,4 UV-I 772 W/m 16,7 C 23,2 C 4,8 km/h (1 Bft) 97,37 %
03.06.2017 10:50 23,3 C 25,0 C 67 % 1013,9 hPa 0,0 l/m 1,8 km/h (1 Bft) N 360 2 min 0,000 mm 4,5 UV-I 774 W/m 16,8 C 23,3 C 3,2 km/h (1 Bft) 96,43 %
03.06.2017 10:52 23,4 C 25,0 C 65 % 1013,9 hPa 0,0 l/m 1,5 km/h (1 Bft) N 355 2 min 0,000 mm 4,5 UV-I 777 W/m 16,4 C 23,4 C 6,4 km/h (2 Bft) 97,37 %
03.06.2017 10:54 23,3 C 25,0 C 64 % 1013,9 hPa 0,0 l/m 2,5 km/h (1 Bft) W 279 2 min 0,000 mm 4,5 UV-I 778 W/m 16,1 C 23,3 C 4,8 km/h (1 Bft) 98,00 %
03.06.2017 10:56 23,2 C 25,0 C 65 % 1013,9 hPa 0,0 l/m 1,9 km/h (1 Bft) N-NO 19 2 min 0,000 mm 4,6 UV-I 783 W/m 16,2 C 23,2 C 4,8 km/h (1 Bft) 100,00 %
03.06.2017 10:58 23,4 C 25,0 C 70 % 1013,9 hPa 0,0 l/m 4,8 km/h (1 Bft) N-NO 15 2 min 0,000 mm 4,6 UV-I 785 W/m 17,6 C 23,4 C 8,0 km/h (2 Bft) 100,00 %
03.06.2017 11:00 23,5 C 25,0 C 67 % 1013,9 hPa 0,0 l/m 1,2 km/h (1 Bft) N-NO 15 2 min 0,000 mm 4,7 UV-I 790 W/m 17,0 C 23,5 C 4,8 km/h (1 Bft) 94,00 %
03.06.2017 11:02 23,6 C 25,0 C 69 % 1013,9 hPa 0,0 l/m 1,6 km/h (1 Bft) N-NO 17 2 min 0,457 mm 4,7 UV-I 789 W/m 17,6 C 23,6 C 4,8 km/h (1 Bft) 100,00 %
03.06.2017 11:04 23,7 C 25,0 C 69 % 1013,7 hPa 0,0 l/m 3,1 km/h (1 Bft) N-NO 17 2 min 0,000 mm 4,7 UV-I 789 W/m 17,7 C 23,7 C 6,4 km/h (2 Bft) 100,00 %
03.06.2017 11:06 23,8 C 25,0 C 69 % 1013,8 hPa 0,0 l/m 1,6 km/h (1 Bft) NW 324 2 min 0,000 mm 4,7 UV-I 790 W/m 17,8 C 23,8 C 4,8 km/h (1 Bft) 100,00 %
03.06.2017 11:08 23,8 C 25,0 C 64 % 1013,8 hPa 0,0 l/m 1,1 km/h (1 Bft) NW 317 2 min 0,000 mm 4,7 UV-I 784 W/m 16,6 C 23,8 C 3,2 km/h (1 Bft) 100,00 %
03.06.2017 11:10 23,6 C 25,0 C 65 % 1013,9 hPa 0,0 l/m 2,3 km/h (1 Bft) NW 312 2 min 0,000 mm 4,8 UV-I 792 W/m 16,6 C 23,6 C 4,8 km/h (1 Bft) 98,51 %
03.06.2017 11:12 23,7 C 25,0 C 67 % 1013,7 hPa 0,0 l/m 1,4 km/h (1 Bft) NW 311 2 min 0,000 mm 4,9 UV-I 801 W/m 17,2 C 23,7 C 3,2 km/h (1 Bft) 98,00 %
03.06.2017 11:14 23,7 C 25,0 C 65 % 1013,7 hPa 0,0 l/m 0,7 km/h (0 Bft) NW 310 2 min 0,000 mm 4,9 UV-I 810 W/m 16,7 C 23,7 C 3,2 km/h (1 Bft) 100,00 %
03.06.2017 11:16 23,8 C 25,0 C 67 % 1013,7 hPa 0,0 l/m 1,7 km/h (1 Bft) N-NO 12 2 min 0,000 mm 5,0 UV-I 811 W/m 17,3 C 23,8 C 4,8 km/h (1 Bft) 98,00 %
03.06.2017 11:18 23,9 C 25,0 C 68 % 1013,7 hPa 0,0 l/m 4,6 km/h (1 Bft) O-NO 57 2 min 0,000 mm 5,0 UV-I 818 W/m 17,6 C 23,9 C 8,0 km/h (2 Bft) 94,00 %
03.06.2017 11:20 24,1 C 25,0 C 68 % 1013,7 hPa 0,0 l/m 2,8 km/h (1 Bft) N-NO 24 2 min 0,000 mm 5,0 UV-I 821 W/m 17,8 C 24,1 C 6,4 km/h (2 Bft) 94,74 %
03.06.2017 11:22 24,2 C 25,6 C 67 % 1013,7 hPa 0,0 l/m 3,4 km/h (1 Bft) NW 309 2 min 0,000 mm 5,0 UV-I 821 W/m 17,7 C 24,2 C 6,4 km/h (2 Bft) 88,00 %
03.06.2017 11:24 24,0 C 25,6 C 63 % 1013,7 hPa 0,0 l/m 5,5 km/h (1 Bft) NW 313 2 min 0,000 mm 5,1 UV-I 823 W/m 16,5 C 24,0 C 12,9 km/h (3 Bft) 97,87 %
03.06.2017 11:26 23,8 C 25,6 C 65 % 1013,7 hPa 0,0 l/m 2,3 km/h (1 Bft) W-NW 301 2 min 0,000 mm 5,1 UV-I 819 W/m 16,8 C 23,8 C 4,8 km/h (1 Bft) 100,00 %
03.06.2017 11:28 23,8 C 25,6 C 67 % 1013,6 hPa 0,0 l/m 1,4 km/h (1 Bft) W-NW 288 2 min 0,000 mm 5,1 UV-I 815 W/m 17,3 C 23,8 C 4,8 km/h (1 Bft) 95,74 %
03.06.2017 11:30 24,0 C 25,6 C 68 % 1013,6 hPa 0,0 l/m 2,5 km/h (1 Bft) N-NW 338 2 min 0,000 mm 5,1 UV-I 814 W/m 17,7 C 24,0 C 4,8 km/h (1 Bft) 98,00 %
03.06.2017 11:32 24,4 C 25,6 C 70 % 1013,6 hPa 0,0 l/m 2,1 km/h (1 Bft) N 11 2 min 0,000 mm 5,2 UV-I 830 W/m 18,6 C 24,4 C 6,4 km/h (2 Bft) 100,00 %
03.06.2017 11:34 24,4 C 25,6 C 68 % 1013,6 hPa 0,0 l/m 6,8 km/h (2 Bft) N-NO 30 2 min 0,000 mm 5,3 UV-I 841 W/m 18,1 C 24,3 C 12,9 km/h (3 Bft) 100,00 %
03.06.2017 11:36 24,3 C 25,6 C 65 % 1013,6 hPa 0,0 l/m 4,7 km/h (1 Bft) NO 43 2 min 0,000 mm 5,3 UV-I 838 W/m 17,3 C 24,3 C 6,4 km/h (2 Bft) 98,11 %
03.06.2017 11:38 24,2 C 25,6 C 63 % 1013,6 hPa 0,0 l/m 3,8 km/h (1 Bft) N-NO 23 2 min 0,000 mm 5,3 UV-I 841 W/m 16,7 C 24,2 C 6,4 km/h (2 Bft) 97,87 %
03.06.2017 11:40 24,0 C 25,6 C 64 % 1013,5 hPa 0,0 l/m 2,3 km/h (1 Bft) N 5 2 min 0,000 mm 5,4 UV-I 848 W/m 16,8 C 24,0 C 4,8 km/h (1 Bft) 95,74 %
03.06.2017 11:42 24,1 C 25,6 C 69 % 1013,5 hPa 0,0 l/m 4,9 km/h (1 Bft) O-NO 69 2 min 0,000 mm 5,4 UV-I 842 W/m 18,0 C 24,1 C 14,5 km/h (3 Bft) 96,30 %
03.06.2017 11:44 24,3 C 25,6 C 65 % 1013,5 hPa 0,0 l/m 8,7 km/h (2 Bft) O 90 2 min 0,000 mm 5,4 UV-I 844 W/m 17,3 C 23,7 C 12,9 km/h (3 Bft) 94,29 %
03.06.2017 11:46 24,5 C 25,6 C 65 % 1013,5 hPa 0,0 l/m 7,9 km/h (2 Bft) O-NO 76 2 min 0,000 mm 5,5 UV-I 855 W/m 17,5 C 24,1 C 14,5 km/h (3 Bft) 95,12 %
03.06.2017 11:48 24,6 C 25,6 C 64 % 1013,5 hPa 0,0 l/m 6,9 km/h (2 Bft) NO 36 2 min 0,000 mm 5,5 UV-I 859 W/m 17,3 C 24,5 C 14,5 km/h (3 Bft) 97,44 %
03.06.2017 11:50 24,9 C 25,6 C 65 % 1013,4 hPa 0,0 l/m 9,8 km/h (2 Bft) O-NO 77 2 min 0,000 mm 5,6 UV-I 861 W/m 17,9 C 24,1 C 14,5 km/h (3 Bft) 92,73 %
03.06.2017 11:52 24,9 C 25,6 C 63 % 1013,5 hPa 0,0 l/m 7,0 km/h (2 Bft) O 89 2 min 0,000 mm 5,6 UV-I 863 W/m 17,4 C 24,7 C 9,7 km/h (2 Bft) 94,87 %
03.06.2017 11:54 24,9 C 25,6 C 62 % 1013,4 hPa 0,0 l/m 9,7 km/h (2 Bft) O-NO 59 2 min 0,000 mm 5,6 UV-I 863 W/m 17,1 C 24,1 C 16,1 km/h (3 Bft) 95,12 %
03.06.2017 11:56 24,8 C 25,6 C 61 % 1013,5 hPa 0,0 l/m 7,7 km/h (2 Bft) O-NO 57 2 min 0,000 mm 5,6 UV-I 865 W/m 16,8 C 24,5 C 16,1 km/h (3 Bft) 98,31 %
03.06.2017 11:58 24,7 C 25,6 C 62 % 1013,5 hPa 0,0 l/m 4,4 km/h (1 Bft) O-NO 65 2 min 0,000 mm 5,6 UV-I 867 W/m 16,9 C 24,7 C 9,7 km/h (2 Bft) 95,74 %
03.06.2017 12:00 24,7 C 25,6 C 62 % 1013,5 hPa 0,0 l/m 5,5 km/h (1 Bft) O 101 2 min 0,533 mm 5,7 UV-I 867 W/m 16,9 C 24,7 C 9,7 km/h (2 Bft) 96,23 %
03.06.2017 12:02 24,7 C 25,6 C 60 % 1013,4 hPa 0,0 l/m 2,7 km/h (1 Bft) SO 134 2 min 0,000 mm 5,7 UV-I 868 W/m 16,4 C 24,7 C 6,4 km/h (2 Bft) 97,56 %
03.06.2017 12:04 24,6 C 25,6 C 60 % 1013,4 hPa 0,0 l/m 1,1 km/h (1 Bft) SO 137 2 min 0,000 mm 5,7 UV-I 856 W/m 16,3 C 24,6 C 1,6 km/h (1 Bft) 97,73 %
03.06.2017 12:06 24,6 C 25,6 C 64 % 1013,4 hPa 0,0 l/m 1,5 km/h (1 Bft) NO 47 2 min 0,000 mm 5,8 UV-I 872 W/m 17,3 C 24,6 C 4,8 km/h (1 Bft) 98,11 %
03.06.2017 12:08 24,7 C 25,6 C 63 % 1013,4 hPa 0,0 l/m 1,6 km/h (1 Bft) N-NO 28 2 min 0,000 mm 5,7 UV-I 867 W/m 17,2 C 24,7 C 3,2 km/h (1 Bft) 100,00 %
03.06.2017 12:10 24,5 C 25,6 C 62 % 1013,4 hPa 0,0 l/m 1,2 km/h (1 Bft) N-NO 28 2 min 0,000 mm 5,8 UV-I 867 W/m 16,7 C 24,5 C 3,2 km/h (1 Bft) 100,00 %
03.06.2017 12:12 24,8 C 25,6 C 65 % 1013,3 hPa 0,0 l/m 2,6 km/h (1 Bft) N-NO 32 2 min 0,000 mm 5,8 UV-I 874 W/m 17,8 C 24,8 C 4,8 km/h (1 Bft) 96,00 %
03.06.2017 12:14 24,8 C 25,6 C 62 % 1013,3 hPa 0,0 l/m 3,3 km/h (1 Bft) N-NO 13 2 min 0,000 mm 5,8 UV-I 873 W/m 17,0 C 24,8 C 6,4 km/h (2 Bft) 100,00 %
03.06.2017 12:16 24,8 C 25,6 C 67 % 1013,3 hPa 0,0 l/m 5,9 km/h (2 Bft) NO 48 2 min 0,000 mm 5,8 UV-I 868 W/m 18,2 C 24,8 C 9,7 km/h (2 Bft) 94,64 %
03.06.2017 12:18 24,9 C 25,6 C 61 % 1013,2 hPa 0,0 l/m 8,6 km/h (2 Bft) NO 38 2 min 0,000 mm 5,8 UV-I 863 W/m 16,8 C 24,4 C 14,5 km/h (3 Bft) 97,37 %
03.06.2017 12:20 25,1 C 25,6 C 63 % 1013,3 hPa 0,0 l/m 6,0 km/h (2 Bft) NO 49 2 min 0,000 mm 5,8 UV-I 866 W/m 17,5 C 25,1 C 9,7 km/h (2 Bft) 98,11 %
03.06.2017 12:22 25,2 C 25,6 C 60 % 1013,3 hPa 0,0 l/m 6,8 km/h (2 Bft) O-NO 78 2 min 0,000 mm 5,9 UV-I 873 W/m 16,9 C 25,1 C 12,9 km/h (3 Bft) 96,00 %
03.06.2017 12:24 25,2 C 25,6 C 60 % 1013,3 hPa 0,0 l/m 7,5 km/h (2 Bft) O 88 2 min 0,000 mm 5,9 UV-I 879 W/m 16,9 C 24,9 C 12,9 km/h (3 Bft) 93,62 %
03.06.2017 12:26 25,2 C 25,6 C 61 % 1013,3 hPa 0,0 l/m 5,0 km/h (1 Bft) SO 128 2 min 0,000 mm 5,9 UV-I 884 W/m 17,1 C 25,2 C 11,3 km/h (2 Bft) 95,12 %
03.06.2017 12:28 25,1 C 25,6 C 61 % 1013,2 hPa 0,0 l/m 7,6 km/h (2 Bft) O 82 2 min 0,000 mm 6,0 UV-I 885 W/m 17,0 C 24,8 C 17,7 km/h (3 Bft) 90,00 %
03.06.2017 12:30 25,3 C 25,6 C 60 % 1013,2 hPa 0,0 l/m 5,4 km/h (1 Bft) N-NO 22 2 min 0,000 mm 6,0 UV-I 888 W/m 17,0 C 25,3 C 12,9 km/h (3 Bft) 92,00 %
03.06.2017 12:34 25,3 C 25,6 C 65 % 1013,2 hPa 0,0 l/m 5,1 km/h (1 Bft) N-NO 17 4 min 0,000 mm 5,9 UV-I 873 W/m 18,2 C 25,3 C 16,1 km/h (3 Bft) 95,12 %
03.06.2017 12:36 25,2 C 25,6 C 63 % 1013,1 hPa 0,0 l/m 5,0 km/h (1 Bft) N-NO 21 2 min 0,000 mm 5,9 UV-I 876 W/m 17,6 C 25,2 C 16,1 km/h (3 Bft) 95,12 %
03.06.2017 12:38 25,3 C 25,6 C 63 % 1013,0 hPa 0,0 l/m 10,1 km/h (2 Bft) O-NO 66 2 min 0,000 mm 5,9 UV-I 876 W/m 17,7 C 24,5 C 16,1 km/h (3 Bft) 98,11 %
03.06.2017 12:40 25,4 C 25,6 C 63 % 1013,0 hPa 0,0 l/m 6,9 km/h (2 Bft) NO 52 2 min 0,000 mm 5,9 UV-I 878 W/m 17,8 C 25,3 C 12,9 km/h (3 Bft) 94,87 %
03.06.2017 12:42 25,4 C 25,6 C 64 % 1013,0 hPa 0,0 l/m 3,8 km/h (1 Bft) N 355 2 min 0,000 mm 5,9 UV-I 874 W/m 18,1 C 25,4 C 9,7 km/h (2 Bft) 95,74 %
03.06.2017 12:44 25,6 C 26,1 C 60 % 1013,0 hPa 0,0 l/m 3,2 km/h (1 Bft) NO 44 2 min 0,000 mm 5,8 UV-I 869 W/m 17,2 C 25,6 C 8,0 km/h (2 Bft) 93,62 %
03.06.2017 12:46 25,7 C 25,6 C 61 % 1012,9 hPa 0,0 l/m 9,0 km/h (2 Bft) NO 51 2 min 0,000 mm 5,9 UV-I 880 W/m 17,6 C 25,1 C 14,5 km/h (3 Bft) 98,21 %
03.06.2017 12:48 25,7 C 26,1 C 62 % 1012,9 hPa 0,0 l/m 7,4 km/h (2 Bft) NO 48 2 min 0,000 mm 6,1 UV-I 890 W/m 17,9 C 25,5 C 11,3 km/h (2 Bft) 95,12 %
03.06.2017 12:50 25,7 C 26,1 C 60 % 1012,9 hPa 0,0 l/m 5,0 km/h (1 Bft) O 80 2 min 0,000 mm 6,1 UV-I 892 W/m 17,3 C 25,7 C 8,0 km/h (2 Bft) 96,00 %
03.06.2017 12:52 25,7 C 26,1 C 56 % 1012,8 hPa 0,0 l/m 7,7 km/h (2 Bft) O-NO 61 2 min 0,000 mm 6,1 UV-I 890 W/m 16,2 C 25,4 C 14,5 km/h (3 Bft) 97,37 %
03.06.2017 12:54 25,7 C 26,1 C 56 % 1012,8 hPa 0,0 l/m 5,1 km/h (1 Bft) O 96 2 min 0,000 mm 6,1 UV-I 892 W/m 16,2 C 25,7 C 8,0 km/h (2 Bft) 95,74 %
03.06.2017 12:56 25,8 C 26,1 C 62 % 1012,7 hPa 0,0 l/m 3,4 km/h (1 Bft) NW 311 2 min 0,000 mm 6,1 UV-I 888 W/m 18,0 C 25,8 C 6,4 km/h (2 Bft) 97,87 %
03.06.2017 12:58 25,9 C 26,1 C 58 % 1012,7 hPa 0,0 l/m 3,8 km/h (1 Bft) N-NW 330 2 min 0,000 mm 6,0 UV-I 879 W/m 17,0 C 25,9 C 8,0 km/h (2 Bft) 92,45 %
03.06.2017 13:00 26,1 C 26,1 C 62 % 1012,7 hPa 0,0 l/m 2,5 km/h (1 Bft) NO 42 2 min 0,000 mm 6,0 UV-I 884 W/m 18,2 C 26,1 C 11,3 km/h (2 Bft) 93,62 %
03.06.2017 13:02 26,2 C 26,1 C 55 % 1012,7 hPa 0,0 l/m 9,3 km/h (2 Bft) O-NO 67 2 min 0,584 mm 6,1 UV-I 891 W/m 16,4 C 25,6 C 14,5 km/h (3 Bft) 97,37 %
03.06.2017 13:04 26,1 C 26,1 C 56 % 1012,7 hPa 0,0 l/m 10,4 km/h (2 Bft) NO 51 2 min 0,000 mm 6,2 UV-I 894 W/m 16,6 C 25,3 C 17,7 km/h (3 Bft) 98,31 %
03.06.2017 13:06 26,2 C 26,1 C 52 % 1012,7 hPa 0,0 l/m 10,3 km/h (2 Bft) O-NO 75 2 min 0,000 mm 6,2 UV-I 895 W/m 15,6 C 25,4 C 14,5 km/h (3 Bft) 93,10 %
03.06.2017 13:08 26,1 C 26,1 C 53 % 1012,7 hPa 0,0 l/m 10,4 km/h (2 Bft) O-NO 73 2 min 0,000 mm 6,2 UV-I 896 W/m 15,8 C 25,3 C 16,1 km/h (3 Bft) 96,23 %
03.06.2017 13:10 26,1 C 26,1 C 52 % 1012,7 hPa 0,0 l/m 5,3 km/h (1 Bft) O-NO 69 2 min 0,000 mm 6,2 UV-I 897 W/m 15,5 C 26,1 C 8,0 km/h (2 Bft) 98,21 %
03.06.2017 13:12 26,1 C 26,1 C 53 % 1012,7 hPa 0,0 l/m 4,1 km/h (1 Bft) NO 55 2 min 0,000 mm 6,2 UV-I 899 W/m 15,8 C 26,1 C 8,0 km/h (2 Bft) 96,00 %
03.06.2017 13:14 26,2 C 26,1 C 53 % 1012,7 hPa 0,0 l/m 5,1 km/h (1 Bft) O 93 2 min 0,000 mm 6,2 UV-I 899 W/m 15,8 C 26,2 C 6,4 km/h (2 Bft) 97,87 %
03.06.2017 13:16 26,2 C 26,1 C 58 % 1012,6 hPa 0,0 l/m 6,7 km/h (2 Bft) O-NO 57 2 min 0,000 mm 6,1 UV-I 893 W/m 17,3 C 26,1 C 11,3 km/h (2 Bft) 95,45 %
03.06.2017 13:18 26,4 C 26,1 C 55 % 1012,6 hPa 0,0 l/m 7,7 km/h (2 Bft) NO 44 2 min 0,000 mm 6,1 UV-I 892 W/m 16,6 C 26,1 C 11,3 km/h (2 Bft) 100,00 %
03.06.2017 13:20 26,4 C 26,1 C 52 % 1012,6 hPa 0,0 l/m 5,5 km/h (1 Bft) NO 46 2 min 0,000 mm 6,2 UV-I 896 W/m 15,7 C 26,4 C 8,0 km/h (2 Bft) 96,23 %
03.06.2017 13:23 26,4 C 26,1 C 53 % 1012,6 hPa 0,0 l/m 6,7 km/h (2 Bft) O 92 3 min 0,000 mm 6,2 UV-I 902 W/m 16,0 C 26,3 C 9,7 km/h (2 Bft) 95,52 %
03.06.2017 13:24 26,4 C 26,1 C 48 % 1012,6 hPa 0,0 l/m 3,6 km/h (1 Bft) O-SO 117 1 min 0,000 mm 6,2 UV-I 904 W/m 14,5 C 26,4 C 6,4 km/h (2 Bft) 100,00 %
03.06.2017 13:26 26,2 C 26,1 C 49 % 1012,5 hPa 0,0 l/m 0,9 km/h (0 Bft) O-NO 70 2 min 0,000 mm 6,1 UV-I 893 W/m 14,6 C 26,2 C 3,2 km/h (1 Bft) 97,96 %
03.06.2017 13:28 26,2 C 26,1 C 53 % 1012,5 hPa 0,0 l/m 5,3 km/h (1 Bft) O-SO 119 2 min 0,000 mm 6,1 UV-I 886 W/m 15,8 C 26,2 C 11,3 km/h (2 Bft) 95,74 %
03.06.2017 13:30 26,4 C 26,1 C 52 % 1012,5 hPa 0,0 l/m 3,9 km/h (1 Bft) S-SO 148 2 min 0,000 mm 6,1 UV-I 888 W/m 15,7 C 26,4 C 6,4 km/h (2 Bft) 98,00 %
03.06.2017 13:32 26,3 C 26,1 C 50 % 1012,5 hPa 0,0 l/m 2,5 km/h (1 Bft) O-NO 71 2 min 0,000 mm 6,0 UV-I 886 W/m 15,0 C 26,3 C 4,8 km/h (1 Bft) 95,74 %
03.06.2017 13:34 26,2 C 26,1 C 52 % 1012,4 hPa 0,0 l/m 3,9 km/h (1 Bft) NO 49 2 min 0,000 mm 5,9 UV-I 875 W/m 15,6 C 26,2 C 8,0 km/h (2 Bft) 94,29 %
03.06.2017 13:36 26,4 C 26,1 C 52 % 1012,4 hPa 0,0 l/m 2,6 km/h (1 Bft) NO 41 2 min 0,000 mm 6,0 UV-I 882 W/m 15,7 C 26,4 C 4,8 km/h (1 Bft) 98,00 %
03.06.2017 13:38 26,7 C 26,1 C 55 % 1012,4 hPa 0,0 l/m 7,6 km/h (2 Bft) NO 48 2 min 0,000 mm 6,0 UV-I 878 W/m 16,9 C 26,5 C 16,1 km/h (3 Bft) 93,62 %
03.06.2017 13:40 26,8 C 26,1 C 53 % 1012,3 hPa 0,0 l/m 8,9 km/h (2 Bft) O-NO 57 2 min 0,000 mm 6,0 UV-I 877 W/m 16,4 C 26,3 C 14,5 km/h (3 Bft) 98,11 %
03.06.2017 13:42 26,8 C 26,1 C 58 % 1012,3 hPa 0,0 l/m 8,4 km/h (2 Bft) O-NO 68 2 min 0,000 mm 6,0 UV-I 882 W/m 17,8 C 26,4 C 11,3 km/h (2 Bft) 97,87 %
03.06.2017 13:44 26,8 C 26,1 C 55 % 1012,3 hPa 0,0 l/m 6,0 km/h (2 Bft) NO 53 2 min 0,000 mm 6,0 UV-I 881 W/m 17,0 C 26,8 C 11,3 km/h (2 Bft) 96,00 %
03.06.2017 13:46 26,8 C 26,1 C 56 % 1012,3 hPa 0,0 l/m 5,4 km/h (1 Bft) NO 40 2 min 0,000 mm 6,0 UV-I 882 W/m 17,3 C 26,8 C 8,0 km/h (2 Bft) 97,37 %
03.06.2017 13:48 26,4 C 26,1 C 50 % 1012,3 hPa 0,0 l/m 1,0 km/h (0 Bft) NO 40 2 min 0,000 mm 6,0 UV-I 881 W/m 15,1 C 26,4 C 3,2 km/h (1 Bft) 92,00 %
03.06.2017 13:50 26,2 C 26,1 C 48 % 1012,3 hPa 0,0 l/m 0,3 km/h (0 Bft) NO 40 2 min 0,000 mm 6,0 UV-I 882 W/m 14,3 C 26,2 C 1,6 km/h (1 Bft) 98,00 %
03.06.2017 13:52 26,3 C 26,1 C 54 % 1012,3 hPa 0,0 l/m 6,6 km/h (2 Bft) NO 34 2 min 0,000 mm 5,9 UV-I 875 W/m 16,2 C 26,3 C 12,9 km/h (3 Bft) 95,12 %
03.06.2017 13:54 26,7 C 26,1 C 56 % 1012,2 hPa 0,0 l/m 8,2 km/h (2 Bft) O-NO 65 2 min 0,000 mm 5,9 UV-I 878 W/m 17,2 C 26,3 C 14,5 km/h (3 Bft) 91,84 %
03.06.2017 13:56 27,0 C 26,1 C 55 % 1012,3 hPa 0,0 l/m 7,1 km/h (2 Bft) O-NO 60 2 min 0,000 mm 5,9 UV-I 876 W/m 17,2 C 26,9 C 12,9 km/h (3 Bft) 96,23 %
03.06.2017 13:58 26,9 C 26,1 C 50 % 1012,2 hPa 0,0 l/m 6,0 km/h (2 Bft) O 85 2 min 0,000 mm 5,9 UV-I 880 W/m 15,6 C 26,9 C 9,7 km/h (2 Bft) 95,24 %
03.06.2017 14:00 26,8 C 26,1 C 52 % 1012,2 hPa 0,0 l/m 1,7 km/h (1 Bft) NO 49 2 min 0,000 mm 5,9 UV-I 895 W/m 16,1 C 26,8 C 4,8 km/h (1 Bft) 97,37 %
03.06.2017 14:02 26,9 C 26,1 C 55 % 1012,2 hPa 0,0 l/m 6,0 km/h (2 Bft) N-NO 23 2 min 0,610 mm 6,0 UV-I 917 W/m 17,1 C 26,9 C 12,9 km/h (3 Bft) 96,15 %
03.06.2017 14:04 27,1 C 26,1 C 50 % 1012,2 hPa 0,0 l/m 4,7 km/h (1 Bft) NO 46 2 min 0,000 mm 5,9 UV-I 923 W/m 15,8 C 27,1 C 9,7 km/h (2 Bft) 100,00 %
03.06.2017 14:06 26,9 C 26,1 C 49 % 1012,1 hPa 0,0 l/m 5,2 km/h (1 Bft) O 83 2 min 0,000 mm 5,9 UV-I 911 W/m 15,3 C 26,9 C 8,0 km/h (2 Bft) 98,00 %
03.06.2017 14:08 26,7 C 26,1 C 51 % 1012,0 hPa 0,0 l/m 4,9 km/h (1 Bft) N-NO 15 2 min 0,000 mm 5,9 UV-I 917 W/m 15,7 C 26,7 C 14,5 km/h (3 Bft) 98,00 %
03.06.2017 14:10 26,6 C 26,1 C 54 % 1012,0 hPa 0,0 l/m 10,6 km/h (2 Bft) NO 46 2 min 0,000 mm 6,0 UV-I 931 W/m 16,5 C 25,8 C 16,1 km/h (3 Bft) 97,87 %
03.06.2017 14:12 26,8 C 26,1 C 56 % 1012,0 hPa 0,0 l/m 5,3 km/h (1 Bft) O-SO 107 2 min 0,000 mm 5,3 UV-I 921 W/m 17,3 C 26,8 C 9,7 km/h (2 Bft) 98,21 %
03.06.2017 14:14 26,9 C 26,1 C 50 % 1012,0 hPa 0,0 l/m 9,1 km/h (2 Bft) O-NO 77 2 min 0,000 mm 5,4 UV-I 823 W/m 15,6 C 26,4 C 16,1 km/h (3 Bft) 100,00 %
03.06.2017 14:16 26,8 C 26,1 C 49 % 1011,9 hPa 0,0 l/m 9,8 km/h (2 Bft) O 86 2 min 0,000 mm 4,4 UV-I 558 W/m 15,2 C 26,2 C 19,3 km/h (3 Bft) 96,43 %
03.06.2017 14:18 26,7 C 26,1 C 50 % 1011,9 hPa 0,0 l/m 12,2 km/h (2 Bft) O-NO 67 2 min 0,000 mm 4,7 UV-I 533 W/m 15,4 C 25,7 C 16,1 km/h (3 Bft) 100,00 %
03.06.2017 14:20 26,8 C 26,1 C 49 % 1011,9 hPa 0,0 l/m 11,0 km/h (2 Bft) O-NO 69 2 min 0,000 mm 5,5 UV-I 896 W/m 15,2 C 26,0 C 16,1 km/h (3 Bft) 100,00 %
03.06.2017 14:22 26,7 C 26,1 C 50 % 1011,9 hPa 0,0 l/m 6,3 km/h (2 Bft) O-NO 59 2 min 0,000 mm 4,0 UV-I 701 W/m 15,4 C 26,7 C 11,3 km/h (2 Bft) 100,00 %
03.06.2017 14:24 26,5 C 26,1 C 50 % 1011,8 hPa 0,0 l/m 5,4 km/h (1 Bft) NO 42 0 min 0,000 mm 5,0 UV-I 433 W/m 15,2 C 26,5 C 6,4 km/h (2 Bft) 100,00 %
03.06.2017 14:26 26,4 C 26,1 C 50 % 1011,8 hPa 0,0 l/m 1,8 km/h (1 Bft) N-NO 19 2 min 0,000 mm 5,8 UV-I 940 W/m 15,1 C 26,4 C 4,8 km/h (1 Bft) 100,00 %
03.06.2017 14:28 26,8 C 26,1 C 54 % 1011,9 hPa 0,0 l/m 3,6 km/h (1 Bft) NO 54 2 min 0,000 mm 5,7 UV-I 931 W/m 16,7 C 26,8 C 6,4 km/h (2 Bft) 97,87 %
03.06.2017 14:30 26,9 C 26,1 C 50 % 1011,8 hPa 0,0 l/m 3,0 km/h (1 Bft) O-NO 58 2 min 0,000 mm 5,4 UV-I 926 W/m 15,6 C 26,9 C 8,0 km/h (2 Bft) 98,11 %
03.06.2017 14:32 26,9 C 26,1 C 46 % 1011,8 hPa 0,0 l/m 4,6 km/h (1 Bft) O-NO 59 2 min 0,000 mm 5,4 UV-I 782 W/m 14,3 C 26,9 C 8,0 km/h (2 Bft) 100,00 %
03.06.2017 14:34 26,8 C 26,1 C 49 % 1011,7 hPa 0,0 l/m 1,7 km/h (1 Bft) O-NO 58 2 min 0,000 mm 5,5 UV-I 839 W/m 15,2 C 26,8 C 4,8 km/h (1 Bft) 98,00 %
03.06.2017 14:36 26,9 C 26,1 C 52 % 1011,7 hPa 0,0 l/m 3,3 km/h (1 Bft) O-NO 78 2 min 0,000 mm 5,4 UV-I 847 W/m 16,2 C 26,9 C 14,5 km/h (3 Bft) 100,00 %
03.06.2017 14:38 27,2 C 26,1 C 49 % 1011,6 hPa 0,0 l/m 8,0 km/h (2 Bft) O-NO 76 2 min 0,000 mm 5,3 UV-I 841 W/m 15,5 C 26,9 C 14,5 km/h (3 Bft) 97,62 %
03.06.2017 14:40 27,2 C 26,1 C 48 % 1011,6 hPa 0,0 l/m 2,3 km/h (1 Bft) O 86 2 min 0,000 mm 5,3 UV-I 843 W/m 15,2 C 27,2 C 4,8 km/h (1 Bft) 100,00 %
03.06.2017 14:42 27,2 C 26,7 C 48 % 1011,6 hPa 0,0 l/m 3,1 km/h (1 Bft) SO 142 2 min 0,000 mm 5,3 UV-I 847 W/m 15,2 C 27,2 C 6,4 km/h (2 Bft) 100,00 %
03.06.2017 14:44 27,6 C 26,1 C 52 % 1011,5 hPa 0,0 l/m 9,3 km/h (2 Bft) O 86 2 min 0,000 mm 5,3 UV-I 844 W/m 16,8 C 27,1 C 12,9 km/h (3 Bft) 98,25 %
03.06.2017 14:46 27,6 C 26,1 C 49 % 1011,5 hPa 0,0 l/m 7,5 km/h (2 Bft) NO 55 2 min 0,000 mm 5,3 UV-I 837 W/m 15,9 C 27,4 C 14,5 km/h (3 Bft) 96,00 %
03.06.2017 14:48 27,6 C 26,7 C 48 % 1011,5 hPa 0,0 l/m 12,1 km/h (2 Bft) O-NO 59 2 min 0,000 mm 5,2 UV-I 836 W/m 15,6 C 26,8 C 14,5 km/h (3 Bft) 97,37 %
03.06.2017 14:50 27,6 C 26,1 C 47 % 1011,5 hPa 0,0 l/m 11,4 km/h (2 Bft) O 82 2 min 0,000 mm 5,2 UV-I 839 W/m 15,3 C 26,9 C 16,1 km/h (3 Bft) 100,00 %
03.06.2017 14:52 27,6 C 26,1 C 48 % 1011,4 hPa 0,0 l/m 5,6 km/h (1 Bft) O 90 2 min 0,000 mm 5,2 UV-I 846 W/m 15,6 C 27,6 C 11,3 km/h (2 Bft) 98,00 %
03.06.2017 14:54 27,5 C 26,1 C 47 % 1011,4 hPa 0,0 l/m 3,3 km/h (1 Bft) O-NO 65 2 min 0,000 mm 5,2 UV-I 851 W/m 15,2 C 27,5 C 6,4 km/h (2 Bft) 100,00 %
03.06.2017 14:56 27,4 C 26,1 C 46 % 1011,4 hPa 0,0 l/m 4,2 km/h (1 Bft) N-NO 19 2 min 0,000 mm 5,2 UV-I 849 W/m 14,7 C 27,4 C 8,0 km/h (2 Bft) 97,37 %
03.06.2017 14:58 27,3 C 26,7 C 49 % 1011,3 hPa 0,0 l/m 5,2 km/h (1 Bft) N-NO 30 2 min 0,000 mm 5,0 UV-I 849 W/m 15,6 C 27,3 C 8,0 km/h (2 Bft) 98,00 %
03.06.2017 15:00 27,2 C 26,7 C 46 % 1011,3 hPa 0,0 l/m 2,7 km/h (1 Bft) N 5 2 min 0,584 mm 5,1 UV-I 843 W/m 14,6 C 27,2 C 6,4 km/h (2 Bft) 94,00 %
03.06.2017 15:03 27,2 C 26,1 C 48 % 1011,3 hPa 0,0 l/m 3,3 km/h (1 Bft) O-NO 65 3 min 0,000 mm 5,1 UV-I 845 W/m 15,2 C 27,2 C 8,0 km/h (2 Bft) 98,65 %
03.06.2017 15:04 27,3 C 26,7 C 48 % 1011,3 hPa 0,0 l/m 3,7 km/h (1 Bft) O-SO 103 1 min 0,000 mm 5,0 UV-I 844 W/m 15,3 C 27,3 C 4,8 km/h (1 Bft) 100,00 %
03.06.2017 15:06 27,7 C 26,7 C 45 % 1011,2 hPa 0,0 l/m 5,1 km/h (1 Bft) SO 134 2 min 0,000 mm 5,0 UV-I 841 W/m 14,7 C 27,7 C 12,9 km/h (3 Bft) 100,00 %
03.06.2017 15:08 27,8 C 26,7 C 45 % 1011,2 hPa 0,0 l/m 5,7 km/h (1 Bft) O-SO 111 2 min 0,000 mm 5,0 UV-I 834 W/m 14,8 C 27,8 C 12,9 km/h (3 Bft) 100,00 %
03.06.2017 15:10 27,9 C 26,7 C 46 % 1011,1 hPa 0,0 l/m 7,1 km/h (2 Bft) O-SO 103 2 min 0,000 mm 4,9 UV-I 830 W/m 15,2 C 27,8 C 17,7 km/h (3 Bft) 96,00 %
03.06.2017 15:12 28,0 C 26,7 C 48 % 1011,1 hPa 0,0 l/m 10,1 km/h (2 Bft) SO 135 2 min 0,000 mm 4,9 UV-I 823 W/m 15,9 C 27,5 C 16,1 km/h (3 Bft) 100,00 %
03.06.2017 15:14 28,0 C 26,7 C 47 % 1011,1 hPa 0,0 l/m 4,3 km/h (1 Bft) O-SO 106 2 min 0,000 mm 4,8 UV-I 814 W/m 15,6 C 28,0 C 12,9 km/h (3 Bft) 100,00 %
03.06.2017 15:16 28,0 C 26,7 C 45 % 1011,0 hPa 0,0 l/m 5,0 km/h (1 Bft) O 101 2 min 0,000 mm 4,7 UV-I 800 W/m 14,9 C 28,0 C 6,4 km/h (2 Bft) 100,00 %
03.06.2017 15:18 27,9 C 26,7 C 43 % 1010,9 hPa 0,0 l/m 3,0 km/h (1 Bft) S-SO 148 2 min 0,000 mm 4,6 UV-I 785 W/m 14,1 C 27,9 C 9,7 km/h (2 Bft) 97,44 %
03.06.2017 15:20 28,0 C 26,7 C 46 % 1010,9 hPa 0,0 l/m 6,5 km/h (2 Bft) O-NO 67 2 min 0,000 mm 4,6 UV-I 779 W/m 15,3 C 28,0 C 12,9 km/h (3 Bft) 100,00 %
03.06.2017 15:22 28,0 C 26,7 C 47 % 1010,9 hPa 0,0 l/m 7,0 km/h (2 Bft) O-NO 70 2 min 0,000 mm 4,6 UV-I 775 W/m 15,6 C 27,9 C 12,9 km/h (3 Bft) 97,87 %
03.06.2017 15:24 27,9 C 26,7 C 45 % 1010,9 hPa 0,0 l/m 6,2 km/h (2 Bft) O-NO 60 2 min 0,000 mm 4,4 UV-I 763 W/m 14,8 C 27,9 C 11,3 km/h (2 Bft) 97,73 %
03.06.2017 15:26 27,7 C 26,7 C 49 % 1010,8 hPa 0,0 l/m 5,4 km/h (1 Bft) NO 47 2 min 0,000 mm 4,3 UV-I 746 W/m 16,0 C 27,7 C 14,5 km/h (3 Bft) 98,00 %
03.06.2017 15:28 27,5 C 26,7 C 48 % 1010,8 hPa 0,0 l/m 4,9 km/h (1 Bft) O-NO 57 2 min 0,000 mm 4,2 UV-I 715 W/m 15,5 C 27,5 C 8,0 km/h (2 Bft) 97,73 %
03.06.2017 15:30 27,4 C 26,7 C 49 % 1010,9 hPa 0,0 l/m 7,6 km/h (2 Bft) NO 53 2 min 0,000 mm 4,2 UV-I 740 W/m 15,7 C 27,2 C 14,5 km/h (3 Bft) 95,45 %
03.06.2017 15:32 27,7 C 26,7 C 49 % 1010,7 hPa 0,0 l/m 11,9 km/h (2 Bft) O 96 2 min 0,000 mm 4,3 UV-I 749 W/m 16,0 C 26,9 C 16,1 km/h (3 Bft) 94,12 %
03.06.2017 15:34 27,8 C 26,7 C 47 % 1010,8 hPa 0,0 l/m 8,4 km/h (2 Bft) O-NO 59 2 min 0,000 mm 4,3 UV-I 752 W/m 15,4 C 27,5 C 14,5 km/h (3 Bft) 93,02 %
03.06.2017 15:36 27,9 C 26,7 C 46 % 1010,8 hPa 0,0 l/m 8,5 km/h (2 Bft) O-SO 107 2 min 0,000 mm 4,3 UV-I 748 W/m 15,2 C 27,6 C 14,5 km/h (3 Bft) 96,43 %
03.06.2017 15:38 27,8 C 26,7 C 45 % 1010,7 hPa 0,0 l/m 9,0 km/h (2 Bft) O-NO 78 2 min 0,000 mm 4,2 UV-I 740 W/m 14,8 C 27,4 C 14,5 km/h (3 Bft) 93,62 %
03.06.2017 15:40 27,8 C 26,7 C 47 % 1010,7 hPa 0,0 l/m 8,0 km/h (2 Bft) O 90 2 min 0,000 mm 4,1 UV-I 730 W/m 15,4 C 27,5 C 11,3 km/h (2 Bft) 92,11 %
03.06.2017 15:42 27,9 C 26,7 C 46 % 1010,7 hPa 0,0 l/m 7,1 km/h (2 Bft) O-SO 106 2 min 0,000 mm 4,0 UV-I 721 W/m 15,2 C 27,8 C 14,5 km/h (3 Bft) 92,86 %
03.06.2017 15:44 27,9 C 26,7 C 47 % 1010,7 hPa 0,0 l/m 13,9 km/h (3 Bft) O 96 2 min 0,000 mm 4,0 UV-I 716 W/m 15,5 C 26,9 C 17,7 km/h (3 Bft) 94,29 %
03.06.2017 15:46 28,1 C 26,7 C 46 % 1010,8 hPa 0,0 l/m 9,1 km/h (2 Bft) O 90 2 min 0,000 mm 4,0 UV-I 716 W/m 15,4 C 27,7 C 16,1 km/h (3 Bft) 94,34 %
03.06.2017 15:48 28,2 C 26,7 C 44 % 1010,7 hPa 0,0 l/m 7,4 km/h (2 Bft) S-SO 166 2 min 0,000 mm 3,9 UV-I 718 W/m 14,8 C 28,0 C 16,1 km/h (3 Bft) 94,00 %
03.06.2017 15:50 28,1 C 26,7 C 42 % 1010,8 hPa 0,0 l/m 6,6 km/h (2 Bft) O-SO 114 2 min 0,000 mm 3,9 UV-I 720 W/m 14,0 C 28,1 C 11,3 km/h (2 Bft) 93,62 %
03.06.2017 15:52 28,1 C 26,7 C 43 % 1010,7 hPa 0,0 l/m 4,2 km/h (1 Bft) S-SO 156 2 min 0,000 mm 3,9 UV-I 716 W/m 14,3 C 28,1 C 6,4 km/h (2 Bft) 97,87 %
03.06.2017 15:54 28,1 C 26,7 C 43 % 1010,8 hPa 0,0 l/m 7,0 km/h (2 Bft) O-NO 65 2 min 0,000 mm 3,8 UV-I 712 W/m 14,3 C 28,0 C 11,3 km/h (2 Bft) 97,44 %
03.06.2017 15:56 28,1 C 26,7 C 45 % 1010,7 hPa 0,0 l/m 8,4 km/h (2 Bft) O-NO 64 2 min 0,000 mm 3,7 UV-I 675 W/m 15,0 C 27,8 C 11,3 km/h (2 Bft) 98,11 %
03.06.2017 15:58 28,1 C 26,7 C 48 % 1010,7 hPa 0,0 l/m 6,8 km/h (2 Bft) NO 43 2 min 0,000 mm 3,6 UV-I 675 W/m 16,0 C 28,0 C 9,7 km/h (2 Bft) 97,37 %
03.06.2017 16:00 27,9 C 26,7 C 46 % 1010,7 hPa 0,0 l/m 3,3 km/h (1 Bft) NO 52 2 min 0,000 mm 3,6 UV-I 672 W/m 15,2 C 27,9 C 4,8 km/h (1 Bft) 98,15 %
03.06.2017 16:02 27,9 C 26,7 C 49 % 1010,6 hPa 0,0 l/m 3,3 km/h (1 Bft) SO 134 2 min 0,559 mm 3,5 UV-I 671 W/m 16,2 C 27,9 C 4,8 km/h (1 Bft) 94,34 %
03.06.2017 16:04 27,9 C 26,7 C 46 % 1010,6 hPa 0,0 l/m 0,9 km/h (0 Bft) SO 134 2 min 0,000 mm 3,5 UV-I 671 W/m 15,2 C 27,9 C 3,2 km/h (1 Bft) 95,12 %
03.06.2017 16:06 27,9 C 26,7 C 44 % 1010,7 hPa 0,0 l/m 2,9 km/h (1 Bft) S-SO 159 2 min 0,000 mm 3,4 UV-I 692 W/m 14,5 C 27,9 C 8,0 km/h (2 Bft) 97,73 %
03.06.2017 16:08 27,9 C 26,7 C 45 % 1010,6 hPa 0,0 l/m 2,8 km/h (1 Bft) O 82 2 min 0,000 mm 3,3 UV-I 599 W/m 14,8 C 27,9 C 6,4 km/h (2 Bft) 98,00 %
03.06.2017 16:10 27,8 C 26,7 C 43 % 1010,6 hPa 0,0 l/m 4,4 km/h (1 Bft) S-SO 157 2 min 0,000 mm 3,3 UV-I 634 W/m 14,1 C 27,8 C 8,0 km/h (2 Bft) 95,74 %
03.06.2017 16:12 27,9 C 26,7 C 47 % 1010,6 hPa 0,0 l/m 3,3 km/h (1 Bft) O-SO 107 2 min 0,000 mm 3,3 UV-I 651 W/m 15,5 C 27,9 C 12,9 km/h (3 Bft) 95,12 %
03.06.2017 16:14 28,1 C 26,7 C 47 % 1010,6 hPa 0,0 l/m 10,9 km/h (2 Bft) SO 131 2 min 0,000 mm 3,4 UV-I 663 W/m 15,7 C 27,5 C 16,1 km/h (3 Bft) 97,37 %
03.06.2017 16:16 28,2 C 26,7 C 43 % 1010,6 hPa 0,0 l/m 7,1 km/h (2 Bft) S 170 2 min 0,000 mm 3,3 UV-I 634 W/m 14,4 C 28,1 C 16,1 km/h (3 Bft) 96,43 %
03.06.2017 16:18 28,1 C 26,7 C 43 % 1010,5 hPa 0,0 l/m 5,6 km/h (1 Bft) O 96 2 min 0,000 mm 3,2 UV-I 623 W/m 14,3 C 28,1 C 9,7 km/h (2 Bft) 92,45 %
03.06.2017 16:20 28,0 C 26,7 C 44 % 1010,5 hPa 0,0 l/m 1,5 km/h (1 Bft) O 96 2 min 0,000 mm 3,2 UV-I 640 W/m 14,6 C 28,0 C 3,2 km/h (1 Bft) 97,87 %
03.06.2017 16:22 28,2 C 26,7 C 44 % 1010,5 hPa 0,0 l/m 4,8 km/h (1 Bft) S-SO 167 2 min 0,000 mm 3,2 UV-I 652 W/m 14,8 C 28,2 C 11,3 km/h (2 Bft) 96,30 %
03.06.2017 16:24 28,2 C 26,7 C 44 % 1010,5 hPa 0,0 l/m 2,9 km/h (1 Bft) S 175 2 min 0,000 mm 3,1 UV-I 642 W/m 14,8 C 28,2 C 6,4 km/h (2 Bft) 95,52 %
03.06.2017 16:26 28,1 C 26,7 C 45 % 1010,4 hPa 0,0 l/m 5,0 km/h (1 Bft) O-SO 103 2 min 0,000 mm 3,1 UV-I 630 W/m 15,0 C 28,1 C 9,7 km/h (2 Bft) 94,00 %
03.06.2017 16:28 28,1 C 26,7 C 46 % 1010,4 hPa 0,0 l/m 6,4 km/h (2 Bft) O-NO 61 2 min 0,000 mm 3,0 UV-I 628 W/m 15,4 C 28,1 C 14,5 km/h (3 Bft) 100,00 %
03.06.2017 16:30 28,1 C 26,7 C 42 % 1010,3 hPa 0,0 l/m 7,5 km/h (2 Bft) O 79 2 min 0,000 mm 3,0 UV-I 626 W/m 14,0 C 27,9 C 14,5 km/h (3 Bft) 100,00 %
03.06.2017 16:32 28,1 C 26,7 C 46 % 1010,3 hPa 0,0 l/m 5,1 km/h (1 Bft) NO 53 2 min 0,000 mm 2,9 UV-I 619 W/m 15,4 C 28,1 C 8,0 km/h (2 Bft) 100,00 %
03.06.2017 16:34 28,2 C 26,7 C 45 % 1010,3 hPa 0,0 l/m 5,4 km/h (1 Bft) S-SO 150 2 min 0,000 mm 2,9 UV-I 611 W/m 15,1 C 28,2 C 12,9 km/h (3 Bft) 100,00 %
03.06.2017 16:36 28,1 C 26,7 C 43 % 1010,3 hPa 0,0 l/m 5,5 km/h (1 Bft) O-SO 111 2 min 0,000 mm 2,8 UV-I 603 W/m 14,3 C 28,1 C 11,3 km/h (2 Bft) 100,00 %
03.06.2017 16:38 28,0 C 26,7 C 47 % 1010,2 hPa 0,0 l/m 6,2 km/h (2 Bft) SO 135 2 min 0,000 mm 2,8 UV-I 592 W/m 15,6 C 28,0 C 12,9 km/h (3 Bft) 97,56 %
03.06.2017 16:40 28,0 C 26,7 C 45 % 1010,3 hPa 0,0 l/m 9,7 km/h (2 Bft) O-SO 117 2 min 0,000 mm 2,7 UV-I 593 W/m 14,9 C 27,5 C 12,9 km/h (3 Bft) 100,00 %
03.06.2017 16:42 28,1 C 26,7 C 46 % 1010,3 hPa 0,0 l/m 3,7 km/h (1 Bft) S-SO 155 2 min 0,000 mm 2,7 UV-I 589 W/m 15,4 C 28,1 C 9,7 km/h (2 Bft) 97,56 %
03.06.2017 16:44 28,1 C 26,7 C 44 % 1010,2 hPa 0,0 l/m 5,5 km/h (1 Bft) SO 145 2 min 0,000 mm 2,6 UV-I 579 W/m 14,7 C 28,1 C 14,5 km/h (3 Bft) 97,56 %
03.06.2017 16:46 28,1 C 26,7 C 46 % 1010,2 hPa 0,0 l/m 4,3 km/h (1 Bft) O-SO 109 2 min 0,000 mm 2,6 UV-I 571 W/m 15,4 C 28,1 C 9,7 km/h (2 Bft) 100,00 %
03.06.2017 16:48 27,9 C 26,7 C 45 % 1010,2 hPa 0,0 l/m 3,6 km/h (1 Bft) NO 51 2 min 0,000 mm 2,5 UV-I 566 W/m 14,8 C 27,9 C 4,8 km/h (1 Bft) 97,56 %
03.06.2017 16:50 27,9 C 26,7 C 46 % 1010,2 hPa 0,0 l/m 6,9 km/h (2 Bft) O-NO 78 2 min 0,000 mm 2,5 UV-I 559 W/m 15,2 C 27,8 C 9,7 km/h (2 Bft) 100,00 %
03.06.2017 16:52 28,0 C 26,7 C 46 % 1010,2 hPa 0,0 l/m 12,9 km/h (3 Bft) NO 46 2 min 0,000 mm 2,4 UV-I 554 W/m 15,3 C 27,1 C 17,7 km/h (3 Bft) 100,00 %
03.06.2017 16:54 28,1 C 26,7 C 45 % 1010,1 hPa 0,0 l/m 12,8 km/h (3 Bft) O-SO 111 2 min 0,000 mm 2,4 UV-I 548 W/m 15,0 C 27,3 C 20,9 km/h (4 Bft) 100,00 %
03.06.2017 16:56 27,9 C 26,7 C 44 % 1010,0 hPa 0,0 l/m 11,4 km/h (2 Bft) O-NO 69 2 min 0,000 mm 2,3 UV-I 539 W/m 14,5 C 27,2 C 17,7 km/h (3 Bft) 98,53 %
03.06.2017 16:58 28,0 C 26,7 C 46 % 1010,0 hPa 0,0 l/m 6,6 km/h (2 Bft) O-NO 63 2 min 0,000 mm 2,3 UV-I 536 W/m 15,3 C 28,0 C 9,7 km/h (2 Bft) 97,87 %
03.06.2017 17:00 27,9 C 26,7 C 46 % 1010,0 hPa 0,0 l/m 3,7 km/h (1 Bft) O-SO 115 2 min 0,457 mm 2,3 UV-I 540 W/m 15,2 C 27,9 C 6,4 km/h (2 Bft) 100,00 %
03.06.2017 17:02 27,9 C 26,7 C 48 % 1010,0 hPa 0,0 l/m 6,1 km/h (2 Bft) O-NO 65 2 min 0,000 mm 2,2 UV-I 522 W/m 15,9 C 27,9 C 9,7 km/h (2 Bft) 100,00 %
03.06.2017 17:04 27,9 C 26,7 C 46 % 1010,0 hPa 0,0 l/m 5,7 km/h (1 Bft) O 79 2 min 0,000 mm 2,2 UV-I 526 W/m 15,2 C 27,9 C 9,7 km/h (2 Bft) 98,00 %
03.06.2017 17:06 28,0 C 26,7 C 45 % 1009,9 hPa 0,0 l/m 7,8 km/h (2 Bft) O-NO 67 2 min 0,000 mm 2,2 UV-I 522 W/m 14,9 C 27,8 C 12,9 km/h (3 Bft) 100,00 %
03.06.2017 17:08 28,0 C 26,7 C 45 % 1009,9 hPa 0,0 l/m 7,7 km/h (2 Bft) O-NO 74 2 min 0,000 mm 2,1 UV-I 517 W/m 14,9 C 27,8 C 12,9 km/h (3 Bft) 100,00 %
03.06.2017 17:10 28,1 C 26,7 C 49 % 1009,9 hPa 0,0 l/m 7,2 km/h (2 Bft) O-SO 121 2 min 0,000 mm 2,1 UV-I 513 W/m 16,4 C 28,0 C 11,3 km/h (2 Bft) 94,87 %
03.06.2017 17:12 28,1 C 26,7 C 46 % 1009,9 hPa 0,0 l/m 11,5 km/h (2 Bft) O-SO 105 2 min 0,000 mm 2,0 UV-I 505 W/m 15,4 C 27,4 C 17,7 km/h (3 Bft) 98,18 %
03.06.2017 17:14 28,1 C 26,7 C 47 % 1009,9 hPa 0,0 l/m 10,5 km/h (2 Bft) O-NO 67 2 min 0,000 mm 2,0 UV-I 503 W/m 15,7 C 27,5 C 14,5 km/h (3 Bft) 97,62 %
03.06.2017 17:16 27,9 C 26,7 C 47 % 1009,8 hPa 0,0 l/m 7,2 km/h (2 Bft) NO 49 2 min 0,000 mm 1,9 UV-I 498 W/m 15,5 C 27,8 C 12,9 km/h (3 Bft) 97,56 %
03.06.2017 17:18 27,8 C 26,7 C 48 % 1009,8 hPa 0,0 l/m 6,6 km/h (2 Bft) O-NO 59 2 min 0,000 mm 1,9 UV-I 489 W/m 15,8 C 27,8 C 16,1 km/h (3 Bft) 96,00 %
03.06.2017 17:20 27,8 C 26,7 C 47 % 1009,7 hPa 0,0 l/m 10,7 km/h (2 Bft) O-NO 76 2 min 0,000 mm 1,9 UV-I 480 W/m 15,4 C 27,2 C 16,1 km/h (3 Bft) 96,00 %
03.06.2017 17:22 27,8 C 26,7 C 47 % 1009,7 hPa 0,0 l/m 12,1 km/h (2 Bft) NO 55 2 min 0,000 mm 1,8 UV-I 474 W/m 15,4 C 27,0 C 17,7 km/h (3 Bft) 96,23 %
03.06.2017 17:24 27,8 C 26,7 C 49 % 1009,7 hPa 0,0 l/m 7,9 km/h (2 Bft) NO 53 2 min 0,000 mm 1,8 UV-I 473 W/m 16,1 C 27,6 C 14,5 km/h (3 Bft) 91,30 %
03.06.2017 17:26 27,8 C 26,7 C 47 % 1009,7 hPa 0,0 l/m 9,5 km/h (2 Bft) O-NO 64 2 min 0,000 mm 1,7 UV-I 465 W/m 15,4 C 27,3 C 14,5 km/h (3 Bft) 98,59 %
03.06.2017 17:28 27,8 C 26,7 C 51 % 1009,7 hPa 0,0 l/m 6,6 km/h (2 Bft) NO 49 2 min 0,000 mm 1,7 UV-I 454 W/m 16,7 C 27,8 C 14,5 km/h (3 Bft) 95,12 %
03.06.2017 17:30 27,8 C 26,7 C 50 % 1009,7 hPa 0,0 l/m 11,0 km/h (2 Bft) NO 49 2 min 0,000 mm 1,6 UV-I 447 W/m 16,4 C 27,1 C 17,7 km/h (3 Bft) 96,23 %
03.06.2017 17:32 27,8 C 26,7 C 49 % 1009,7 hPa 0,0 l/m 9,5 km/h (2 Bft) O-NO 76 2 min 0,000 mm 1,6 UV-I 446 W/m 16,1 C 27,3 C 17,7 km/h (3 Bft) 97,37 %
03.06.2017 17:34 27,8 C 26,7 C 47 % 1009,6 hPa 0,0 l/m 11,4 km/h (2 Bft) O-NO 59 2 min 0,000 mm 1,6 UV-I 444 W/m 15,4 C 27,1 C 19,3 km/h (3 Bft) 96,23 %
03.06.2017 17:36 27,8 C 26,7 C 48 % 1009,5 hPa 0,0 l/m 15,0 km/h (3 Bft) O-NO 59 2 min 0,000 mm 1,5 UV-I 428 W/m 15,8 C 26,7 C 19,3 km/h (3 Bft) 97,56 %
03.06.2017 17:38 27,8 C 26,7 C 48 % 1009,5 hPa 0,0 l/m 14,1 km/h (3 Bft) O-NO 59 2 min 0,000 mm 1,5 UV-I 427 W/m 15,8 C 26,8 C 17,7 km/h (3 Bft) 100,00 %
03.06.2017 17:40 27,8 C 26,7 C 50 % 1009,5 hPa 0,0 l/m 13,4 km/h (3 Bft) O 91 2 min 0,000 mm 1,4 UV-I 424 W/m 16,4 C 26,9 C 19,3 km/h (3 Bft) 100,00 %
03.06.2017 17:42 27,8 C 26,7 C 48 % 1009,5 hPa 0,0 l/m 11,5 km/h (2 Bft) O-NO 72 2 min 0,000 mm 1,4 UV-I 422 W/m 15,8 C 27,1 C 17,7 km/h (3 Bft) 100,00 %
03.06.2017 17:44 27,8 C 26,7 C 49 % 1009,5 hPa 0,0 l/m 6,5 km/h (2 Bft) O-NO 61 2 min 0,000 mm 1,4 UV-I 429 W/m 16,1 C 27,8 C 12,9 km/h (3 Bft) 97,22 %
03.06.2017 17:46 28,0 C 26,7 C 50 % 1009,5 hPa 0,0 l/m 11,0 km/h (2 Bft) O 101 2 min 0,000 mm 1,3 UV-I 405 W/m 16,6 C 27,4 C 16,1 km/h (3 Bft) 96,55 %
03.06.2017 17:48 28,0 C 26,7 C 48 % 1009,5 hPa 0,0 l/m 11,1 km/h (2 Bft) NO 49 2 min 0,000 mm 1,3 UV-I 386 W/m 15,9 C 27,3 C 20,9 km/h (4 Bft) 100,00 %
03.06.2017 17:50 27,9 C 26,7 C 49 % 1009,5 hPa 0,0 l/m 12,7 km/h (3 Bft) NO 34 2 min 0,000 mm 1,3 UV-I 375 W/m 16,2 C 27,1 C 16,1 km/h (3 Bft) 100,00 %
03.06.2017 17:52 27,9 C 26,7 C 46 % 1009,5 hPa 0,0 l/m 14,8 km/h (3 Bft) O-NO 66 2 min 0,000 mm 1,2 UV-I 374 W/m 15,2 C 26,8 C 20,9 km/h (4 Bft) 100,00 %
03.06.2017 17:54 27,8 C 26,7 C 48 % 1009,5 hPa 0,0 l/m 11,1 km/h (2 Bft) O-NO 60 2 min 0,000 mm 1,2 UV-I 365 W/m 15,8 C 27,1 C 16,1 km/h (3 Bft) 100,00 %
03.06.2017 17:56 27,8 C 26,7 C 48 % 1009,4 hPa 0,0 l/m 11,7 km/h (2 Bft) O-NO 70 2 min 0,000 mm 1,2 UV-I 366 W/m 15,8 C 27,0 C 16,1 km/h (3 Bft) 100,00 %
03.06.2017 17:58 27,8 C 26,7 C 47 % 1009,4 hPa 0,0 l/m 11,2 km/h (2 Bft) O 94 2 min 0,000 mm 1,2 UV-I 360 W/m 15,4 C 27,1 C 16,1 km/h (3 Bft) 100,00 %
03.06.2017 18:00 27,7 C 26,7 C 46 % 1009,4 hPa 0,0 l/m 16,0 km/h (3 Bft) O 94 2 min 0,381 mm 1,1 UV-I 351 W/m 15,0 C 26,5 C 24,1 km/h (4 Bft) 100,00 %
03.06.2017 18:02 27,7 C 26,7 C 48 % 1009,4 hPa 0,0 l/m 11,2 km/h (2 Bft) O 87 2 min 0,000 mm 1,1 UV-I 349 W/m 15,7 C 27,0 C 17,7 km/h (3 Bft) 100,00 %
03.06.2017 18:04 27,7 C 26,7 C 49 % 1009,4 hPa 0,0 l/m 9,8 km/h (2 Bft) O-NO 73 2 min 0,000 mm 1,0 UV-I 339 W/m 16,0 C 27,2 C 16,1 km/h (3 Bft) 98,00 %
03.06.2017 18:06 27,7 C 26,7 C 50 % 1009,4 hPa 0,0 l/m 10,8 km/h (2 Bft) NO 56 2 min 0,000 mm 1,0 UV-I 310 W/m 16,3 C 27,0 C 17,7 km/h (3 Bft) 100,00 %
03.06.2017 18:08 27,7 C 26,7 C 47 % 1009,4 hPa 0,0 l/m 8,8 km/h (2 Bft) O-NO 67 2 min 0,000 mm 1,0 UV-I 311 W/m 15,3 C 27,3 C 12,9 km/h (3 Bft) 100,00 %
03.06.2017 18:10 27,6 C 26,7 C 47 % 1009,4 hPa 0,0 l/m 10,0 km/h (2 Bft) O 98 2 min 0,000 mm 0,9 UV-I 296 W/m 15,3 C 27,0 C 14,5 km/h (3 Bft) 98,11 %
03.06.2017 18:12 27,5 C 26,7 C 48 % 1009,4 hPa 0,0 l/m 9,0 km/h (2 Bft) O-NO 78 2 min 0,000 mm 0,9 UV-I 260 W/m 15,5 C 27,1 C 14,5 km/h (3 Bft) 97,73 %
03.06.2017 18:14 27,4 C 26,7 C 47 % 1009,3 hPa 0,0 l/m 10,8 km/h (2 Bft) NO 51 2 min 0,000 mm 0,9 UV-I 248 W/m 15,1 C 26,7 C 17,7 km/h (3 Bft) 100,00 %
03.06.2017 18:16 27,4 C 26,7 C 48 % 1009,4 hPa 0,0 l/m 11,0 km/h (2 Bft) O-NO 74 2 min 0,000 mm 0,8 UV-I 276 W/m 15,4 C 26,7 C 17,7 km/h (3 Bft) 94,74 %
03.06.2017 18:18 27,4 C 26,7 C 49 % 1009,3 hPa 0,0 l/m 12,9 km/h (3 Bft) O 82 2 min 0,000 mm 0,8 UV-I 269 W/m 15,7 C 26,4 C 19,3 km/h (3 Bft) 98,46 %
03.06.2017 18:20 27,3 C 26,7 C 49 % 1009,3 hPa 0,0 l/m 11,2 km/h (2 Bft) O-NO 61 2 min 0,000 mm 0,8 UV-I 245 W/m 15,6 C 26,5 C 14,5 km/h (3 Bft) 100,00 %
03.06.2017 18:22 27,3 C 26,7 C 48 % 1009,3 hPa 0,0 l/m 12,0 km/h (2 Bft) O-NO 69 2 min 0,000 mm 0,8 UV-I 259 W/m 15,3 C 26,4 C 17,7 km/h (3 Bft) 100,00 %
03.06.2017 18:24 27,3 C 26,7 C 49 % 1009,2 hPa 0,0 l/m 14,3 km/h (3 Bft) O-NO 59 2 min 0,000 mm 0,8 UV-I 252 W/m 15,6 C 26,2 C 19,3 km/h (3 Bft) 98,44 %
03.06.2017 18:26 27,2 C 26,7 C 48 % 1009,2 hPa 0,0 l/m 11,8 km/h (2 Bft) O 80 2 min 0,000 mm 0,7 UV-I 247 W/m 15,2 C 26,3 C 16,1 km/h (3 Bft) 97,56 %
03.06.2017 18:28 27,2 C 26,7 C 47 % 1009,1 hPa 0,0 l/m 12,2 km/h (2 Bft) O-NO 69 2 min 0,000 mm 0,7 UV-I 248 W/m 14,9 C 26,3 C 17,7 km/h (3 Bft) 100,00 %
03.06.2017 18:30 27,2 C 26,7 C 49 % 1009,2 hPa 0,0 l/m 13,7 km/h (3 Bft) O-NO 73 2 min 0,000 mm 0,7 UV-I 239 W/m 15,5 C 26,1 C 17,7 km/h (3 Bft) 100,00 %
03.06.2017 18:32 27,1 C 27,2 C 48 % 1009,2 hPa 0,0 l/m 12,8 km/h (3 Bft) O-NO 63 2 min 0,000 mm 0,7 UV-I 243 W/m 15,1 C 26,1 C 17,7 km/h (3 Bft) 97,87 %
03.06.2017 18:34 27,1 C 26,7 C 49 % 1009,1 hPa 0,0 l/m 11,7 km/h (2 Bft) O-NO 76 2 min 0,000 mm 0,7 UV-I 238 W/m 15,4 C 26,2 C 16,1 km/h (3 Bft) 98,00 %
03.06.2017 18:36 27,1 C 26,7 C 50 % 1009,0 hPa 0,0 l/m 9,5 km/h (2 Bft) O-NO 68 2 min 0,000 mm 0,6 UV-I 223 W/m 15,8 C 26,6 C 12,9 km/h (3 Bft) 100,00 %
03.06.2017 18:38 27,1 C 26,7 C 49 % 1009,1 hPa 0,0 l/m 10,6 km/h (2 Bft) O 80 2 min 0,000 mm 0,6 UV-I 220 W/m 15,4 C 26,4 C 16,1 km/h (3 Bft) 100,00 %
03.06.2017 18:40 27,1 C 26,7 C 50 % 1009,0 hPa 0,0 l/m 9,4 km/h (2 Bft) O 84 2 min 0,000 mm 0,6 UV-I 237 W/m 15,8 C 26,6 C 12,9 km/h (3 Bft) 96,23 %
03.06.2017 18:42 27,1 C 26,7 C 49 % 1009,0 hPa 0,0 l/m 11,5 km/h (2 Bft) O 89 2 min 0,000 mm 0,6 UV-I 234 W/m 15,4 C 26,3 C 16,1 km/h (3 Bft) 100,00 %
03.06.2017 18:44 27,1 C 26,7 C 50 % 1009,0 hPa 0,0 l/m 10,5 km/h (2 Bft) O-NO 57 2 min 0,000 mm 0,6 UV-I 223 W/m 15,8 C 26,4 C 17,7 km/h (3 Bft) 100,00 %
03.06.2017 18:46 27,1 C 26,7 C 48 % 1009,0 hPa 0,0 l/m 13,8 km/h (3 Bft) O-NO 59 2 min 0,000 mm 0,5 UV-I 209 W/m 15,1 C 26,0 C 17,7 km/h (3 Bft) 97,56 %
03.06.2017 18:48 27,0 C 26,7 C 49 % 1009,0 hPa 0,0 l/m 10,4 km/h (2 Bft) O 79 2 min 0,000 mm 0,5 UV-I 202 W/m 15,4 C 26,3 C 14,5 km/h (3 Bft) 100,00 %
03.06.2017 18:50 26,9 C 26,7 C 50 % 1008,9 hPa 0,0 l/m 11,3 km/h (2 Bft) O-NO 67 2 min 0,000 mm 0,5 UV-I 205 W/m 15,6 C 26,1 C 16,1 km/h (3 Bft) 98,11 %
03.06.2017 18:52 26,9 C 27,2 C 50 % 1008,9 hPa 0,0 l/m 11,3 km/h (2 Bft) O-NO 69 2 min 0,000 mm 0,5 UV-I 209 W/m 15,6 C 26,1 C 16,1 km/h (3 Bft) 100,00 %
03.06.2017 18:54 26,9 C 27,2 C 51 % 1008,9 hPa 0,0 l/m 10,8 km/h (2 Bft) O-NO 71 2 min 0,000 mm 0,5 UV-I 214 W/m 15,9 C 26,1 C 14,5 km/h (3 Bft) 100,00 %
03.06.2017 18:56 26,9 C 27,2 C 52 % 1008,9 hPa 0,0 l/m 6,5 km/h (2 Bft) O 94 2 min 0,000 mm 0,5 UV-I 214 W/m 16,2 C 26,9 C 11,3 km/h (2 Bft) 97,56 %
03.06.2017 18:58 26,9 C 27,2 C 51 % 1008,9 hPa 0,0 l/m 8,7 km/h (2 Bft) O-NO 69 2 min 0,000 mm 0,1 UV-I 210 W/m 15,9 C 26,5 C 16,1 km/h (3 Bft) 96,00 %
03.06.2017 19:00 26,9 C 26,7 C 51 % 1008,9 hPa 0,0 l/m 10,5 km/h (2 Bft) O 87 2 min 0,254 mm 0,0 UV-I 207 W/m 15,9 C 26,2 C 16,1 km/h (3 Bft) 95,74 %
03.06.2017 19:02 26,9 C 27,2 C 51 % 1008,9 hPa 0,0 l/m 11,5 km/h (2 Bft) O-NO 74 2 min 0,000 mm 0,0 UV-I 205 W/m 15,9 C 26,0 C 17,7 km/h (3 Bft) 93,62 %
03.06.2017 19:04 26,9 C 26,7 C 51 % 1008,9 hPa 0,0 l/m 11,6 km/h (2 Bft) O-SO 103 2 min 0,000 mm 0,0 UV-I 192 W/m 15,9 C 26,0 C 16,1 km/h (3 Bft) 91,67 %
03.06.2017 19:06 26,9 C 27,2 C 51 % 1008,8 hPa 0,0 l/m 12,2 km/h (2 Bft) NO 51 2 min 0,000 mm 0,0 UV-I 173 W/m 15,9 C 25,9 C 16,1 km/h (3 Bft) 94,55 %
03.06.2017 19:08 26,9 C 26,7 C 51 % 1008,8 hPa 0,0 l/m 12,9 km/h (3 Bft) O-NO 72 2 min 0,000 mm 0,0 UV-I 153 W/m 15,9 C 25,9 C 16,1 km/h (3 Bft) 92,86 %
03.06.2017 19:10 26,8 C 27,2 C 51 % 1008,8 hPa 0,0 l/m 14,6 km/h (3 Bft) O-NO 71 0 min 0,000 mm 0,0 UV-I 138 W/m 15,8 C 25,5 C 19,3 km/h (3 Bft) 92,45 %
03.06.2017 19:12 26,7 C 27,2 C 50 % 1008,7 hPa 0,0 l/m 17,9 km/h (3 Bft) O 84 0 min 0,000 mm 0,0 UV-I 129 W/m 15,4 C 25,1 C 22,5 km/h (4 Bft) 92,68 %
03.06.2017 19:14 26,6 C 27,2 C 52 % 1008,7 hPa 0,0 l/m 12,6 km/h (3 Bft) O 82 0 min 0,000 mm 0,0 UV-I 107 W/m 15,9 C 25,5 C 17,7 km/h (3 Bft) 95,74 %
03.06.2017 19:16 26,4 C 26,7 C 53 % 1008,7 hPa 0,0 l/m 10,8 km/h (2 Bft) NO 56 0 min 0,000 mm 0,0 UV-I 95 W/m 16,0 C 25,6 C 16,1 km/h (3 Bft) 90,00 %
03.06.2017 19:18 26,2 C 27,2 C 53 % 1008,7 hPa 0,0 l/m 15,7 km/h (3 Bft) O-NO 77 0 min 0,000 mm 0,0 UV-I 83 W/m 15,8 C 24,7 C 20,9 km/h (4 Bft) 92,00 %
03.06.2017 19:20 26,1 C 27,2 C 54 % 1008,7 hPa 0,0 l/m 14,1 km/h (3 Bft) O-NO 67 0 min 0,000 mm 0,0 UV-I 78 W/m 16,0 C 24,8 C 19,3 km/h (3 Bft) 92,11 %
03.06.2017 19:22 25,9 C 27,2 C 53 % 1008,6 hPa 0,0 l/m 10,4 km/h (2 Bft) O 82 0 min 0,000 mm 0,0 UV-I 77 W/m 15,6 C 25,1 C 17,7 km/h (3 Bft) 98,21 %
03.06.2017 19:24 25,8 C 27,2 C 54 % 1008,6 hPa 0,0 l/m 14,4 km/h (3 Bft) O-NO 76 0 min 0,000 mm 0,0 UV-I 71 W/m 15,8 C 24,4 C 19,3 km/h (3 Bft) 94,00 %
03.06.2017 19:26 25,8 C 27,2 C 53 % 1008,5 hPa 0,0 l/m 13,7 km/h (3 Bft) O 82 0 min 0,000 mm 0,0 UV-I 70 W/m 15,5 C 24,5 C 17,7 km/h (3 Bft) 95,45 %
03.06.2017 19:28 25,7 C 27,2 C 54 % 1008,6 hPa 0,0 l/m 13,0 km/h (3 Bft) O-NO 59 0 min 0,000 mm 0,0 UV-I 68 W/m 15,7 C 24,4 C 19,3 km/h (3 Bft) 95,74 %
03.06.2017 19:30 25,6 C 27,2 C 54 % 1008,5 hPa 0,0 l/m 12,4 km/h (3 Bft) O-NO 71 0 min 0,000 mm 0,0 UV-I 63 W/m 15,6 C 24,4 C 19,3 km/h (3 Bft) 92,11 %
03.06.2017 19:32 25,4 C 26,7 C 55 % 1008,5 hPa 0,0 l/m 12,5 km/h (3 Bft) O 89 0 min 0,000 mm 0,0 UV-I 60 W/m 15,7 C 24,2 C 16,1 km/h (3 Bft) 96,23 %
03.06.2017 19:34 25,3 C 26,7 C 55 % 1008,5 hPa 0,0 l/m 12,1 km/h (2 Bft) O-NO 77 0 min 0,000 mm 0,0 UV-I 56 W/m 15,6 C 24,1 C 17,7 km/h (3 Bft) 97,56 %
03.06.2017 19:36 25,2 C 26,7 C 55 % 1008,5 hPa 0,0 l/m 11,4 km/h (2 Bft) O 82 0 min 0,000 mm 0,0 UV-I 54 W/m 15,5 C 24,1 C 14,5 km/h (3 Bft) 93,62 %
03.06.2017 19:38 25,2 C 26,7 C 55 % 1008,5 hPa 0,0 l/m 11,6 km/h (2 Bft) O-NO 69 0 min 0,000 mm 0,0 UV-I 54 W/m 15,5 C 24,1 C 17,7 km/h (3 Bft) 94,00 %
03.06.2017 19:40 25,1 C 26,7 C 55 % 1008,6 hPa 0,0 l/m 11,1 km/h (2 Bft) O-NO 77 0 min 0,000 mm 0,0 UV-I 51 W/m 15,4 C 24,1 C 17,7 km/h (3 Bft) 96,23 %
03.06.2017 19:42 25,1 C 26,7 C 55 % 1008,6 hPa 0,0 l/m 8,8 km/h (2 Bft) O 90 0 min 0,000 mm 0,0 UV-I 49 W/m 15,4 C 24,5 C 16,1 km/h (3 Bft) 95,12 %
03.06.2017 19:44 25,0 C 26,7 C 56 % 1008,6 hPa 0,0 l/m 10,6 km/h (2 Bft) O 80 0 min 0,000 mm 0,0 UV-I 49 W/m 15,6 C 24,0 C 17,7 km/h (3 Bft) 96,23 %
03.06.2017 19:46 24,9 C 26,7 C 56 % 1008,6 hPa 0,0 l/m 9,5 km/h (2 Bft) O-NO 71 0 min 0,000 mm 0,0 UV-I 49 W/m 15,5 C 24,2 C 17,7 km/h (3 Bft) 95,12 %
03.06.2017 19:48 24,9 C 26,7 C 56 % 1008,6 hPa 0,0 l/m 9,8 km/h (2 Bft) O-NO 68 0 min 0,000 mm 0,0 UV-I 48 W/m 15,5 C 24,1 C 16,1 km/h (3 Bft) 91,11 %
03.06.2017 19:50 24,8 C 26,7 C 57 % 1008,6 hPa 0,0 l/m 8,8 km/h (2 Bft) O-NO 68 0 min 0,000 mm 0,0 UV-I 47 W/m 15,7 C 24,2 C 12,9 km/h (3 Bft) 96,36 %
03.06.2017 19:52 24,8 C 27,2 C 57 % 1008,6 hPa 0,0 l/m 8,8 km/h (2 Bft) O-NO 71 0 min 0,000 mm 0,0 UV-I 46 W/m 15,7 C 24,2 C 14,5 km/h (3 Bft) 97,44 %
03.06.2017 19:54 24,7 C 27,2 C 57 % 1008,6 hPa 0,0 l/m 10,1 km/h (2 Bft) O 80 0 min 0,000 mm 0,0 UV-I 46 W/m 15,6 C 23,8 C 12,9 km/h (3 Bft) 97,56 %
03.06.2017 19:56 24,7 C 27,2 C 58 % 1008,6 hPa 0,0 l/m 9,0 km/h (2 Bft) O-NO 67 0 min 0,000 mm 0,0 UV-I 44 W/m 15,9 C 24,0 C 12,9 km/h (3 Bft) 93,62 %
03.06.2017 19:58 24,6 C 27,2 C 58 % 1008,6 hPa 0,0 l/m 8,6 km/h (2 Bft) O-NO 70 0 min 0,000 mm 0,0 UV-I 44 W/m 15,8 C 24,0 C 12,9 km/h (3 Bft) 92,86 %
03.06.2017 20:00 24,6 C 27,2 C 58 % 1008,6 hPa 0,0 l/m 9,8 km/h (2 Bft) NO 55 0 min 0,153 mm 0,0 UV-I 44 W/m 15,8 C 23,8 C 14,5 km/h (3 Bft) 97,37 %
03.06.2017 20:02 24,5 C 27,2 C 58 % 1008,6 hPa 0,0 l/m 9,3 km/h (2 Bft) O-NO 77 0 min 0,000 mm 0,0 UV-I 42 W/m 15,7 C 23,8 C 16,1 km/h (3 Bft) 94,00 %
03.06.2017 20:04 24,4 C 27,2 C 58 % 1008,6 hPa 0,0 l/m 8,7 km/h (2 Bft) O 89 0 min 0,000 mm 0,0 UV-I 40 W/m 15,6 C 23,8 C 12,9 km/h (3 Bft) 93,62 %
03.06.2017 20:06 24,4 C 27,2 C 58 % 1008,6 hPa 0,0 l/m 8,0 km/h (2 Bft) O 86 0 min 0,000 mm 0,0 UV-I 39 W/m 15,6 C 24,0 C 12,9 km/h (3 Bft) 92,86 %
03.06.2017 20:08 24,3 C 27,2 C 59 % 1008,6 hPa 0,0 l/m 8,3 km/h (2 Bft) O-NO 69 0 min 0,000 mm 0,0 UV-I 39 W/m 15,8 C 23,8 C 11,3 km/h (2 Bft) 97,37 %
03.06.2017 20:10 24,3 C 27,2 C 59 % 1008,6 hPa 0,0 l/m 6,3 km/h (2 Bft) O 83 0 min 0,000 mm 0,0 UV-I 37 W/m 15,8 C 24,3 C 11,3 km/h (2 Bft) 100,00 %
03.06.2017 20:12 24,2 C 27,2 C 60 % 1008,6 hPa 0,0 l/m 6,2 km/h (2 Bft) O-NO 74 0 min 0,000 mm 0,0 UV-I 36 W/m 15,9 C 24,2 C 9,7 km/h (2 Bft) 100,00 %
03.06.2017 20:14 24,1 C 27,2 C 60 % 1008,6 hPa 0,0 l/m 7,2 km/h (2 Bft) O-NO 63 0 min 0,000 mm 0,0 UV-I 35 W/m 15,8 C 23,9 C 12,9 km/h (3 Bft) 100,00 %
03.06.2017 20:16 24,0 C 27,2 C 61 % 1008,6 hPa 0,0 l/m 5,8 km/h (2 Bft) O-NO 74 0 min 0,000 mm 0,0 UV-I 33 W/m 16,0 C 24,0 C 9,7 km/h (2 Bft) 98,00 %
03.06.2017 20:18 23,9 C 27,2 C 61 % 1008,6 hPa 0,0 l/m 6,5 km/h (2 Bft) O 81 0 min 0,000 mm 0,0 UV-I 32 W/m 15,9 C 23,9 C 11,3 km/h (2 Bft) 100,00 %
03.06.2017 20:20 23,8 C 27,2 C 61 % 1008,5 hPa 0,0 l/m 5,0 km/h (1 Bft) O-NO 68 0 min 0,000 mm 0,0 UV-I 30 W/m 15,8 C 23,8 C 8,0 km/h (2 Bft) 100,00 %
03.06.2017 20:22 23,8 C 27,2 C 62 % 1008,6 hPa 0,0 l/m 5,9 km/h (2 Bft) O-NO 66 0 min 0,000 mm 0,0 UV-I 29 W/m 16,1 C 23,8 C 8,0 km/h (2 Bft) 94,64 %
03.06.2017 20:24 23,7 C 27,2 C 62 % 1008,6 hPa 0,0 l/m 5,2 km/h (1 Bft) O-NO 65 0 min 0,000 mm 0,0 UV-I 27 W/m 16,0 C 23,7 C 8,0 km/h (2 Bft) 95,45 %
03.06.2017 20:26 23,7 C 27,2 C 62 % 1008,6 hPa 0,0 l/m 4,9 km/h (1 Bft) O-NO 68 0 min 0,000 mm 0,0 UV-I 25 W/m 16,0 C 23,7 C 6,4 km/h (2 Bft) 97,62 %
03.06.2017 20:28 23,6 C 27,2 C 62 % 1008,6 hPa 0,0 l/m 5,9 km/h (2 Bft) O 79 0 min 0,000 mm 0,0 UV-I 25 W/m 15,9 C 23,6 C 9,7 km/h (2 Bft) 100,00 %
03.06.2017 20:30 23,6 C 27,2 C 62 % 1008,5 hPa 0,0 l/m 5,3 km/h (1 Bft) O-NO 72 0 min 0,000 mm 0,0 UV-I 23 W/m 15,9 C 23,6 C 8,0 km/h (2 Bft) 100,00 %
03.06.2017 20:32 23,5 C 27,2 C 63 % 1008,6 hPa 0,0 l/m 6,0 km/h (2 Bft) O-NO 76 0 min 0,000 mm 0,0 UV-I 21 W/m 16,0 C 23,5 C 11,3 km/h (2 Bft) 100,00 %
03.06.2017 20:34 23,4 C 27,2 C 63 % 1008,5 hPa 0,0 l/m 6,9 km/h (2 Bft) O-NO 68 0 min 0,000 mm 0,0 UV-I 21 W/m 15,9 C 23,3 C 11,3 km/h (2 Bft) 98,59 %
03.06.2017 20:36 23,3 C 27,2 C 63 % 1008,5 hPa 0,0 l/m 6,1 km/h (2 Bft) O 79 0 min 0,000 mm 0,0 UV-I 20 W/m 15,9 C 23,3 C 9,7 km/h (2 Bft) 100,00 %
03.06.2017 20:38 23,3 C 27,2 C 63 % 1008,5 hPa 0,0 l/m 5,6 km/h (1 Bft) O-NO 68 2 min 0,000 mm 0,0 UV-I 19 W/m 15,9 C 23,3 C 8,0 km/h (2 Bft) 98,11 %
03.06.2017 20:40 23,3 C 27,2 C 63 % 1008,5 hPa 0,0 l/m 6,1 km/h (2 Bft) O-NO 67 2 min 0,000 mm 0,0 UV-I 18 W/m 15,9 C 23,3 C 8,0 km/h (2 Bft) 98,00 %
03.06.2017 20:42 23,2 C 27,2 C 64 % 1008,5 hPa 0,0 l/m 4,6 km/h (1 Bft) O-NO 74 2 min 0,000 mm 0,0 UV-I 16 W/m 16,0 C 23,2 C 6,4 km/h (2 Bft) 100,00 %
03.06.2017 20:44 23,2 C 27,2 C 64 % 1008,5 hPa 0,0 l/m 6,4 km/h (2 Bft) O 82 2 min 0,000 mm 0,0 UV-I 15 W/m 16,0 C 23,2 C 11,3 km/h (2 Bft) 97,87 %
03.06.2017 20:46 23,1 C 27,2 C 64 % 1008,4 hPa 0,0 l/m 5,8 km/h (2 Bft) O-NO 69 0 min 0,000 mm 0,0 UV-I 13 W/m 15,9 C 23,1 C 8,0 km/h (2 Bft) 98,11 %
03.06.2017 20:48 23,1 C 27,2 C 64 % 1008,4 hPa 0,0 l/m 6,1 km/h (2 Bft) O-NO 74 0 min 0,000 mm 0,0 UV-I 12 W/m 15,9 C 23,1 C 8,0 km/h (2 Bft) 97,87 %
03.06.2017 20:50 22,9 C 27,2 C 64 % 1008,4 hPa 0,0 l/m 4,1 km/h (1 Bft) O-NO 71 0 min 0,000 mm 0,0 UV-I 11 W/m 15,7 C 22,9 C 6,4 km/h (2 Bft) 97,14 %
03.06.2017 20:52 22,9 C 27,2 C 65 % 1008,4 hPa 0,0 l/m 5,1 km/h (1 Bft) O-NO 66 0 min 0,000 mm 0,0 UV-I 10 W/m 16,0 C 22,9 C 8,0 km/h (2 Bft) 96,23 %
03.06.2017 20:54 22,8 C 27,2 C 65 % 1008,3 hPa 0,0 l/m 4,8 km/h (1 Bft) O-NO 67 0 min 0,000 mm 0,0 UV-I 8 W/m 15,9 C 22,8 C 8,0 km/h (2 Bft) 98,00 %
03.06.2017 20:56 22,8 C 27,2 C 65 % 1008,3 hPa 0,0 l/m 4,8 km/h (1 Bft) NO 55 0 min 0,000 mm 0,0 UV-I 7 W/m 15,9 C 22,8 C 8,0 km/h (2 Bft) 94,00 %
03.06.2017 20:58 22,7 C 27,2 C 65 % 1008,4 hPa 0,0 l/m 5,3 km/h (1 Bft) O-NO 59 0 min 0,000 mm 0,0 UV-I 7 W/m 15,8 C 22,7 C 8,0 km/h (2 Bft) 97,73 %
03.06.2017 21:00 22,7 C 27,2 C 65 % 1008,4 hPa 0,0 l/m 3,7 km/h (1 Bft) O-NO 68 0 min 0,050 mm 0,0 UV-I 5 W/m 15,8 C 22,7 C 8,0 km/h (2 Bft) 96,00 %
03.06.2017 21:02 22,6 C 27,2 C 66 % 1008,4 hPa 0,0 l/m 3,6 km/h (1 Bft) O 84 0 min 0,000 mm 0,0 UV-I 5 W/m 15,9 C 22,6 C 6,4 km/h (2 Bft) 100,00 %
03.06.2017 21:04 22,6 C 27,2 C 65 % 1008,4 hPa 0,0 l/m 5,9 km/h (2 Bft) O-NO 67 0 min 0,000 mm 0,0 UV-I 5 W/m 15,7 C 22,6 C 9,7 km/h (2 Bft) 94,29 %
03.06.2017 21:06 22,6 C 27,2 C 65 % 1008,4 hPa 0,0 l/m 4,8 km/h (1 Bft) O-NO 61 0 min 0,000 mm 0,0 UV-I 5 W/m 15,7 C 22,6 C 6,4 km/h (2 Bft) 97,92 %
03.06.2017 21:09 22,5 C 27,2 C 65 % 1008,4 hPa 0,0 l/m 4,3 km/h (1 Bft) O-NO 61 0 min 0,000 mm 0,0 UV-I 4 W/m 15,6 C 22,5 C 8,0 km/h (2 Bft) 95,52 %
03.06.2017 21:10 22,5 C 27,2 C 65 % 1008,4 hPa 0,0 l/m 4,2 km/h (1 Bft) O-NO 62 0 min 0,000 mm 0,0 UV-I 0 W/m 15,6 C 22,5 C 6,4 km/h (2 Bft) 100,00 %
03.06.2017 21:12 22,4 C 27,2 C 65 % 1008,4 hPa 0,0 l/m 5,3 km/h (1 Bft) O-NO 76 0 min 0,000 mm 0,0 UV-I 0 W/m 15,5 C 22,4 C 11,3 km/h (2 Bft) 95,74 %
03.06.2017 21:14 22,4 C 27,2 C 65 % 1008,4 hPa 0,0 l/m 5,9 km/h (2 Bft) O-NO 67 0 min 0,000 mm 0,0 UV-I 0 W/m 15,5 C 22,4 C 8,0 km/h (2 Bft) 97,56 %
03.06.2017 21:16 22,4 C 27,2 C 65 % 1008,4 hPa 0,0 l/m 6,0 km/h (2 Bft) O-NO 69 0 min 0,000 mm 0,0 UV-I 0 W/m 15,5 C 22,4 C 9,7 km/h (2 Bft) 96,00 %
03.06.2017 21:18 22,4 C 27,2 C 65 % 1008,4 hPa 0,0 l/m 7,5 km/h (2 Bft) O-NO 60 0 min 0,000 mm 0,0 UV-I 0 W/m 15,5 C 22,0 C 11,3 km/h (2 Bft) 97,56 %
03.06.2017 21:20 22,4 C 27,2 C 64 % 1008,5 hPa 0,0 l/m 6,3 km/h (2 Bft) O-NO 66 0 min 0,000 mm 0,0 UV-I 0 W/m 15,2 C 22,4 C 11,3 km/h (2 Bft) 96,23 %
03.06.2017 21:22 22,4 C 27,2 C 64 % 1008,5 hPa 0,0 l/m 6,7 km/h (2 Bft) O-NO 68 0 min 0,000 mm 0,0 UV-I 0 W/m 15,2 C 22,3 C 9,7 km/h (2 Bft) 95,12 %
03.06.2017 21:24 22,4 C 27,2 C 65 % 1008,5 hPa 0,0 l/m 7,1 km/h (2 Bft) O-NO 69 0 min 0,000 mm 0,0 UV-I 0 W/m 15,5 C 22,2 C 9,7 km/h (2 Bft) 96,00 %
03.06.2017 21:26 22,4 C 27,2 C 64 % 1008,5 hPa 0,0 l/m 6,2 km/h (2 Bft) O 83 0 min 0,000 mm 0,0 UV-I 0 W/m 15,2 C 22,4 C 9,7 km/h (2 Bft) 98,00 %
03.06.2017 21:28 22,4 C 27,2 C 64 % 1008,5 hPa 0,0 l/m 7,1 km/h (2 Bft) O-NO 65 0 min 0,000 mm 0,0 UV-I 0 W/m 15,2 C 22,2 C 9,7 km/h (2 Bft) 97,87 %
03.06.2017 21:30 22,4 C 27,2 C 64 % 1008,5 hPa 0,0 l/m 6,7 km/h (2 Bft) O-NO 65 0 min 0,000 mm 0,0 UV-I 0 W/m 15,2 C 22,3 C 11,3 km/h (2 Bft) 100,00 %
03.06.2017 21:32 22,4 C 27,2 C 64 % 1008,5 hPa 0,0 l/m 5,6 km/h (1 Bft) O-NO 71 0 min 0,000 mm 0,0 UV-I 0 W/m 15,2 C 22,4 C 11,3 km/h (2 Bft) 97,14 %
03.06.2017 21:34 22,4 C 27,2 C 64 % 1008,5 hPa 0,0 l/m 5,4 km/h (1 Bft) O-NO 66 0 min 0,000 mm 0,0 UV-I 0 W/m 15,2 C 22,4 C 11,3 km/h (2 Bft) 100,00 %
03.06.2017 21:36 22,3 C 27,2 C 65 % 1008,5 hPa 0,0 l/m 6,1 km/h (2 Bft) O-NO 57 0 min 0,000 mm 0,0 UV-I 0 W/m 15,4 C 22,3 C 9,7 km/h (2 Bft) 98,00 %
03.06.2017 21:38 22,3 C 27,2 C 65 % 1008,5 hPa 0,0 l/m 5,8 km/h (2 Bft) O-NO 73 0 min 0,000 mm 0,0 UV-I 0 W/m 15,4 C 22,3 C 8,0 km/h (2 Bft) 100,00 %
03.06.2017 21:40 22,2 C 27,2 C 65 % 1008,5 hPa 0,0 l/m 6,3 km/h (2 Bft) O-NO 65 0 min 0,000 mm 0,0 UV-I 0 W/m 15,3 C 22,2 C 11,3 km/h (2 Bft) 97,87 %
03.06.2017 21:42 22,2 C 27,2 C 65 % 1008,5 hPa 0,0 l/m 7,6 km/h (2 Bft) O 83 0 min 0,000 mm 0,0 UV-I 0 W/m 15,3 C 21,8 C 12,9 km/h (3 Bft) 98,11 %
03.06.2017 21:44 22,2 C 27,2 C 65 % 1008,5 hPa 0,0 l/m 6,9 km/h (2 Bft) O 80 0 min 0,000 mm 0,0 UV-I 0 W/m 15,3 C 22,0 C 12,9 km/h (3 Bft) 100,00 %
03.06.2017 21:46 22,2 C 27,2 C 65 % 1008,4 hPa 0,0 l/m 9,9 km/h (2 Bft) O-NO 60 0 min 0,000 mm 0,0 UV-I 0 W/m 15,3 C 21,1 C 16,1 km/h (3 Bft) 94,87 %
03.06.2017 21:48 22,2 C 27,2 C 64 % 1008,5 hPa 0,0 l/m 9,3 km/h (2 Bft) O-NO 61 0 min 0,000 mm 0,0 UV-I 0 W/m 15,1 C 21,3 C 17,7 km/h (3 Bft) 100,00 %
03.06.2017 21:50 22,2 C 27,2 C 65 % 1008,4 hPa 0,0 l/m 7,9 km/h (2 Bft) O-NO 71 0 min 0,000 mm 0,0 UV-I 0 W/m 15,3 C 21,7 C 12,9 km/h (3 Bft) 94,74 %
03.06.2017 21:52 22,2 C 27,2 C 64 % 1008,4 hPa 0,0 l/m 9,6 km/h (2 Bft) O-NO 78 0 min 0,000 mm 0,0 UV-I 0 W/m 15,1 C 21,2 C 16,1 km/h (3 Bft) 98,00 %
03.06.2017 21:54 22,3 C 27,2 C 64 % 1008,4 hPa 0,0 l/m 9,7 km/h (2 Bft) O-NO 76 0 min 0,000 mm 0,0 UV-I 0 W/m 15,2 C 21,3 C 12,9 km/h (3 Bft) 100,00 %
03.06.2017 21:56 22,2 C 27,2 C 64 % 1008,4 hPa 0,0 l/m 8,6 km/h (2 Bft) O-NO 66 0 min 0,000 mm 0,0 UV-I 0 W/m 15,1 C 21,5 C 12,9 km/h (3 Bft) 100,00 %
03.06.2017 21:58 22,3 C 27,2 C 64 % 1008,4 hPa 0,0 l/m 8,4 km/h (2 Bft) O-NO 67 0 min 0,000 mm 0,0 UV-I 0 W/m 15,2 C 21,6 C 11,3 km/h (2 Bft) 100,00 %
03.06.2017 22:00 22,2 C 27,2 C 64 % 1008,4 hPa 0,0 l/m 9,5 km/h (2 Bft) O-NO 73 0 min 0,051 mm 0,0 UV-I 0 W/m 15,1 C 21,2 C 12,9 km/h (3 Bft) 97,37 %
03.06.2017 22:02 22,2 C 27,2 C 65 % 1008,4 hPa 0,0 l/m 7,4 km/h (2 Bft) O-NO 68 0 min 0,000 mm 0,0 UV-I 0 W/m 15,3 C 21,9 C 11,3 km/h (2 Bft) 98,11 %
03.06.2017 22:04 22,1 C 27,2 C 65 % 1008,4 hPa 0,0 l/m 7,6 km/h (2 Bft) O-NO 66 0 min 0,000 mm 0,0 UV-I 0 W/m 15,2 C 21,7 C 12,9 km/h (3 Bft) 98,11 %
03.06.2017 22:06 22,0 C 27,2 C 65 % 1008,3 hPa 0,0 l/m 8,1 km/h (2 Bft) O-NO 75 0 min 0,000 mm 0,0 UV-I 0 W/m 15,1 C 21,4 C 11,3 km/h (2 Bft) 100,00 %
03.06.2017 22:08 21,9 C 27,2 C 65 % 1008,3 hPa 0,0 l/m 9,2 km/h (2 Bft) O-NO 73 0 min 0,000 mm 0,0 UV-I 0 W/m 15,0 C 21,0 C 12,9 km/h (3 Bft) 97,73 %
03.06.2017 22:10 21,9 C 27,2 C 65 % 1008,3 hPa 0,0 l/m 9,5 km/h (2 Bft) O-NO 78 0 min 0,000 mm 0,0 UV-I 0 W/m 15,0 C 20,9 C 14,5 km/h (3 Bft) 100,00 %
03.06.2017 22:12 21,9 C 27,2 C 65 % 1008,3 hPa 0,0 l/m 6,7 km/h (2 Bft) O-NO 76 0 min 0,000 mm 0,0 UV-I 0 W/m 15,0 C 21,8 C 11,3 km/h (2 Bft) 96,23 %
03.06.2017 22:14 21,8 C 27,2 C 66 % 1008,3 hPa 0,0 l/m 7,8 km/h (2 Bft) O-NO 74 0 min 0,000 mm 0,0 UV-I 0 W/m 15,2 C 21,3 C 12,9 km/h (3 Bft) 98,00 %
03.06.2017 22:16 21,8 C 27,2 C 66 % 1008,3 hPa 0,0 l/m 9,5 km/h (2 Bft) O-NO 74 0 min 0,000 mm 0,0 UV-I 0 W/m 15,2 C 20,8 C 14,5 km/h (3 Bft) 100,00 %
03.06.2017 22:18 21,8 C 27,2 C 66 % 1008,3 hPa 0,0 l/m 10,3 km/h (2 Bft) O-NO 65 0 min 0,000 mm 0,0 UV-I 0 W/m 15,2 C 20,5 C 14,5 km/h (3 Bft) 98,00 %
03.06.2017 22:20 21,8 C 27,2 C 66 % 1008,3 hPa 0,0 l/m 7,6 km/h (2 Bft) O 80 0 min 0,000 mm 0,0 UV-I 0 W/m 15,2 C 21,4 C 11,3 km/h (2 Bft) 100,00 %
03.06.2017 22:22 21,8 C 27,2 C 66 % 1008,2 hPa 0,0 l/m 9,5 km/h (2 Bft) O 82 0 min 0,000 mm 0,0 UV-I 0 W/m 15,2 C 20,8 C 14,5 km/h (3 Bft) 97,62 %
03.06.2017 22:24 21,7 C 27,2 C 66 % 1008,2 hPa 0,0 l/m 7,7 km/h (2 Bft) O-NO 78 0 min 0,000 mm 0,0 UV-I 0 W/m 15,1 C 21,2 C 12,9 km/h (3 Bft) 100,00 %
03.06.2017 22:26 21,7 C 27,2 C 67 % 1008,2 hPa 0,0 l/m 8,2 km/h (2 Bft) O-NO 67 0 min 0,000 mm 0,0 UV-I 0 W/m 15,3 C 21,1 C 11,3 km/h (2 Bft) 97,87 %
03.06.2017 22:28 21,7 C 27,2 C 67 % 1008,2 hPa 0,0 l/m 8,9 km/h (2 Bft) O-NO 65 0 min 0,000 mm 0,0 UV-I 0 W/m 15,3 C 20,8 C 12,9 km/h (3 Bft) 98,11 %
03.06.2017 22:30 21,7 C 27,2 C 67 % 1008,2 hPa 0,0 l/m 7,3 km/h (2 Bft) O-NO 65 0 min 0,000 mm 0,0 UV-I 0 W/m 15,3 C 21,4 C 11,3 km/h (2 Bft) 97,37 %
03.06.2017 22:32 21,6 C 27,2 C 67 % 1008,1 hPa 0,0 l/m 8,6 km/h (2 Bft) O-NO 76 0 min 0,000 mm 0,0 UV-I 0 W/m 15,2 C 20,8 C 12,9 km/h (3 Bft) 96,43 %
03.06.2017 22:34 21,6 C 27,2 C 67 % 1008,1 hPa 0,0 l/m 8,5 km/h (2 Bft) O-NO 75 0 min 0,000 mm 0,0 UV-I 0 W/m 15,2 C 20,9 C 12,9 km/h (3 Bft) 97,56 %
03.06.2017 22:36 21,6 C 27,2 C 67 % 1008,1 hPa 0,0 l/m 9,9 km/h (2 Bft) NO 56 0 min 0,000 mm 0,0 UV-I 0 W/m 15,2 C 20,4 C 14,5 km/h (3 Bft) 100,00 %
03.06.2017 22:38 21,6 C 27,2 C 67 % 1008,1 hPa 0,0 l/m 8,4 km/h (2 Bft) O-NO 73 0 min 0,000 mm 0,0 UV-I 0 W/m 15,2 C 20,9 C 12,9 km/h (3 Bft) 100,00 %
03.06.2017 22:40 21,5 C 27,2 C 67 % 1008,1 hPa 0,0 l/m 9,9 km/h (2 Bft) O 84 0 min 0,000 mm 0,0 UV-I 0 W/m 15,1 C 20,3 C 12,9 km/h (3 Bft) 97,87 %
03.06.2017 22:42 21,5 C 27,2 C 68 % 1008,1 hPa 0,0 l/m 9,7 km/h (2 Bft) O-NO 72 0 min 0,000 mm 0,0 UV-I 0 W/m 15,3 C 20,4 C 14,5 km/h (3 Bft) 100,00 %
03.06.2017 22:44 21,5 C 27,2 C 68 % 1008,1 hPa 0,0 l/m 11,6 km/h (2 Bft) O-NO 76 0 min 0,000 mm 0,0 UV-I 0 W/m 15,3 C 19,9 C 16,1 km/h (3 Bft) 97,30 %
03.06.2017 22:46 21,5 C 27,2 C 68 % 1008,1 hPa 0,0 l/m 7,6 km/h (2 Bft) O-NO 74 0 min 0,000 mm 0,0 UV-I 0 W/m 15,3 C 21,1 C 11,3 km/h (2 Bft) 100,00 %
03.06.2017 22:48 21,5 C 27,2 C 68 % 1008,0 hPa 0,0 l/m 8,4 km/h (2 Bft) O-NO 65 0 min 0,000 mm 0,0 UV-I 0 W/m 15,3 C 20,8 C 12,9 km/h (3 Bft) 98,11 %
03.06.2017 22:50 21,4 C 27,2 C 68 % 1008,0 hPa 0,0 l/m 10,0 km/h (2 Bft) O 86 0 min 0,000 mm 0,0 UV-I 0 W/m 15,2 C 20,2 C 14,5 km/h (3 Bft) 95,74 %
03.06.2017 22:52 21,4 C 27,2 C 69 % 1008,0 hPa 0,0 l/m 9,1 km/h (2 Bft) O-NO 70 0 min 0,000 mm 0,0 UV-I 0 W/m 15,5 C 20,5 C 12,9 km/h (3 Bft) 97,56 %
03.06.2017 22:54 21,4 C 27,2 C 69 % 1008,0 hPa 0,0 l/m 10,7 km/h (2 Bft) O 85 0 min 0,000 mm 0,0 UV-I 0 W/m 15,5 C 20,0 C 14,5 km/h (3 Bft) 97,56 %
03.06.2017 22:56 21,4 C 27,2 C 69 % 1008,0 hPa 0,0 l/m 11,8 km/h (2 Bft) O 82 0 min 0,000 mm 0,0 UV-I 0 W/m 15,5 C 19,7 C 16,1 km/h (3 Bft) 96,23 %
03.06.2017 22:58 21,3 C 27,2 C 69 % 1008,0 hPa 0,0 l/m 8,6 km/h (2 Bft) O 88 0 min 0,000 mm 0,0 UV-I 0 W/m 15,4 C 20,5 C 12,9 km/h (3 Bft) 97,62 %
03.06.2017 23:00 21,3 C 27,2 C 69 % 1007,9 hPa 0,0 l/m 7,4 km/h (2 Bft) O-NO 71 0 min 0,051 mm 0,0 UV-I 0 W/m 15,4 C 20,9 C 12,9 km/h (3 Bft) 90,91 %
03.06.2017 23:02 21,3 C 27,2 C 70 % 1007,9 hPa 0,0 l/m 5,2 km/h (1 Bft) O 96 0 min 0,000 mm 0,0 UV-I 0 W/m 15,6 C 21,3 C 8,0 km/h (2 Bft) 97,44 %
03.06.2017 23:04 21,2 C 27,2 C 70 % 1008,0 hPa 0,0 l/m 9,5 km/h (2 Bft) O-NO 58 0 min 0,000 mm 0,0 UV-I 0 W/m 15,5 C 20,1 C 14,5 km/h (3 Bft) 92,45 %
03.06.2017 23:06 21,2 C 27,2 C 70 % 1007,9 hPa 0,0 l/m 8,4 km/h (2 Bft) O-NO 77 0 min 0,000 mm 0,0 UV-I 0 W/m 15,5 C 20,5 C 12,9 km/h (3 Bft) 92,11 %
03.06.2017 23:08 21,2 C 27,2 C 70 % 1007,9 hPa 0,0 l/m 10,1 km/h (2 Bft) O-NO 69 0 min 0,000 mm 0,0 UV-I 0 W/m 15,5 C 19,9 C 14,5 km/h (3 Bft) 96,23 %
03.06.2017 23:10 21,2 C 27,2 C 70 % 1007,9 hPa 0,0 l/m 9,1 km/h (2 Bft) O 85 0 min 0,000 mm 0,0 UV-I 0 W/m 15,5 C 20,2 C 12,9 km/h (3 Bft) 90,57 %
03.06.2017 23:13 21,1 C 27,2 C 70 % 1007,9 hPa 0,0 l/m 8,5 km/h (2 Bft) O-NO 70 0 min 0,000 mm 0,0 UV-I 0 W/m 15,4 C 20,3 C 14,5 km/h (3 Bft) 94,03 %
03.06.2017 23:14 21,1 C 27,2 C 71 % 1007,9 hPa 0,0 l/m 9,3 km/h (2 Bft) O-NO 73 0 min 0,000 mm 0,0 UV-I 0 W/m 15,6 C 20,1 C 14,5 km/h (3 Bft) 96,30 %
03.06.2017 23:16 21,1 C 27,2 C 71 % 1007,8 hPa 0,0 l/m 9,9 km/h (2 Bft) O-NO 72 0 min 0,000 mm 0,0 UV-I 0 W/m 15,6 C 19,9 C 14,5 km/h (3 Bft) 95,12 %
03.06.2017 23:18 21,1 C 27,2 C 71 % 1007,9 hPa 0,0 l/m 10,3 km/h (2 Bft) O 82 0 min 0,000 mm 0,0 UV-I 0 W/m 15,6 C 19,8 C 16,1 km/h (3 Bft) 90,91 %
03.06.2017 23:20 21,0 C 27,2 C 71 % 1007,9 hPa 0,0 l/m 7,7 km/h (2 Bft) O-NO 70 0 min 0,000 mm 0,0 UV-I 0 W/m 15,5 C 20,5 C 12,9 km/h (3 Bft) 89,36 %
03.06.2017 23:22 20,9 C 27,2 C 72 % 1007,8 hPa 0,0 l/m 6,8 km/h (2 Bft) O 82 0 min 0,000 mm 0,0 UV-I 0 W/m 15,7 C 20,8 C 11,3 km/h (2 Bft) 98,00 %
03.06.2017 23:24 20,9 C 27,2 C 72 % 1007,9 hPa 0,0 l/m 7,7 km/h (2 Bft) O-NO 61 0 min 0,000 mm 0,0 UV-I 0 W/m 15,7 C 20,4 C 12,9 km/h (3 Bft) 96,00 %
03.06.2017 23:26 20,9 C 27,2 C 72 % 1007,8 hPa 0,0 l/m 8,6 km/h (2 Bft) O-NO 62 0 min 0,000 mm 0,0 UV-I 0 W/m 15,7 C 20,1 C 11,3 km/h (2 Bft) 97,56 %
03.06.2017 23:28 20,8 C 26,7 C 72 % 1007,8 hPa 0,0 l/m 8,0 km/h (2 Bft) O 80 0 min 0,000 mm 0,0 UV-I 0 W/m 15,6 C 20,2 C 12,9 km/h (3 Bft) 95,45 %
03.06.2017 23:30 20,8 C 27,2 C 72 % 1007,7 hPa 0,0 l/m 8,8 km/h (2 Bft) O-NO 76 0 min 0,000 mm 0,0 UV-I 0 W/m 15,6 C 19,9 C 12,9 km/h (3 Bft) 96,43 %
03.06.2017 23:32 20,8 C 26,7 C 72 % 1007,7 hPa 0,0 l/m 8,1 km/h (2 Bft) O-NO 71 0 min 0,000 mm 0,0 UV-I 0 W/m 15,6 C 20,2 C 12,9 km/h (3 Bft) 100,00 %
03.06.2017 23:34 20,7 C 26,7 C 73 % 1007,7 hPa 0,0 l/m 7,7 km/h (2 Bft) O-NO 78 0 min 0,000 mm 0,0 UV-I 0 W/m 15,7 C 20,2 C 12,9 km/h (3 Bft) 97,87 %
03.06.2017 23:36 20,7 C 26,7 C 73 % 1007,6 hPa 0,0 l/m 8,7 km/h (2 Bft) O-NO 76 0 min 0,000 mm 0,0 UV-I 0 W/m 15,7 C 19,8 C 12,9 km/h (3 Bft) 94,34 %
03.06.2017 23:38 20,7 C 26,7 C 73 % 1007,6 hPa 0,0 l/m 6,5 km/h (2 Bft) O 79 0 min 0,000 mm 0,0 UV-I 0 W/m 15,7 C 20,7 C 9,7 km/h (2 Bft) 97,44 %
03.06.2017 23:40 20,7 C 26,7 C 73 % 1007,6 hPa 0,0 l/m 6,7 km/h (2 Bft) O 80 0 min 0,000 mm 0,0 UV-I 0 W/m 15,7 C 20,6 C 8,0 km/h (2 Bft) 94,34 %
03.06.2017 23:42 20,6 C 26,7 C 73 % 1007,6 hPa 0,0 l/m 6,6 km/h (2 Bft) O-NO 65 0 min 0,000 mm 0,0 UV-I 0 W/m 15,6 C 20,5 C 8,0 km/h (2 Bft) 96,15 %
03.06.2017 23:44 20,6 C 26,7 C 73 % 1007,6 hPa 0,0 l/m 6,8 km/h (2 Bft) O-NO 71 0 min 0,000 mm 0,0 UV-I 0 W/m 15,6 C 20,4 C 11,3 km/h (2 Bft) 97,62 %
03.06.2017 23:46 20,5 C 26,7 C 74 % 1007,5 hPa 0,0 l/m 6,7 km/h (2 Bft) O 80 0 min 0,000 mm 0,0 UV-I 0 W/m 15,7 C 20,4 C 9,7 km/h (2 Bft) 96,00 %
03.06.2017 23:48 20,5 C 26,7 C 74 % 1007,5 hPa 0,0 l/m 6,1 km/h (2 Bft) O-NO 58 0 min 0,000 mm 0,0 UV-I 0 W/m 15,7 C 20,5 C 8,0 km/h (2 Bft) 97,87 %
03.06.2017 23:50 20,4 C 26,7 C 74 % 1007,5 hPa 0,0 l/m 5,7 km/h (1 Bft) O-NO 61 0 min 0,000 mm 0,0 UV-I 0 W/m 15,6 C 20,4 C 8,0 km/h (2 Bft) 94,00 %
03.06.2017 23:52 20,3 C 26,7 C 75 % 1007,5 hPa 0,0 l/m 5,8 km/h (2 Bft) O-NO 57 0 min 0,000 mm 0,0 UV-I 0 W/m 15,7 C 20,3 C 8,0 km/h (2 Bft) 97,37 %
03.06.2017 23:54 20,2 C 26,7 C 75 % 1007,5 hPa 0,0 l/m 7,0 km/h (2 Bft) NO 56 0 min 0,000 mm 0,0 UV-I 0 W/m 15,6 C 20,0 C 9,7 km/h (2 Bft) 94,34 %
03.06.2017 23:56 20,1 C 26,7 C 76 % 1007,5 hPa 0,0 l/m 7,0 km/h (2 Bft) O-NO 63 0 min 0,000 mm 0,0 UV-I 0 W/m 15,7 C 19,9 C 9,7 km/h (2 Bft) 94,00 %
03.06.2017 23:58 20,0 C 26,7 C 76 % 1007,5 hPa 0,0 l/m 7,0 km/h (2 Bft) NO 55 0 min 0,000 mm 0,0 UV-I 0 W/m 15,6 C 19,8 C 9,7 km/h (2 Bft) 97,37 %
_ Min-Zeit 05:36 08:36 15:50 23:46 - 00:02 - - - - - - 05:36 05:36 00:02 00:02
Minimum _ 14,2 C 25,0 C 42 % 1007,5 hPa - 0,0 km/h (0 Bft) - - - - - - 13,1 C 14,2 C 0,0 km/h (0 Bft) 15,38 %
_ Max-Zeit 15:48 18:32 05:18 08:10 00:00 19:12 - - 12:34 14:02 13:04 14:26 11:32 16:22 18:00 00:22
Maximum _ 28,2 C 27,2 C 94 % 1014,9 hPa 0,0 l/m 17,9 km/h
O (3 Bft)
- - 4 min 0,610 mm 6,2 UV-I 940 W/m 18,6 C 28,2 C 24,1 km/h
O-NO (4 Bft)
100,00 %
Durchschnitt _ 21,6 C 26,2 C 70 % 1012,1 hPa #0,0 l/m 4,8 km/h (1 Bft) O-NO - #13:26 h #5,588 mm 3,5 UV-I 477 W/m 15,3 C 21,4 C 8,1 km/h (2 Bft) 96,92 %